     2.10           OBSERVATION DATA    G (GPS)             RINEX VERSION / TYPE
teqc 2003Nov3 GPS Data Processor 20031211 22:27:45UTC       PGM / RUN BY / DATE
Solaris 2.7|Ultra 2|cc SC5.0|=+-|*Sparc                     COMMENT
2 OBSERVATION DATA                                          COMMENT
ASHTORIN USGS 15 - SEP - 92 13:44                           COMMENT
                                                            COMMENT
blco BLCO_1989_NGS                                          MARKER NAME
                                                            MARKER NUMBER
JMS USGS                                                    OBSERVER / AGENCY
765 ASHTECH L-XII 7A24                                      REC # / TYPE / VERS
1058 ASH700228D NONE                                        ANT # / TYPE
 -2653791.0000 -3863352.0000  4311333.0000                  APPROX POSITION XYZ
        1.3930        0.0000        0.0000                  ANTENNA: DELTA H/E/N
HI is vertical height to base of antenna                    COMMENT
     1     1                                                WAVELENGTH FACT L1/2
     3    L1    L2    C1                                    # / TYPES OF OBSERV
    30.0000                                                 INTERVAL
                                                            COMMENT
Receiver type modified to reflect codeless receiver         COMMENT
Original receiver designation: ASHTECH LM-XII3              COMMENT
                                                            COMMENT
                                                            COMMENT
  1992     8    27    18    41    0.0000000     GPS         TIME OF FIRST OBS
                                                            END OF HEADER
 92  8 27 18 41  0.0000000  0  2G12G16
   2197414.93017    181908.80834  22808492.219
  11458514.39416   -165121.71232  23526657.944
 92  8 27 18 41 30.0000000  0  2G12G16
   2289790.752 6    253889.83225  22826072.739
  11363656.647 6   -239036.68523  23508609.658
 92  8 27 18 42  0.0000000  0  5G 3G20G12G24G16
  22132507.10415   -165494.31631  24356069.994
   -855896.15918   -137140.13032  21202841.618
   2381715.905 6    325519.69825  22843560.262
   6304600.20418     79670.33431  21007351.273
  11268229.364 6   -313395.39224  23490450.180
 92  8 27 18 42 30.0000000  0  5G 3G20G12G24G16
  22043660.731 5   -234725.15522  24339163.768
   -923276.248 8   -189644.01825  21190017.756
   2473361.051 7    396931.36125  22861006.295
   6341009.206 8    108045.08725  21014276.329
  11172407.194 6   -388061.90825  23472213.685
 92  8 27 18 43  0.0000000  0  5G 3G20G12G24G16
  21954437.166 5   -304249.86223  24322185.441
   -990752.329 8   -242222.74126  21177174.737
   2564819.632 7    468197.70325  22878406.159
   6377356.445 8    136367.59526  21021192.721
  11076301.770 6   -462949.02625  23453931.081
 92  8 27 18 43 30.0000000  0  6G 3G20G12G25G24G16
  21864923.674 5   -374000.52923  24305160.078
  -1058235.626 8   -294807.13026  21164339.453
   2656175.396 7    539383.88225  22895792.892
  23885058.20316   -129597.05731  24428936.379
   6413729.696 8    164710.36326  21028116.818
  10980020.841 6   -537972.98025  23435601.291
 92  8 27 18 44  0.0000000  0  6G 3G20G12G25G24G16
  21775196.719 5   -443917.57524  24288082.281
  -1125647.292 8   -347335.68127  21151510.494
   2747501.736 7    610547.13725  22913170.692
  23815756.415 6   -183598.00822  24415751.267
   6450213.731 8    193139.44027  21035058.422
  10883641.247 6   -613073.79725  23417259.688
 92  8 27 18 44 30.0000000  0  6G 3G20G12G25G24G16
  21685222.612 5   -514027.13724  24270959.035
  -1193018.647 8   -399832.80927  21138689.690
   2838762.288 7    681659.14625  22930541.117
  23746561.569 6   -237516.13023  24402589.569
   6486779.868 8    221632.52227  21042013.277
  10787129.806 6   -688277.40925  23398902.137
 92  8 27 18 45  0.0000000  0  6G 3G20G12G25G24G16
  21595191.528 5   -584181.15625  24253824.936
  -1260158.082 9   -452149.24527  21125917.182
   2930143.393 6    752865.09225  22947921.704
  23677675.847 6   -291193.33324  24389478.805
   6523610.529 8    250331.70327  21049028.571
  10690681.718 6   -763431.59625  23380541.858
 92  8 27 18 45 30.0000000  0  6G 3G20G12G25G24G16
  21505181.951 5   -654318.28225  24236711.194
  -1326984.491 8   -504221.73728  21113197.557
   3021720.814 6    824223.98325  22965353.017
  23609179.003 5   -344567.53724  24376448.626
   6560783.927 8    279297.96327  21056096.927
  10594372.689 6   -838477.45825  23362221.151
 92  8 27 18 46  0.0000000  0  6G 3G20G12G25G24G16
  21415238.984 5   -724403.67125  24219590.436
  -1393450.930 8   -556013.74828  21100548.474
   3113536.471 6    895768.52725  22982822.793
  23541104.095 5   -397612.90024  24363488.148
   6598339.539 8    308562.06228  21063247.997
  10498239.788 6   -913386.07525  23343924.667
 92  8 27 18 46 30.0000000  0  6G 3G20G12G25G24G16
  21325439.841 5   -794376.89025  24202503.436
  -1459477.935 8   -607463.33028  21087979.436
   3205664.432 6    967556.44625  23000358.883
  23473535.748 5   -450263.64324  24350626.302
   6636333.914 8    338168.03528  21070472.156
  10402368.641 6   -988090.72025  23325685.594
 92  8 27 18 47  0.0000000  0  6G 3G20G12G25G24G16
  21235842.016 5   -864193.29724  24185451.181
  -1525006.355 8   -658524.42728  21075511.847
   3298158.820 6   1039629.87625  23017958.319
  23406540.995 5   -502467.34724  24337886.652
   6674814.838 8    368153.13228  21077801.632
  10306820.579 6  -1062543.58925  23307500.813
 92  8 27 18 47 30.0000000  0  6G 3G20G12G25G24G16
  21146477.028 5   -933828.24124  24168441.016
  -1590002.316 8   -709170.61728  21063146.037
   3391048.214 6   1112011.09025  23035639.119
  23340142.188 5   -554206.68124  24325246.652
   6713819.652 8    398546.47028  21085221.945
  10211616.422 6  -1136728.51325  23289369.755
 92  8 27 18 48  0.0000000  0  6G 3G20G12G25G24G16
  21057360.161 6  -1003269.79924  24151490.901
  -1654448.268 8   -759388.22328  21050884.046
   3484344.811 6   1184709.61325  23053387.282
  23274354.875 5   -605469.56524  24312729.538
   6753355.207 8    429353.33628  21092745.716
  10116769.398 6  -1210635.12325  23271336.249
 92  8 27 18 48 30.0000000  0  6G 3G20G12G25G24G16
  20968494.833 6  -1072515.37225  24134575.411
  -1718339.069 8   -809173.23228  21038722.785
   3578048.438 6   1257725.30825  23071220.376
  23209196.800 5   -656242.22024  24300324.485
   6793414.138 8    460568.05128  21100366.860
  10022295.535 6  -1284250.98825  23253349.331
 92  8 27 18 49  0.0000000  0  6G 3G20G12G25G24G16
  20879880.675 5  -1141565.27125  24117707.588
  -1781672.732 8   -858524.13228  21026673.107
   3672155.990 6   1331055.76325  23089131.597
  23144658.036 5   -706532.15325  24288041.809
   6834001.671 8    492194.66428  21108092.422
   9928195.097 6  -1357575.81825  23235444.107
 92  8 27 18 49 30.0000000  0  6G 3G20G12G25G24G16
  20791519.900 5  -1210417.72325  24100893.219
  -1844445.335 8   -907437.82629  21014724.519
   3766666.365 6   1404700.05625  23107108.622
  23080745.394 5   -756334.25425  24275883.036
   6875124.096 8    524238.05428  21115914.217
   9834478.020 6  -1430601.97425  23217607.295
 92  8 27 18 50  0.0000000  0  6G 3G20G12G25G24G16
  20703426.257 6  -1279062.00425  24084138.148
  -1906640.866 9   -955901.86229  21002891.950
   3861589.952 6   1478666.38525  23125174.565
  23017491.963 5   -805622.66825  24263838.634
   6916779.239 8    556696.56128  21123840.939
   9741179.331 6  -1503302.09725  23199849.358
 92  8 27 18 50 30.0000000  0  6G 3G20G12G25G24G16
  20615603.827 6  -1347495.00025  24067423.609
  -1968252.968 8  -1003911.28229  20991167.337
   3956927.865 6   1552955.53425  23143319.893
  22954902.207 5   -854393.90225  24251930.218
   6958973.517 8    589575.18628  21131874.388
   9648307.005 6  -1575670.00525  23182184.747
 92  8 27 18 51  0.0000000  0  6G 3G20G12G25G24G16
  20528053.799 5  -1415715.69025  24050757.757
  -2029278.456 9  -1051463.56929  20979553.767
   4052678.178 6   1627566.06625  23161537.411
  22892968.352 5   -902654.13125  24240151.073
   7001716.513 8    622881.38528  21140010.275
   9555854.948 6  -1647710.38925  23164596.673
 92  8 27 18 51 30.0000000  0  6G 3G20G12G25G24G16
  20440769.585 5  -1483729.21425  24034152.373
  -2089722.348 8  -1098562.70429  20968052.289
   4148831.076 6   1702490.26225  23179833.895
  22831694.750 5   -950399.79525  24228491.634
   7044993.727 8    656603.86328  21148242.936
   9463808.786 6  -1719434.51625  23147077.192
 92  8 27 18 52  0.0000000  0  6G 3G20G12G25G24G16
  20353750.659 5  -1551536.05325  24017590.638
  -2149582.814 9  -1145207.21029  20956663.264
   4245382.743 6   1777725.18425  23198212.552
  22771073.764 5   -997636.91625  24216957.599
   7088797.832 8    690736.91428  21156579.565
   9372162.246 6  -1790847.25525  23129638.085
 92  8 27 18 52 30.0000000  0  6G 3G20G12G25G24G16
  20266995.286 6  -1619137.46225  24001080.947
  -2208859.984 9  -1191397.19429  20945382.284
   4342328.005 6   1853266.82725  23216655.364
  22711089.384 5  -1044378.02925  24205541.412
   7133135.035 8    725285.33628  21165016.144
   9280913.876 6  -1861949.77825  23112274.915
 92  8 27 18 53  0.0000000  0  6G 3G20G12G25G24G16
  20180504.688 6  -1686532.63425  23984632.594
  -2267550.166 8  -1237129.79929  20934214.655
   4439665.494 6   1929114.09325  23235178.910
  22651759.641 5  -1090609.05425  24194253.807
   7178017.122 8    760258.37728  21173554.803
   9190071.657 6  -1932735.76125  23094988.072
 92  8 27 18 53 30.0000000  0  6G 3G20G12G25G24G16
  20094348.258 5  -1753667.40025  23968221.176
  -2325582.158 8  -1282349.52529  20923169.491
   4537461.124 6   2005318.34825  23253791.105
  22593160.330 5  -1136270.88825  24183097.690
   7223512.088 8    795708.97028  21182215.717
   9099710.536 6  -2003146.92325  23077789.879
 92  8 27 18 54  0.0000000  0  6G 3G20G12G25G24G16
  20008548.006 6  -1820524.63325  23951902.063
  -2382932.058 8  -1327037.73929  20912257.226
   4635733.469 6   2081894.07625  23272488.112
  22535314.492 5  -1181345.67725  24172092.489
   7269653.411 8    831663.21328  21190990.313
   9009860.226 6  -2073159.99625  23060687.378
 92  8 27 18 54 30.0000000  0  6G 3G20G12G25G24G16
  19923004.939 6  -1887181.44025  23935620.425
  -2439696.789 8  -1371269.99029  20901454.114
   4734380.689 6   2158761.91825  23291261.055
  22478131.918 5  -1225903.53825  24161215.748
   7316341.940 8    868043.83728  21199876.221
   8920424.711 6  -2142849.88525  23043673.227
 92  8 27 18 55  0.0000000  0  6G 3G20G12G25G24G16
  19837721.987 5  -1953635.53525  23919390.381
  -2495871.524 8  -1415042.48129  20890764.025
   4833402.268 6   2235921.47325  23310106.009
  22421617.525 5  -1269940.69025  24150452.779
   7363564.736 8    904840.79828  21208861.091
   8831393.799 6  -2212224.47125  23026735.133
 92  8 27 18 55 30.0000000  0  6G 3G20G12G25G24G16
  19752702.635 5  -2019884.29325  23903221.344
  -2551450.399 8  -1458350.69329  20880187.287
   4932798.887 6   2313373.23725  23329020.335
  22365757.947 5  -1313467.69325  24139831.283
   7411311.882 8    942046.30328  21217950.529
   8742772.793 6  -2281279.66325  23009867.550
 92  8 27 18 56  0.0000000  0  6G 3G20G12G25G24G16
  19667906.310 5  -2085959.16725  23887079.589
  -2606472.226 8  -1501224.83629  20869718.684
   5032526.425 6   2391082.89725  23348000.106
  22310504.663 6  -1356522.22225  24129318.580
   7459531.667 8    979620.12528  21227128.854
   8654541.197 6  -2350031.41125  22993077.104
 92  8 27 18 56 30.0000000  0  6G 3G20G12G25G24G16
  19583216.334 6  -2151951.19325  23870964.425
  -2661051.899 8  -1543754.44129  20859332.345
   5132465.144 6   2468957.08025  23367016.751
  22255736.563 6  -1399198.69125  24118895.246
   7508086.628 8   1017455.12728  21236366.270
   8566597.927 6  -2418558.51025  22976335.164
 92  8 27 18 57  0.0000000  0  6G 3G20G12G25G24G16
  19498785.135 6  -2217741.60225  23854899.147
  -2715034.848 8  -1585819.06029  20849061.155
   5232764.074 6   2547111.98125  23386103.577
  22201604.927 6  -1441379.20125  24108590.870
   7557138.192 8   1055677.08528  21245702.136
   8479109.615 6  -2486731.06125  22959689.608
 92  8 27 18 57 30.0000000  0  6G 3G20G12G25G24G16
  19414602.943 6  -2283338.01025  23838870.234
  -2768429.126 8  -1627424.98729  20838899.240
   5333410.606 6   2625537.70525  23405256.718
  22148113.600 6  -1483060.83525  24098406.201
   7606690.175 8   1094288.98628  21255129.920
   8392085.515 6  -2554541.90525  22943135.278
 92  8 27 18 58  0.0000000  0  6G 3G20G12G25G24G16
  19330667.255 6  -2348742.35525  23822902.868
  -2821235.371 9  -1668572.69129  20828851.966
   5434398.452 6   2704229.38125  23424477.791
  22095279.374 6  -1524230.56325  24088356.947
   7656739.113 8   1133288.13127  21264648.660
   8305526.956 6  -2621989.99325  22926664.890
 92  8 27 18 58 30.0000000  0  6G 3G20G12G25G24G16
  19246972.499 6  -2413958.89725  23806982.269
  -2873456.945 8  -1709264.81929  20818910.788
   5535719.355 6   2783180.57825  23443757.175
  22043115.802 6  -1564877.32025  24078432.528
   7707290.406 8   1172678.71927  21274273.917
   8219412.304 6  -2689092.18325  22910279.104
 92  8 27 18 59  0.0000000  0  6G 3G20G12G25G24G16
  19163520.483 6  -2478986.40425  23791097.736
  -2925090.351 9  -1749498.62729  20809087.848
   5637371.736 6   2862390.10325  23463101.853
  21991630.259 6  -1604995.94225  24068628.115
   7758359.826 8   1212473.04427  21283987.012
   8133731.430 6  -2755856.34225  22893967.546
 92  8 27 18 59 30.0000000  0  6G 3G20G12G25G24G16
  19080303.521 6  -2543830.65225  23775263.927
  -2976140.846 8  -1789278.21329  20799369.926
   5739344.899 6   2941849.58825  23482507.149
  21940816.894 6  -1644590.87225  24058957.560
   7809918.453 8   1252648.57927  21293802.337
   8048467.089 6  -2822295.92925  22877737.862
 92  8 27 19  0  0.0000000  0  6G 3G20G12G25G24G16
  18997323.595 5  -2608490.19225  23759473.888
  -3026604.956 8  -1828600.88329  20789769.642
   5841637.426 6   3021557.86525  23501970.784
  21890670.179 6  -1683666.22725  24049418.944
   7861954.013 8   1293195.74527  21303704.033
   7963613.259 6  -2888415.63025  22861595.507
 92  8 27 19  0 30.0000000  0  6G 3G20G12G25G24G16
  18914575.984 5  -2672968.70925  23743718.835
  -3076485.582 8  -1867468.88329  20780279.232
   5944241.281 6   3101508.78525  23521490.061
  21841171.875 6  -1722236.36125  24040003.932
   7914460.491 8   1334109.84927  21313695.366
   7879161.356 6  -2954222.14325  22845526.691
 92  8 27 19  1  0.0000000  0  6G 3G20G12G25G24G16
  18832058.712 6  -2737267.77325  23728020.953
  -3125782.646 9  -1905882.16529  20770898.066
   6047151.484 6   3181698.39825  23541074.513
  21792307.487 6  -1760312.57825  24030706.798
   7967430.503 8   1375385.16328  21323776.727
   7795114.254 6  -3019713.24025  22829530.365
 92  8 27 19  1 30.0000000  0  6G 3G20G12G25G24G16
  18749766.054 6  -2801391.80925  23712357.576
  -3174499.958 9  -1943843.69429  20761624.706
   6150359.088 6   3262119.76925  23560711.729
  21744058.812 6  -1797909.00025  24021522.956
   8020851.068 8   1417011.54328  21333941.070
   7711477.566 6  -3084884.53025  22813613.184
 92  8 27 19  2  0.0000000  0  6G 3G20G12G25G24G16
  18667691.188 6  -2865346.07925  23696739.888
  -3222642.824 9  -1981357.60029  20752464.188
   6253853.906 6   3342764.92225  23580403.296
  21696416.730 6  -1835032.74925  24012442.932
   8074720.649 8   1458987.81828  21344192.593
   7628257.974 6  -3149730.79625  22797778.416
 92  8 27 19  2 30.0000000  0  6G 3G20G12G25G24G16
  18585832.003 6  -2929132.39325  23681168.968
  -3270211.331 9  -2018423.96229  20743411.625
   6357630.664 6   3423629.80125  23600162.348
  21649375.526 6  -1871688.22825  24003506.688
   8129041.804 8   1501315.95527  21354528.627
   7545468.172 6  -3214242.21325  22782018.567
 92  8 27 19  3  0.0000000  0  6G 3G20G12G25G24G16
  18504186.666 6  -2992752.03525  23665635.252
  -3317205.405 8  -2055042.70429  20734467.887
   6461684.430 6   3504710.48725  23619957.973
  21602935.707 5  -1907875.13725  23994665.958
   8183809.341 8   1543991.95027  21364948.784
   7463117.317 6  -3278411.55225  22766351.773
 92  8 27 19  3 30.0000000  0  6G 3G20G12G25G24G16
  18422845.633 6  -3056134.52625  23650151.001
  -3363532.533 9  -2091141.74929  20725652.399
   6566102.423 6   3586074.98125  23639834.633
  21557201.036 6  -1943512.54125  23985971.797
   8239102.312 8   1587077.35927  21375475.456
   7381303.829 6  -3342162.19325  22750781.482
 92  8 27 19  4  0.0000000  0  6G 3G20G12G25G24G16
  18341831.280 6  -3119262.47425  23634729.167
  -3409168.834 9  -2126702.49029  20716971.579
   6670903.750 6   3667738.18525  23659774.879
  21512216.859 6  -1978565.20825  23977397.673
   8294934.326 8   1630582.79127  21386095.604
   7300042.264 6  -3405482.75725  22735327.960
 92  8 27 19  4 30.0000000  0  6G 3G20G12G25G24G16
  18261024.982 6  -3182228.28825  23619352.513
  -3454230.983 9  -2161815.83429  20708395.386
   6775966.758 6   3749605.30425  23679769.387
  21467870.878 6  -2013120.55925  23968962.203
   8351187.056 8   1674416.07027  21396803.651
   7219208.379 6  -3468470.06725  22719937.844
 92  8 27 19  5  0.0000000  0  6G 3G20G12G25G24G16
  18180380.743 6  -3245067.85525  23604007.546
  -3498763.526 8  -2196516.50229  20699920.883
   6881241.863 6   3831637.61725  23699802.058
  21424128.670 5  -2047205.42825  23960644.821
   8407807.864 8   1718536.17027  21407577.802
   7138746.909 6  -3531167.16425  22704627.414
 92  8 27 19  5 30.0000000  0  6G 3G20G12G25G24G16
  18099774.466 6  -3307877.84125  23588669.114
  -3542888.414 8  -2230899.51029  20691522.497
   6986602.056 6   3913736.33525  23719854.606
  21380871.251 6  -2080912.58325  23952408.023
   8464670.725 8   1762844.87027  21418395.124
   7058536.068 6  -3593669.00525  22689366.478
 92  8 27 19  6  0.0000000  0  6G 3G20G12G25G24G16
  18019449.343 6  -3370468.77225  23573380.149
  -3586360.780 8  -2264774.06129  20683250.294
   7092287.086 6   3996088.11625  23739963.635
  21338320.484 6  -2114069.02425  23944311.258
   8522022.286 8   1807534.35627  21429312.216
   6978822.679 6  -3655783.21925  22674193.922
 92  8 27 19  6 30.0000000  0  6G 3G20G12G25G24G16
  17939467.041 6  -3432792.45325  23558165.202
  -3629117.439 9  -2298090.92329  20675113.357
   7198355.544 6   4078738.71025  23760143.535
  21296524.444 6  -2146637.35425  23936354.706
   8579925.143 8   1852653.45827  21440327.190
   6899686.095 6  -3717447.96625  22659135.677
 92  8 27 19  7  0.0000000  0  6G 3G20G12G25G24G16
  17859681.528 6  -3494962.90725  23542979.784
  -3671302.277 9  -2330962.21129  20667087.853
   7304658.413 6   4161571.96325  23780371.761
  21255333.321 6  -2178734.44425  23928524.817
   8638230.378 8   1898086.06727  21451425.717
   6820987.399 6  -3778771.53125  22644156.217
 92  8 27 19  7 30.0000000  0  6G 3G20G12G25G24G16
  17780092.470 6  -3556980.24225  23527841.164
  -3712914.277 9  -2363387.13329  20659168.835
   7411191.745 6   4244584.71325  23800652.541
  21214743.010 6  -2210363.19625  23920795.058
   8696932.032 8   1943827.58227  21462594.425
   6742736.578 6  -3839746.09525  22629263.037
 92  8 27 19  8  0.0000000  0  6G 3G20G12G25G24G16
  17700694.810 6  -3618848.38625  23512725.329
  -3753956.623 9  -2395368.17229  20651361.970
   7517947.761 6   4327771.07725  23820960.482
  21174760.973 6  -2241518.10025  23913189.563
   8756017.614 8   1989868.26427  21473846.535
   6664925.242 6  -3900378.23125  22614466.870
 92  8 27 19  8 30.0000000  0  6G 3G20G12G25G24G16
  17621487.777 6  -3680568.01225  23497655.482
  -3794428.579 9  -2426904.72929  20643655.235
   7624921.889 6   4411127.32425  23841320.617
  21135418.935 6  -2272174.24825  23905701.857
   8815493.074 8   2036212.75227  21485160.553
   6587547.746 6  -3960672.32625  22599730.422
 92  8 27 19  9  0.0000000  0  6G 3G20G12G25G24G16
  17542468.688 6  -3742141.20225  23482621.759
  -3834331.084 8  -2457997.58029  20636064.100
   7732108.622 6   4494649.30425  23861719.036
  21096719.730 6  -2302329.50725  23898339.704
   8875363.188 8   2082864.75927  21496548.559
   6510597.350 6  -4020633.59725  22585095.334
 92  8 27 19  9 30.0000000  0  6G 3G20G12G25G24G16
  17463634.977 6  -3803569.95425  23467618.346
  -3873664.786 8  -2488647.20229  20628578.103
   7839501.997 6   4578332.27025  23882153.369
  21058661.288 6  -2331985.48425  23891097.198
   8935633.815 8   2129828.83627  21508022.606
   6434078.832 6  -4080258.35625  22570532.046
 92  8 27 19 10  0.0000000  0  6G 3G20G12G25G24G16
  17384982.911 6  -3864857.16825  23452645.272
  -3912431.993 8  -2518855.38729  20621200.810
   7947095.146 6   4662170.91025  23902630.663
  21021235.626 6  -2361148.30925  23883963.516
   8996320.134 7   2177116.84327  21519565.635
   6357983.577 6  -4139553.31725  22556049.612
 92  8 27 19 10 30.0000000  0  6G 3G20G12G25G24G16
  17306512.060 6  -3926003.17525  23437714.768
  -3950631.589 8  -2548621.30629  20613932.641
   8054884.324 6   4746162.29825  23923136.317
  20984418.499 6  -2389836.99525  23876965.311
   9057430.953 8   2224735.61827  21531199.771
   6282313.062 6  -4198517.28825  22541656.006
 92  8 27 19 11  0.0000000  0  6G 3G20G12G25G24G16
  17228218.619 6  -3987010.97925  23422817.391
  -3988265.362 8  -2577946.31229  20606769.820
   8162862.899 6   4830301.22325  23943688.859
  20948180.373 6  -2418074.55625  23870066.427
   9118947.508 8   2272670.55927  21542903.608
   6207082.190 6  -4257138.72425  22527338.218
 92  8 27 19 11 30.0000000  0  6G 3G20G12G25G24G16
  17150103.729 6  -4047879.58525  23407946.366
  -4025331.036 9  -2606828.64329  20599720.290
   8271028.315 6   4914585.82725  23964273.179
  20912530.234 6  -2445853.95725  23863283.053
   9180855.107 8   2320910.22227  21554686.681
   6132287.965 6  -4315419.88825  22513105.901
 92  8 27 19 12  0.0000000  0  6G 3G20G12G25G24G16
  17072156.828 6  -4108617.30625  23393124.987
  -4061837.225 8  -2635275.01229  20592770.472
   8379367.305 6   4999005.60325  23984894.493
  20877466.304 6  -2473176.50425  23856614.859
   9243124.907 8   2369432.11827  21566532.021
   6057914.724 6  -4373373.03925  22498948.592
 92  8 27 19 12 30.0000000  0  6G 3G20G12G25G24G16
  16994375.937 6  -4169225.68625  23378314.160
  -4097784.588 8  -2663285.93329  20585929.777
   8487874.190 6   5083556.26925  24005539.970
  20842996.034 5  -2500036.47125  23850061.786
   9305729.408 8   2418214.80827  21578442.505
   5983975.337 6  -4430988.12725  22484875.764
 92  8 27 19 13  0.0000000  0  6G 3G20G12G25G24G16
  16916763.605 6  -4229702.74025  23363553.818
  -4133168.659 8  -2690857.93629  20579195.749
   8596548.463 6   5168237.29625  24026218.785
  20809145.275 5  -2526413.63725  23843614.149
   9368660.190 8   2467251.77427  21590425.989
   5910474.384 6  -4488261.55625  22470894.463
 92  8 27 19 13 30.0000000  0  6G 3G20G12G25G24G16
  16839316.637 6  -4290050.98425  23348811.464
  -4167991.177 8  -2717992.33729  20572568.807
   8705383.966 6   5253043.94225  24046932.495
  20775928.155 5  -2552297.20425  23837287.569
   9431910.552 8   2516537.73727  21602458.639
   5837380.550 6  -4545217.77125  22456986.132
 92  8 27 19 14  0.0000000  0  6G 3G20G12G25G24G16
  16762032.485 6  -4350272.30225  23334098.310
  -4202253.081 9  -2744689.91129  20566052.218
   8814374.864 6   5337971.73425  24067672.347
  20743329.861 5  -2577698.46825  23831093.497
   9495477.276 7   2566070.22627  21614553.736
   5764702.586 6  -4601849.89425  22443153.798
 92  8 27 19 14 30.0000000  0  6G 3G20G12G25G24G16
  16684910.958 6  -4410366.86625  23319432.943
  -4235953.270 9  -2770949.80229  20559639.208
   8923517.640 5   5423017.84525  24088439.360
  20711345.249 6  -2602621.55925  23825001.445
   9559359.036 8   2615848.20027  21626710.470
   5692445.797 6  -4658153.85325  22429407.954
 92  8 27 19 15  0.0000000  0  6G 3G20G12G25G24G16
  16607951.246 6  -4470335.35725  23304787.002
  -4269091.213 8  -2796771.54729  20553331.755
   9032808.161 6   5508179.09425  24109236.263
  20679968.869 6  -2627070.72625  23819029.069
   9623556.442 8   2665872.12827  21638925.753
   5620611.413 6  -4714128.67025  22415735.349
 92  8 27 19 15 30.0000000  0  6G 3G20G12G25G24G16
  16531159.821 6  -4530172.72125  23290171.220
  -4301658.639 9  -2822148.75529  20547137.353
   9142249.999 5   5593458.23725  24130056.639
  20649196.507 6  -2651049.19825  23813172.714
   9688089.525 8   2716157.62127  21651208.280
   5549228.296 6  -4769751.86425  22402149.085
 92  8 27 19 16  0.0000000  0  6G 3G20G12G25G24G16
  16454535.139 6  -4589880.17325  23275588.535
  -4333655.656 9  -2847081.49829  20541044.551
   9251838.180 5   5678851.39325  24150906.126
  20619021.101 5  -2674562.59125  23807429.110
   9752966.709 8   2766711.23927  21663556.522
   5478326.127 6  -4825000.27425  22388658.244
 92  8 27 19 16 30.0000000  0  6G 3G20G12G25G24G16
  16378072.222 6  -4649461.62025  23261034.721
  -4365085.806 8  -2871572.50829  20535064.351
   9361564.791 5   5764352.47125  24171791.677
  20589442.764 5  -2697610.60825  23801809.380
   9818184.297 8   2817530.13327  21675967.930
   5407897.467 7  -4879879.73525  22375259.260
 92  8 27 19 17  0.0000000  0  6G 3G20G12G25G24G16
  16301768.630 6  -4708918.85325  23246521.438
  -4395950.456 8  -2895622.87029  20529190.037
   9471423.862 6   5849956.69125  24192704.000
  20560455.478 6  -2720198.20325  23796291.160
   9883750.065 7   2868620.33027  21688441.245
   5337937.832 6  -4934393.71325  22361945.957
 92  8 27 19 17 30.0000000  0  6G 3G20G12G25G24G16
  16225625.098 6  -4768251.36725  23232024.044
  -4426246.976 8  -2919230.55329  20523426.887
   9581412.942 6   5935662.21125  24213626.275
  20532057.081 5  -2742326.87425  23790883.144
   9949660.910 7   2919979.39527  21700983.692
   5268430.363 7  -4988555.33025  22348716.056
 92  8 27 19 18  0.0000000  0  6G 3G20G12G25G24G16
  16149645.299 6  -4827456.31625  23217572.609
  -4455970.514 9  -2942391.73729  20517772.112
   9691532.754 6   6021469.65525  24234581.438
  20504248.347 5  -2763996.02825  23785586.921
  10015902.953 7   2971596.55327  21713589.155
   5199352.459 7  -5042382.23225  22335570.486
 92  8 27 19 18 30.0000000  0  6G 3G20G12G25G24G16
  16073825.322 6  -4886536.68325  23203145.726
  -4485123.279 8  -2965108.15629  20512218.217
   9801775.941 6   6107373.24025  24255564.332
  20477019.927 6  -2785213.02425  23780412.023
  10082470.107 8   3023467.04327  21726257.305
   5130692.266 7  -5095883.66525  22322505.111
 92  8 27 19 19  0.0000000  0  6G 3G20G12G25G24G16
  15998164.115 6  -4945493.35325  23188749.603
  -4513705.098 8  -2987379.70329  20506783.279
   9912138.751 5   6193369.98025  24276561.496
  20450374.620 6  -2805975.60125  23775340.614
  10149359.478 7   3075588.60727  21738986.283
   5062460.347 7  -5149051.32025  22309523.588
 92  8 27 19 19 30.0000000  0  6G 3G20G12G25G24G16
  15922660.375 6  -5004327.42725  23174378.721
  -4541715.896 8  -3009206.29729  20501453.809
  10022616.198 5   6279456.10925  24297579.646
  20424319.863 6  -2826278.06825  23770374.792
  10216556.125 7   3127949.59526  21751771.052
   4994665.340 6  -5201878.53925  22296615.274
 92  8 27 19 20  0.0000000  0  6G 3G20G12G25G24G16
  15847304.679 6  -5063046.03925  23160035.601
  -4569163.958 8  -3030594.37529  20496228.067
  10133195.726 5   6365621.72625  24318627.744
  20398854.556 6  -2846121.18425  23765541.658
  10284061.776 7   3180551.38527  21764619.348
   4927320.861 7  -5254354.70725  22283805.413
 92  8 27 19 20 30.0000000  0  6G 3G20G12G25G24G16
  15772102.547 6  -5121644.96925  23145721.111
  -4596042.388 8  -3051538.60229  20491114.267
  10243879.790 5   6451868.82725  24339691.582
  20373997.316 6  -2865490.44825  23760806.166
  10351869.529 7   3233388.55427  21777516.929
   4860452.966 7  -5306459.52025  22271081.231
 92  8 27 19 21  0.0000000  0  6G 3G20G12G25G24G16
  15697050.026 6  -5180127.35625  23131440.107
  -4622353.970 8  -3072041.12729  20486106.953
  10354661.151 5   6538191.78425  24360768.971
  20349748.867 6  -2884385.41425  23756193.410
  10419960.574 7   3286446.48227  21790479.745
   4794060.609 6  -5358193.70425  22258449.176
 92  8 27 19 21 30.0000000  0  6G 3G20G12G25G24G16
  15622151.704 6  -5238489.61825  23117192.411
  -4648092.810 8  -3092097.33929  20481209.214
  10465541.214 5   6624591.52725  24381870.013
  20326120.926 6  -2902796.83825  23751697.272
  10488340.931 7   3339729.86426  21803489.029
   4728141.157 7  -5409559.45025  22245907.719
 92  8 27 19 22  0.0000000  0  6G 3G20G12G25G24G16
  15547403.021 6  -5296735.27925  23102970.736
  -4673262.176 8  -3111709.83329  20476420.239
  10576512.211 5   6711062.17025  24402994.498
  20303105.573 6  -2920730.86525  23747319.013
  10557003.660 7   3393233.27626  21816553.804
   4662690.238 7  -5460560.09525  22233452.511
 92  8 27 19 22 30.0000000  0  6G 3G20G12G25G24G16
  15472804.063 6  -5354864.22925  23088775.623
  -4697860.567 8  -3130877.39829  20471740.809
  10687571.441 5   6797601.63925  24424127.798
  20280702.569 6  -2938187.82025  23743055.635
  10625935.949 7   3446946.71126  21829675.420
   4597707.481 7  -5511195.94325  22221088.441
 92  8 27 19 23  0.0000000  0  6G 3G20G12G25G24G16
  15398358.195 6  -5412873.91625  23074606.712
  -4721883.582 8  -3149596.63329  20467169.004
  10798718.591 5   6884209.55825  24445267.543
  20258913.192 6  -2955166.60225  23738908.366
  10695162.044 7   3500889.09226  21842848.691
   4533195.537 7  -5561464.88825  22208809.931
 92  8 27 19 23 30.0000000  0  6G 3G20G12G25G24G16
  15324058.891 6  -5470769.36725  23060465.232
  -4745336.575 8  -3167871.67129  20462707.133
  10909944.253 5   6970878.62425  24466442.904
  20237728.591 6  -2971674.05525  23734877.446
  10764672.474 7   3555053.04226  21856072.806
   4469156.201 7  -5611365.58225  22196615.243
 92  8 27 19 24  0.0000000  0  6G 3G20G12G25G24G16
  15249908.080 6  -5528549.14925  23046354.031
  -4768216.409 8  -3185700.11029  20458349.859
  11021246.911 5   7057607.66225  24487622.162
  20217132.995 6  -2987722.63625  23730958.199
  10834459.924 7   3609432.83226  21869352.712
   4405594.284 7  -5660894.26525  22184529.650
 92  8 27 19 24 30.0000000  0  6G 3G20G12G25G24G16
  15175911.816 6  -5586208.47425  23032272.300
  -4790515.769 8  -3203076.23629  20454107.646
  11132629.694 5   7144399.25425  24508808.525
  20197128.963 6  -3003310.18325  23727148.587
  10904533.482 7   3664035.57026  21882689.549
   4342508.388 6  -5710052.00425  22172513.938
 92  8 27 19 25  0.0000000  0  6G 3G20G12G25G24G16
  15102061.978 6  -5643753.73925  23018221.447
  -4812241.954 8  -3220005.71729  20449971.589
  11244080.886 5   7231244.00625  24530027.325
  20177707.484 6  -3018443.80025  23723450.557
  10974889.258 8   3718858.22726  21896077.831
   4279872.149 7  -5758859.37025  22160604.653
 92  8 27 19 25 30.0000000  0  6G 3G20G12G25G24G16
  15028360.241 6  -5701183.59125  23004203.481
  -4833392.149 8  -3236486.39929  20445949.604
  11355599.345 5   7318141.20725  24551250.173
  20158869.243 6  -3033123.03025  23719870.675
  11045518.781 7   3773894.18726  21909518.876
   4217675.555 7  -5807324.16825  22148767.048
 92  8 27 19 26  0.0000000  0  6G 3G20G12G25G24G16
  14954804.928 6  -5758499.31025  22990204.702
  -4853966.567 8  -3252518.41129  20442031.196
  11467180.192 5   7405087.03425  24572478.837
  20140617.067 6  -3047345.47625  23716397.520
  11116440.230 7   3829157.61826  21923015.922
   4155912.995 7  -5855450.75225  22137008.528
 92  8 27 19 26 30.0000000  0  6G 3G20G12G25G24G16
  14881392.715 6  -5815703.51425  22976230.027
  -4873968.071 8  -3268103.97629  20438225.451
  11578816.814 5   7492076.35925  24593717.724
  20122961.061 6  -3061103.42825  23713037.056
  11187652.379 7   3884647.57826  21936565.881
   4094591.665 7  -5903233.49925  22125338.087
 92  8 27 19 27  0.0000000  0  6G 3G20G12G25G24G16
  14808120.818 6  -5872798.48425  22962287.789
  -4893397.912 8  -3283244.11729  20434532.038
  11690503.499 5   7579104.66725  24614977.955
  20105891.723 6  -3074404.25725  23709791.173
  11259142.702 7   3940354.31626  21950168.694
   4033728.137 7  -5950659.55325  22113759.683
 92  8 27 19 27 30.0000000  0  6G 3G20G12G25G24G16
  14734988.645 6  -5929784.51925  22948373.222
  -4912255.775 8  -3297938.54529  20430940.764
  11802236.274 5   7666168.84625  24636246.551
  20089398.839 6  -3087255.82825  23706646.200
  11330905.850 7   3996273.61826  21963823.821
   3973357.192 7  -5997701.72825  22102269.657
 92  8 27 19 28  0.0000000  0  6G 3G20G12G25G24G16
  14661995.078 6  -5986662.52825  22934476.972
  -4930541.740 8  -3312187.33729  20427459.844
  11914010.745 5   7753265.57025  24657505.584
  20073478.295 6  -3099661.45925  23703624.712
  11402927.996 7   4052394.72226  21977526.165
   3913498.840 7  -6044344.48125  22090885.518
 92  8 27 19 28 30.0000000  0  6G 3G20G12G25G24G16
  14589141.093 6  -6043431.74525  22920611.031
  -4948253.933 8  -3325989.04429  20424091.196
  12025824.814 5   7840393.13925  24678791.178
  20058132.350 6  -3111619.41125  23700701.046
  11475181.593 7   4108696.20426  21991278.784
   3854157.998 7  -6090584.00425  22079585.771
 92  8 27 19 29  0.0000000  0  6G 3G20G12G25G24G16
  14516423.787 6  -6100094.48825  22906777.138
  -4965393.935 8  -3339344.88529  20420827.235
  12137672.709 5   7927547.07225  24700080.310
  20043360.669 6  -3123129.75325  23697886.325
  11547658.121 7   4165171.38826  22005074.814
   3795325.265 7  -6136427.59925  22068394.488
 92  8 27 19 29 30.0000000  0  6G 3G20G12G25G24G16
  14443851.181 6  -6156644.53125  22892965.220
  -4981952.991 8  -3352248.04929  20417680.824
  12249559.089 5   8014730.94325  24721369.952
  20029185.247 6  -3134175.61025  23695196.527
  11620366.016 7   4221826.85326  22018910.805
   3736996.094 7  -6181878.80225  22057294.912
 92  8 27 19 30  0.0000000  0  6G 3G20G12G25G24G16
  14371477.353 6  -6213039.66625  22879200.999
  -4997876.704 8  -3364656.12329  20414646.234
  12361534.736 5   8101984.37625  24742663.970
  20015663.173 6  -3144712.30225  23692617.202
  11693353.804 7   4278700.41326  22032794.824
   3679206.404 7  -6226909.64125  22046290.491
 92  8 27 19 30 30.0000000  0  6G 3G20G12G25G24G16
  14299252.207 6  -6269318.93525  22865452.756
  -5013213.649 8  -3376606.98229  20411728.744
  12473546.624 5   8189266.02325  24763985.749
  20002739.168 6  -3154782.95425  23690159.054
  11766584.466 7   4335763.23426  22046734.034
   3621901.626 7  -6271562.59925  22035389.527
 92  8 27 19 31  0.0000000  0  6G 3G20G12G25G24G16
  14227179.955 6  -6325479.05425  22851736.892
  -5027958.873 8  -3388096.76829  20408922.387
  12585595.734 5   8276576.70025  24785315.233
  19990406.764 6  -3164392.65525  23687809.791
  11840082.328 7   4393034.23926  22060721.360
   3565090.936 7  -6315830.55925  22024582.489
 92  8 27 19 31 30.0000000  0  6G 3G20G12G25G24G16
  14155254.352 6  -6381524.93925  22838045.580
  -5042118.108 8  -3399129.93029  20406231.960
  12697672.430 5   8363908.86325  24806631.856
  19978646.252 6  -3173556.69925  23685567.163
  11913851.090 7   4450516.35026  22074758.842
   3508778.405 7  -6359710.36125  22013861.851
 92  8 27 19 32  0.0000000  0  6G 3G20G12G25G24G16
  14083486.012 6  -6437448.30325  22824389.794
  -5055679.692 8  -3409697.41529  20403650.477
  12809784.347 5   8451268.55725  24827974.561
  19967460.389 6  -3182272.94825  23683446.311
  11987914.081 7   4508227.72926  22088851.157
   3452982.893 7  -6403187.30125  22003248.238
 92  8 27 19 32 30.0000000  0  6G 3G20G12G25G24G16
  14011867.818 6  -6493254.64025  22810764.346
  -5068649.940 8  -3419804.10129  20401180.337
  12921921.243 5   8538647.62525  24849306.623
  19956847.756 6  -3190542.55225  23681430.267
  12062273.045 7   4566169.76526  22103003.579
   3397694.830 7  -6446268.79725  21992722.945
 92  8 27 19 33  0.0000000  0  6G 3G20G12G25G24G16
  13940396.319 6  -6548946.64925  22797163.122
  -5081031.555 8  -3429452.12029  20398816.443
  13034076.634 5   8626041.13024  24870653.225
  19946819.356 6  -3198356.92225  23679523.827
  12136914.458 7   4624331.85726  22117203.009
   3342910.849 7  -6488957.53725  21982302.758
 92  8 27 19 33 30.0000000  0  6G 3G20G12G25G24G16
  13869070.828 6  -6604524.91825  22783595.415
  -5092824.297 8  -3438641.26629  20396578.642
  13146246.515 5   8713445.89825  24891998.748
  19937390.736 6  -3205703.90125  23677726.571
  12211818.773 7   4682698.87026  22131459.519
   3288633.564 7  -6531251.44925  21971968.852
 92  8 27 19 34  0.0000000  0  6G 3G20G12G25G24G16
  13797889.528 6  -6659990.84625  22770046.415
  -5104029.477 8  -3447372.58829  20394448.347
  13258425.924 5   8800858.03025  24913352.635
  19928569.139 5  -3212577.94025  23676052.950
  12286964.322 7   4741253.79826  22145754.943
   3234858.020 7  -6573154.37325  21961740.833
 92  8 27 19 34 30.0000000  0  6G 3G20G12G25G24G16
  13726851.707 6  -6715344.91825  22756526.165
  -5114646.895 8  -3455645.89129  20392426.697
  13370610.968 5   8888274.66425  24934697.828
  19920367.751 6  -3218968.59325  23674491.211
  12362323.501 7   4799975.18126  22160098.453
   3181585.467 7  -6614665.41225  21951598.944
 92  8 27 19 35  0.0000000  0  6G 3G20G12G25G24G16
  13655958.727 6  -6770586.15525  22743036.703
  -5124674.620 8  -3463459.71229  20390523.584
  13482799.903 5   8975694.28225  24956041.972
  19912782.707 6  -3224879.04425  23673043.333
  12437883.388 7   4858852.99526  22174475.990
   3128832.697 7  -6655771.42925  21941556.556
 92  8 27 19 35 30.0000000  0  6G 3G20G12G25G24G16
  13585204.917 6  -6825718.95625  22729572.305
  -5134117.529 8  -3470817.83029  20388721.262
  13594984.238 5   9063110.31125  24977393.370
  19905787.565 6  -3230329.86625  23671711.025
  12513634.862 7   4917880.06826  22188892.469
   3076598.152 7  -6696473.61825  21931626.741
 92  8 27 19 36  0.0000000  0  6G 3G20G12G25G24G16
  13514591.007 7  -6880742.75325  22716133.868
  -5142974.666 8  -3477719.49629  20387035.919
  13707160.999 6   9150520.41725  24998743.180
  19899373.635 6  -3235327.79125  23670494.558
  12589585.810 7   4977062.56626  22203344.504
   3024874.513 7  -6736777.68526  21921782.276
 92  8 27 19 36 30.0000000  0  6G 3G20G12G25G24G16
  13444120.291 6  -6935654.93625  22702723.522
  -5151241.866 8  -3484161.47629  20385464.437
  13819330.758 5   9237925.11425  25020087.384
  19893540.696 6  -3239872.92725  23669376.781
  12665750.535 7   5036411.68526  22217834.973
   2973668.498 7  -6776678.41526  21912032.306
 92  8 27 19 37  0.0000000  0  6G 3G20G12G25G24G16
  13373784.803 6  -6990461.75425  22689342.135
  -5158926.673 8  -3490149.64629  20383999.591
  13931482.033 5   9325315.36125  25041429.369
  19888262.179 6  -3243986.07925  23668378.652
  12742127.037 7   5095925.81026  22232372.899
   2922967.246 7  -6816185.86226  21902387.533
 92  8 27 19 37 30.0000000  0  6G 3G20G12G25G24G16
  13303587.682 6  -7045160.76825  22675980.865
  -5166025.343 8  -3495681.08629  20382649.925
  14043615.294 5   9412691.60025  25062770.995
  19883553.229 6  -3247655.43325  23667474.298
  12818722.661 7   5155610.68226  22246948.838
   2872769.797 7  -6855300.67326  21892837.014
 92  8 27 19 38  0.0000000  0  6G 3G20G12G25G24G16
  13233529.493 6  -7099751.50825  22662649.244
  -5172536.879 8  -3500755.01929  20381412.772
  14155727.758 5   9500051.61525  25084104.016
  19879430.999 6  -3250867.54625  23666698.256
  12895545.441 7   5215472.54926  22261562.491
   2823079.309 7  -6894020.50726  21883382.939
 92  8 27 19 38 30.0000000  0  5G 3G20G25G24G16
  13163606.492 7  -7154236.85025  22649343.915
  -5178464.612 8  -3505374.03029  20380284.173
  19875889.313 6  -3253627.34925  23666023.633
  12972576.800 7   5275496.97126  22276226.150
   2773904.263 7  -6932338.68426  21874029.654
 92  8 27 19 39  0.0000000  0  5G 3G20G25G24G16
  13093816.646 6  -7208618.52925  22636064.579
  -5183809.718 8  -3509539.06329  20379270.515
  19872925.413 6  -3255936.86225  23665452.528
  13049807.270 7   5335676.52626  22290925.783
   2725252.542 7  -6970249.10726  21864764.089
 92  8 27 19 39 30.0000000  0  5G 3G20G25G24G16
  13024161.276 6  -7262895.42225  22622807.456
  -5188570.498 8  -3513248.77729  20378361.214
  19870546.181 6  -3257790.88225  23665010.034
  13127243.220 7   5396016.16226  22305658.394
   2677135.695 7  -7007742.72826  21855605.789
 92  8 27 19 40  0.0000000  0  5G 3G20G25G24G16
  12954644.897 6  -7317063.95725  22609580.133
  -5192742.032 8  -3516499.33129  20377561.758
  19868736.475 6  -3259201.11025  23664660.686
  13204887.955 7   5456518.53626  22320434.025
   2629561.030 7  -7044813.85426  21846554.155
 92  8 27 19 40 30.0000000  0  5G 3G20G25G24G16
  12885267.912 6  -7371123.87025  22596377.693
  -5196323.332 8  -3519289.98029  20376888.813
  19867484.541 6  -3260176.63125  23664424.450
  13282726.712 7   5517172.06026  22335243.952
   2582529.647 7  -7081461.68426  21837605.770
 92  8 27 19 41  0.0000000  0  5G 3G20G25G24G16
  12816033.247 6  -7425072.88625  22583204.273
  -5199311.338 8  -3521618.31229  20376318.039
  19866791.424 6  -3260716.80725  23664289.124
  13360778.634 7   5577991.66826  22350100.048
   2536034.703 7  -7117691.48426  21828758.205
 92  8 27 19 41 30.0000000  0  5G 3G20G25G24G16
  12746938.471 6  -7478912.93925  22570055.646
  -5201708.465 8  -3523486.21829  20375861.515
  19866654.899 6  -3260823.18125  23664264.181
  13439045.162 7   5638978.54926  22364991.039
   2490052.592 7  -7153521.67226  21820006.934
 92  8 27 19 42  0.0000000  0  5G 3G20G25G24G16
  12677982.054 7  -7532645.17925  22556935.978
  -5203515.162 8  -3524894.04929  20375517.533
  19867073.223 6  -3260497.23225  23664339.279
  13517517.614 7   5700125.87526  22379925.560
   2444577.945 7  -7188956.45226  21811350.156
 92  8 27 19 42 30.0000000  0  5G 3G20G25G24G16
  12609161.968 7  -7586271.13925  22543841.313
  -5204733.910 8  -3525843.72329  20375284.984
  19868056.337 6  -3259731.26425  23664527.009
  13596188.358 7   5761427.67826  22394895.067
   2399597.527 7  -7224006.09626  21802795.249
 92  8 27 19 43  0.0000000  0  5G 3G20G25G24G16
  12540478.831 7  -7639790.42225  22530767.274
  -5205363.435 8  -3526334.27329  20375167.045
  19869619.613 6  -3258513.14825  23664821.855
  13675063.361 7   5822888.67926  22409909.363
   2355113.636 7  -7258668.82826  21794328.360
 92  8 27 19 43 30.0000000  0  5G 3G20G25G24G16
  12471934.729 7  -7693201.35425  22517725.643
  -5205401.741 8  -3526364.14029  20375156.942
  19871767.148 6  -3256839.75225  23665237.697
  13754123.903 7   5884494.29926  22424950.130
   2311148.662 7  -7292927.21726  21785964.151
 92  8 27 19 44  0.0000000  0  5G 3G20G25G24G16
  12403525.059 6  -7746507.54325  22504700.800
  -5204852.855 8  -3525936.44129  20375262.080
  19874492.593 6  -3254716.14625  23665751.841
  13833348.523 7   5946227.66126  22440026.213
   2267724.064 7  -7326764.57226  21777701.451
 92  8 27 19 44 30.0000000  0  5G 3G20G25G24G16
  12335246.841 6  -7799711.27425  22491713.281
  -5203719.416 8  -3525053.25529  20375480.988
  19877790.848 6  -3252146.07025  23666379.756
  13912721.828 7   6008076.95026  22455129.697
   2224844.142 7  -7360177.49526  21769540.111
 92  8 27 19 45  0.0000000  0  5G 3G20G25G24G16
  12267103.044 7  -7852810.29525  22478745.968
  -5201998.614 8  -3523712.38629  20375801.376
  19881653.021 6  -3249136.64125  23667117.875
  13992249.615 7   6070046.61626  22470259.713
   2182533.427 7  -7393146.85026  21761485.047
 92  8 27 19 45 30.0000000  0  6G 3G17G20G25G24G16
  12199095.252 7  -7905803.36225  22465803.448
   7747462.96315   -230166.45731  23933068.202
  -5199688.762 8  -3521912.50529  20376243.750
  19886069.250 6  -3245695.41125  23667952.707
  14071936.780 7   6132140.42825  22485428.672
   2140790.741 7  -7425673.57226  21753540.997
 92  8 27 19 46  0.0000000  0  6G 3G17G20G25G24G16
  12131224.399 7  -7958689.70925  22452888.149
   7640883.510 5   -313215.39222  23912783.255
  -5196789.356 8  -3519653.25229  20376797.497
  19891036.734 6  -3241824.69825  23668895.015
  14151803.730 7   6194374.34825  22500627.400
   2099593.224 7  -7457775.53826  21745701.124
 92  8 27 19 46 30.0000000  0  6G 3G17G20G25G24G16
  12063488.697 7  -8011470.69125  22440001.540
   7534434.054 5   -396162.78023  23892514.047
  -5193301.552 8  -3516935.49029  20377461.237
  19896554.652 6  -3237525.14125  23669961.197
  14231870.998 7   6256764.39425  22515862.253
   2058924.517 7  -7489465.37826  21737970.226
 92  8 27 19 47  0.0000000  0  6G 3G17G20G25G24G16
  11995880.444 7  -8064152.41325  22427135.977
   7428129.375 5   -478997.41724  23872297.003
  -5189233.151 8  -3513765.32429  20378231.374
  19902618.744 6  -3232799.85525  23671103.136
  14312137.596 7   6319309.70225  22531136.679
   2018764.338 7  -7520758.98026  21730320.782
 92  8 27 19 47 30.0000000  0  6G 3G17G20G25G24G16
  11928400.888 7  -8116733.86125  22414291.309
   7321984.060 5   -561707.85424  23852092.910
  -5184582.585 8  -3510141.52229  20379117.890
  19909228.681 6  -3227649.36825  23672369.220
  14392592.496 7   6382001.77826  22546446.660
   1979096.523 7  -7551668.96826  21722777.644
 92  8 27 19 48  0.0000000  0  6G 3G17G20G25G24G16
  11861051.751 7  -8169213.62525  22401475.032
   7216014.076 5   -644281.68424  23831927.640
  -5179348.162 8  -3506062.76029  20380114.131
  19916377.606 6  -3222078.80725  23673723.982
  14473219.831 7   6444828.23126  22561789.228
   1939933.184 7  -7582185.81026  21715324.384
 92  8 27 19 48 30.0000000  0  6G 3G17G20G25G24G16
  11793829.284 7  -8221594.74725  22388683.817
   7110230.152 5   -726710.52525  23811804.940
  -5173533.638 8  -3501531.97529  20381222.703
  19924057.905 6  -3216094.16025  23675187.299
  14553986.644 7   6507763.30425  22577159.198
   1901293.522 7  -7612294.59626  21707972.034
 92  8 27 19 49  0.0000000  0  6G 3G17G20G25G24G16
  11726734.338 7  -8273876.52525  22375916.705
   7004633.429 5   -808993.50025  23791707.214
  -5167138.565 8  -3496548.82629  20382438.092
  19932261.920 6  -3209701.52125  23676749.757
  14634874.041 7   6570792.42725  22592555.279
   1863192.519 7  -7641983.64026  21700718.285
 92  8 27 19 49 30.0000000  0  6G 3G17G20G25G24G16
  11659770.545 7  -8326056.08025  22363175.376
   6899230.171 5   -891125.75325  23771652.627
  -5160159.395 8  -3491110.53129  20383767.312
  19940993.290 6  -3202897.84625  23678410.458
  14715885.315 6   6633918.03625  22607958.496
   1825651.529 7  -7671236.32826  21693575.700
 92  8 27 19 50  0.0000000  0  6G 3G17G20G25G24G16
  11592936.055 7  -8378134.88925  22350455.092
   6794016.155 5   -973110.56725  23751629.399
  -5152597.589 8  -3485218.23729  20385204.756
  19950261.080 6  -3195676.26425  23680175.636
  14797024.213 7   6697143.06425  22623411.958
   1788683.673 7  -7700042.41226  21686543.199
 92  8 27 19 50 30.0000000  0  6G 3G17G20G25G24G16
  11526230.755 7  -8430113.05325  22337761.190
   6688974.759 5  -1054960.76025  23731644.874
  -5144453.730 8  -3478872.39029  20386754.743
  19960078.647 6  -3188026.30125  23682034.259
  14878303.042 7   6760477.18025  22638871.236
   1752286.162 7  -7728404.04926  21679614.185
 92  8 27 19 51  0.0000000  0  6G 3G17G20G25G24G16
  11459656.303 7  -8481989.23625  22325090.252
   6584109.432 5  -1136673.85125  23711678.217
  -5135726.446 8  -3472071.92729  20388417.812
  19970451.486 6  -3179943.59825  23684016.606
  14959733.090 7   6823929.10825  22654371.045
   1716455.377 7  -7756324.06726  21672797.355
 92  8 27 19 51 30.0000000  0  6G 3G17G20G25G24G16
  11393210.433 7  -8533765.18425  22312444.736
   6479413.885 5  -1218254.65325  23691757.518
  -5126418.001 8  -3464818.60629  20390185.388
  19981378.909 6  -3171428.83625  23686096.417
  15041316.634 7   6887500.60225  22669893.819
   1681189.676 7  -7783803.79126  21666089.229
 92  8 27 19 52  0.0000000  0  6G 3G17G20G25G24G16
  11326893.822 7  -8585440.43525  22299832.287
   6374866.234 5  -1299720.19925  23671866.048
  -5116528.168 8  -3457112.27429  20392069.884
  19992850.898 6  -3162489.68025  23688274.439
  15123053.921 6   6951191.93025  22685449.600
   1646494.420 7  -7810839.00326  21659481.953
 92  8 27 19 52 30.0000000  0  6G 3G17G20G25G24G16
  11260705.916 7  -8637015.41325  22287234.978
   6270456.831 6  -1381078.03925  23652002.729
  -5106057.563 8  -3448953.37429  20394060.536
  20004863.985 5  -3153128.92525  23690561.675
  15204939.284 7   7014998.62825  22701030.504
   1612367.742 7  -7837431.15126  21652991.386
 92  8 27 19 53  0.0000000  0  6G 3G17G20G25G24G16
  11194646.133 7  -8688490.52625  22274661.803
   6166184.971 6  -1462328.64825  23632160.965
  -5095007.036 8  -3440342.59829  20396163.880
  20017406.905 6  -3143355.33125  23692953.300
  15286972.231 6   7078920.36525  22716636.830
   1578811.184 7  -7863579.08726  21646606.496
 92  8 27 19 53 30.0000000  0  6G 3G17G20G25G24G16
  11128718.273 7  -8739862.86925  22262112.880
   6062050.285 6  -1543472.39625  23612333.532
  -5083373.205 8  -3431277.29829  20398378.956
  20030485.597 6  -3133164.29225  23695442.626
  15369168.801 6   7142969.62825  22732284.587
   1545823.985 7  -7889283.36326  21640325.364
 92  8 27 19 54  0.0000000  0  6G 3G17G20G25G24G16
  11062924.034 7  -8791131.12125  22249598.763
   5958064.626 5  -1624500.01225  23592546.960
  -5071154.983 8  -3421756.63029  20400702.438
  20044105.605 6  -3122551.30325  23698033.733
  15451533.116 7   7207149.53325  22747958.006
   1513394.812 7  -7914552.79326  21634153.477
 92  8 27 19 54 30.0000000  0  6G 3G17G20G25G24G16
  10997260.860 7  -8842297.17025  22237103.234
   5854253.626 6  -1705391.51225  23572790.906
  -5058355.143 8  -3411782.74929  20403140.020
  20058269.908 6  -3111514.30525  23700723.830
  15534067.441 6   7271461.92425  22763664.913
   1481509.194 7  -7939398.68326  21628084.479
 92  8 27 19 55  0.0000000  0  6G 3G17G20G25G24G16
  10931732.073 7  -8893358.52325  22224631.927
   5750650.189 5  -1786121.30025  23553072.267
  -5044970.771 8  -3401353.40129  20405688.196
  20072974.896 6  -3100055.95325  23703529.438
  15616772.632 6   7335907.48025  22779404.796
   1450160.600 7  -7963826.10526  21622117.110
 92  8 27 19 55 30.0000000  0  6G 3G17G20G25G24G16
  10866338.307 7  -8944314.71325  22212191.650
   5647270.249 6  -1866676.95725  23533409.000
  -5031001.511 8  -3390468.29029  20408344.867
  20088224.740 6  -3088172.96125  23706426.992
  15699627.966 6   7400469.96025  22795165.305
   1419347.657 7  -7987836.14426  21616256.527
 92  8 27 19 56  0.0000000  0  6G 3G17G20G25G24G16
  10801082.011 7  -8995163.71825  22199770.169
   5544112.186 5  -1947059.68125  23513777.091
  -5016445.558 8  -3379126.01629  20411112.251
  20104012.386 6  -3075871.01925  23709432.292
  15782616.662 6   7465136.42325  22810960.051
   1389071.183 7  -8011428.16226  21610501.891
 92  8 27 19 56 30.0000000  0  6G 3G17G20G25G24G16
  10735960.021 7  -9045908.07725  22187379.597
   5441166.962 5  -2027276.59625  23494186.553
  -5001306.848 8  -3367329.65429  20413992.027
  20120326.108 6  -3063159.05525  23712538.051
  15865716.311 7   7529889.35925  22826771.585
   1359337.512 7  -8034597.21926  21604837.642
 92  8 27 19 57  0.0000000  0  6G 3G17G20G25G24G16
  10670973.431 7  -9096546.98925  22175010.939
   5338418.545 5  -2107340.13825  23474637.597
  -4985584.162 8  -3355078.23729  20416988.783
  20137157.520 6  -3050043.78825  23715742.893
  15948910.877 6   7594716.21225  22842604.434
   1330144.478 7  -8057344.98426  21599283.777
 92  8 27 19 57 30.0000000  0  6G 3G17G20G25G24G16
  10606124.756 7  -9147078.40125  22162668.814
   5235839.630 6  -2187271.60825  23455119.579
  -4969275.974 8  -3342370.58729  20420090.226
  20154502.174 6  -3036528.57025  23719037.522
  16032208.206 6   7659623.17825  22858452.992
   1301504.344 7  -8079661.93826  21593830.552
 92  8 27 19 58  0.0000000  0  6G 3G17G20G25G24G16
  10541416.614 7  -9197500.27925  22150359.815
   5133422.969 5  -2267076.64925  23435618.619
  -4952380.224 8  -3329205.09729  20423305.470
  20172364.315 6  -3022610.08225  23722438.488
  16115623.898 6   7724622.40025  22874328.682
   1273430.570 7  -8101537.58026  21588492.508
 92  8 27 19 58 30.0000000  0  6G 3G17G20G25G24G16
  10476854.129 7  -9247808.68925  22138072.881
   5031177.870 5  -2346748.06125  23416172.971
  -4934892.284 8  -3315578.16929  20426630.138
  20190753.669 6  -3008280.84525  23725937.545
  16199164.425 6   7789718.81625  22890219.421
   1245937.539 7  -8122960.70926  21583261.819
 92  8 27 19 59  0.0000000  0  6G 3G17G20G25G24G16
  10412437.083 7  -9298003.76725  22125813.078
   4929113.846 6  -2426278.35025  23396744.980
  -4916812.765 8  -3301490.25629  20430076.942
  20209677.307 6  -2993535.26925  23729546.327
  16282838.692 6   7854919.49525  22906154.199
   1219030.386 7  -8143927.28726  21578135.967
 92  8 27 19 59 30.0000000  0  6G 3G17G20G25G24G16
  10348159.239 7  -9348090.34225  22113580.377
   4827228.622 5  -2505669.27225  23377359.051
  -4898148.759 8  -3286946.90529  20433624.986
  20229144.639 6  -2978365.97925  23733246.755
  16366641.348 7   7920220.23625  22922094.974
   1192720.155 7  -8164428.74026  21573140.496
 92  8 27 20  0  0.0000000  0  6G 3G17G20G25G24G16
  10284023.257 7  -9398066.37725  22101377.385
   4725543.797 5  -2584904.06425  23357997.465
  -4878898.425 8  -3271946.68029  20437286.441
  20249168.247 6  -2962763.33425  23737060.235
  16450560.862 7   7985611.97725  22938064.079
   1166998.246 7  -8184471.76626  21568238.709
 92  8 27 20  0 30.0000000  0  6G 3G17G20G25G24G16
  10220030.898 7  -9447930.54825  22089202.124
   4624068.399 6  -2663975.62925  23338694.668
  -4859060.760 8  -3256488.78729  20441068.563
  20269732.637 5  -2946739.20325  23740966.291
  16534587.336 7   8051087.11725  22954056.387
   1141857.808 7  -8204061.68426  21563450.694
 92  8 27 20  1  0.0000000  0  6G 3G17G20G25G24G16
  10156182.044 7  -9497682.86825  22077048.747
   4522809.878 6  -2742878.25225  23319432.373
  -4838636.456 8  -3240573.78029  20444950.605
  20290829.463 5  -2930300.16625  23744978.354
  16618728.763 7   8116651.79225  22970058.439
   1117300.046 7  -8223197.57526  21558786.972
 92  8 27 20  1 30.0000000  0  6G 3G17G20G25G24G16
  10092481.996 7  -9547319.22725  22064926.429
   4421766.708 6  -2821613.07425  23300204.224
  -4817621.274 8  -3224198.35629  20448950.526
  20312444.606 5  -2913457.34025  23749091.536
  16702992.373 6   8182311.67125  22986107.529
   1093321.948 7  -8241881.80726  21554221.943
 92  8 27 20  2  0.0000000  0  6G 3G17G20G25G24G16
  10028924.979 7  -9596844.18025  22052833.521
   4320938.351 5  -2900180.55025  23281008.004
  -4796021.526 8  -3207367.41229  20453062.240
  20334548.366 5  -2896233.64825  23753300.202
  16787372.158 6   8248062.11725  23002162.434
   1069914.408 7  -8260121.43526  21549761.031
 92  8 27 20  2 30.0000000  0  6G 3G17G20G25G24G16
   9965507.001 7  -9646260.77325  22040766.245
   4220311.504 5  -2978590.92425  23261861.968
  -4773842.014 8  -3190084.70529  20457279.360
  20357126.768 5  -2878640.22725  23757602.074
  16871870.671 6   8313905.06925  23018232.749
   1047089.412 7  -8277907.11426  21545417.338
 92  8 27 20  3  0.0000000  0  6G 3G17G20G25G24G16
   9902226.412 7  -9695570.27525  22028723.642
   4119880.428 6  -3056848.80825  23242754.666
  -4751085.463 8  -3172352.38129  20461613.670
  20380192.100 5  -2860667.30225  23761992.715
  16956488.016 6   8379840.56125  23034342.936
   1024846.760 7  -8295239.03426  21541186.907
 92  8 27 20  3 30.0000000  0  6G 3G17G20G25G24G16
   9839088.606 7  -9744768.56625  22016710.658
   4019645.109 6  -3134954.13025  23223678.182
  -4727747.211 8  -3154166.75929  20466053.836
  20403755.602 5  -2842306.25225  23766464.869
  17041207.633 6   8445855.84725  23050468.023
   1003184.247 7  -8312118.91526  21537067.608
 92  8 27 20  4  0.0000000  0  6G 3G17G20G25G24G16
   9776091.282 7  -9793857.37425  22004721.089
   3919601.692 6  -3212909.90425  23204644.509
  -4703830.941 8  -3135530.74129  20470609.272
  20427832.223 5  -2823545.32725  23771044.738
  17126022.227 6   8511945.05025  23066600.275
    982105.407 8  -8328543.95926  21533050.569
 92  8 27 20  4 30.0000000  0  6G 3G17G20G25G24G16
   9713232.643 7  -9842838.09525  21992760.059
   3819747.796 6  -3290718.03125  23185640.215
  -4679339.061 8  -3116446.20029  20475260.552
  20452431.190 5  -2804377.41625  23775744.165
  17210936.480 6   8578111.91225  23082764.275
    961607.076 7  -8344516.66326  21529157.644
 92  8 27 20  5  0.0000000  0  6G 3G17G20G25G24G16
   9650508.567 7  -9891714.00425  21980822.653
   3720093.405 5  -3368370.72525  23166677.413
  -4654276.792 8  -3096917.19229  20480032.768
  20477544.291 5  -2784808.82625  23780510.385
  17295945.843 6   8644352.94525  23098929.744
    941673.750 7  -8360049.10326  21525357.775
 92  8 27 20  5 30.0000000  0  6G 3G17G20G25G24G16
   9587916.576 7  -9940487.00225  21968908.961
   3620640.120 6  -3445866.66925  23147749.327
  -4628647.617 8  -3076946.44329  20484916.867
  20503160.141 5  -2764848.53825  23785391.036
  17381051.710 6   8710669.10825  23115137.843
    922302.801 7  -8375143.34026  21521673.146
 92  8 27 20  6  0.0000000  0  6G 3G17G20G25G24G16
   9525454.970 7  -9989158.33925  21957025.577
   3521391.879 6  -3523202.86825  23128857.335
  -4602453.983 8  -3056535.86329  20489892.343
  20529264.490 5  -2744507.58425  23790352.512
  17466269.253 6   8777072.31925  23131350.229
    903504.633 7  -8389791.24426  21518092.065
 92  8 27 20  6 30.0000000  0  6G 3G17G20G25G24G16
   9463128.432 7 -10037724.47625  21945169.265
   3422369.538 6  -3600363.01825  23110013.970
  -4575692.650 8  -3035682.91229  20494986.836
  20555849.102 5  -2723792.34825  23795423.591
  17551596.575 6   8843561.13225  23147589.177
    885282.605 7  -8403990.20426  21514623.646
 92  8 27 20  7  0.0000000  0  6G 3G17G20G25G24G16
   9400940.082 7 -10086182.94525  21933333.639
   3323578.288 6  -3677343.17525  23091222.529
  -4548361.611 8  -3014386.04529  20500191.263
  20582918.456 6  -2702699.48225  23800562.274
  17637027.515 6   8910130.59525  23163839.398
    867633.745 7  -8417742.56126  21511268.429
 92  8 27 20  7 30.0000000  0  6G 3G17G20G25G24G16
   9338895.170 7 -10134529.57225  21921525.773
   3225010.953 6  -3754148.78625  23072462.297
  -4520456.568 8  -2992641.88629  20505496.360
  20610488.388 6  -2681216.45925  23805813.348
  17722564.473 6   8976782.72725  23180120.556
    850571.204 7  -8431038.02426  21508020.927
 92  8 27 20  8  0.0000000  0  6G 3G17G20G25G24G16
   9276991.545 7 -10182766.14525  21909746.088
   3126657.726 6  -3830787.53925  23053745.924
  -4491981.069 8  -2970453.22129  20510916.728
  20638555.124 5  -2659346.41025  23811156.010
  17808195.732 6   9043508.33725  23196409.990
    834085.008 7  -8443884.38726  21504887.766
 92  8 27 20  8 30.0000000  0  6G 3G17G20G25G24G16
   9215226.941 7 -10230894.40325  21897992.335
   3028508.192 6  -3907267.58925  23035067.744
  -4462938.236 8  -2947822.47129  20516444.961
  20667128.970 5  -2637081.11625  23816593.615
  17893913.032 6   9110300.99825  23212723.526
    818156.863 7  -8456295.91726  21501853.567
 92  8 27 20  9  0.0000000  0  6G 3G17G20G25G24G16
   9153599.326 7 -10278915.87125  21886263.705
   2930547.058 6  -3983600.81525  23016434.414
  -4433331.543 8  -2924752.35829  20522079.800
  20696203.443 5  -2614425.79625  23822120.799
  17979709.714 6   9177155.47025  23229052.891
    802780.410 7  -8468277.54926  21498932.479
 92  8 27 20  9 30.0000000  0  6G 3G17G20G25G24G16
   9092107.247 7 -10326831.78125  21874565.773
   2832764.159 6  -4059795.16225  22997820.540
  -4403163.848 8  -2901245.11029  20527820.166
  20725761.926 5  -2591393.27025  23827747.963
  18065577.407 6   9244065.34825  23245385.105
    787960.583 7  -8479825.44726  21496102.798
 92  8 27 20 10  0.0000000  0  6G 3G17G20G25G24G16
   9030748.208 7 -10374644.02425  21862885.409
   2735166.894 6  -4135844.91925  22979250.016
  -4372438.840 8  -2877303.56629  20533666.179
  20755781.938 5  -2568001.15925  23833461.678
  18151504.729 6   9311021.64225  23261748.916
    773691.427 7  -8490944.24226  21493396.901
 92  8 27 20 10 30.0000000  0  6G 3G17G20G25G24G16
   8969525.970 7 -10422349.63525  21851232.327
   2637774.439 6  -4211735.06925  22960719.095
  -4341153.781 8  -2852925.64029  20539620.746
  20786264.861 5  -2544248.29725  23839259.874
  18237491.426 6   9378024.17725  23278102.415
    759992.745 7  -8501618.52026  21490787.597
 92  8 27 20 11  0.0000000  0  6G 3G17G20G25G24G16
   8908442.578 7 -10469947.07325  21839608.414
   2540595.768 5  -4287458.61325  22942219.682
  -4309308.517 8  -2828111.18229  20545682.580
  20817190.432 6  -2520150.57325  23845149.327
  18323536.637 7   9445072.41125  23294484.964
    746887.081 7  -8511830.72826  21488290.506
 92  8 27 20 11 30.0000000  0  6G 3G17G20G25G24G16
   8847498.766 7 -10517435.76525  21828015.919
   2443629.569 6  -4363016.54625  22923773.002
  -4276903.236 8  -2802860.35729  20551848.741
  20848563.988 5  -2495703.75725  23851116.456
  18409654.215 7   9512177.01225  23310870.360
    734384.811 7  -8521572.74226  21485912.222
 92  8 27 20 12  0.0000000  0  6G 3G17G20G25G24G16
   8786698.939 7 -10564812.22126  21816444.470
   2346884.866 6  -4438401.90025  22905358.161
  -4243935.128 8  -2777170.96129  20558120.759
  20880389.225 5  -2470905.00325  23857176.191
  18495855.946 6   9579347.09625  23327274.104
    722480.902 7  -8530848.50326  21483645.192
 92  8 27 20 12 30.0000000  0  6G 3G17G20G25G24G16
   8726051.932 7 -10612069.59126  21804902.310
   2250362.642 6  -4513613.94825  22886995.603
  -4210396.913 8  -2751037.31629  20564499.863
  20912679.396 6  -2445743.90825  23863315.880
  18582162.683 6   9646599.09525  23343693.407
    711183.937 7  -8539651.32926  21481494.871
 92  8 27 20 13  0.0000000  0  6G 3G17G20G25G24G16
   8665555.473 7 -10659209.67225  21793395.077
   2154050.862 6  -4588661.98625  22868666.352
  -4176292.152 8  -2724462.22529  20570992.858
  20945436.282 6  -2420219.13325  23869552.073
  18668576.512 6   9713934.55725  23360151.144
    700474.684 7  -8547996.18226  21479459.220
 92  8 27 20 13 30.0000000  0  6G 3G17G20G25G24G16
   8605205.977 7 -10706235.23125  21781907.239
   2057953.817 6  -4663542.70425  22850384.678
  -4141626.322 8  -2697449.91329  20577584.755
  20978675.495 5  -2394318.58025  23875875.535
  18755080.993 6   9781340.56825  23376604.084
    690321.511 7  -8555907.73226  21477529.276
 92  8 27 20 14  0.0000000  0  6G 3G17G20G25G24G16
   8545004.584 7 -10753145.35925  21770452.110
   1962097.841 6  -4738235.56025  22832140.598
  -4106399.452 8  -2670000.44229  20584290.482
  21012391.762 5  -2368046.18925  23882282.370
  18841654.470 6   9848800.34825  23393075.941
    680727.776 7  -8563383.35026  21475704.439
 92  8 27 20 14 30.0000000  0  6G 3G17G20G25G24G16
   8484949.120 7 -10799941.84025  21759023.841
   1866487.857 6  -4812736.76325  22813943.735
  -4070615.086 8  -2642116.55829  20591098.139
  21046593.315 5  -2341395.83925  23888803.036
  18928274.146 6   9916296.20025  23409555.352
    671709.730 7  -8570410.40626  21473983.331
 92  8 27 20 15  0.0000000  0  6G 3G17G20G25G24G16
   8425042.302 7 -10846622.44825  21747626.002
   1771135.651 6  -4887037.05625  22795794.810
  -4034272.106 8  -2613797.37629  20598019.148
  21081285.109 5  -2314363.26825  23895396.341
  19014923.245 6   9983814.95825  23426044.597
    663279.591 7  -8576979.33926  21472381.600
 92  8 27 20 15 30.0000000  0  6G 3G17G20G25G24G16
   8365279.951 7 -10893190.45725  21736247.559
   1676039.040 6  -4961138.17925  22777705.303
  -3997376.536 8  -2585047.61629  20605036.480
  21116441.874 5  -2286968.53024  23902095.803
  19101595.952 6  10051352.04025  23442545.563
    655454.939 7  -8583076.46426  21470890.372
 92  8 27 20 16  0.0000000  0  6G 3G17G20G25G24G16
   8305666.612 7 -10939642.39625  21724905.751
   1581185.123 6  -5035050.21025  22759648.953
  -3959925.556 8  -2555865.07628  20612165.755
  21152053.812 5  -2259219.02325  23908864.607
  19188309.041 6  10118920.65925  23459046.350
    648262.816 7  -8588680.72426  21469521.999
 92  8 27 20 16 29.9990000  0  6G 3G17G20G25G24G16
   8246206.806 7 -10985974.71125  21713594.132
   1486546.937 6  -5108794.13525  22741648.934
  -3921919.404 8  -2526249.93329  20619400.616
  21188123.041 5  -2231113.28525  23915730.454
  19275075.552 6  10186530.87225  23475558.979
    641700.828 7  -8593793.96626  21468275.552
 92  8 27 20 16 59.9990000  0  6G 3G17G20G25G24G16
   8186897.115 7 -11032190.01626  21702306.946
   1392121.829 6  -5182372.07025  22723676.046
  -3883356.606 8  -2496201.02628  20626736.507
  21224633.818 5  -2202663.35125  23922691.755
  19361930.357 6  10254209.87025  23492074.605
    635746.052 7  -8598434.01626  21467144.675
 92  8 27 20 17 29.9990000  0  6G 3G17G20G25G24G16
   8127739.454 7 -11078286.85626  21691050.998
   1297908.103 6  -5255785.25725  22705748.517
  -3844240.496 8  -2465720.98628  20634178.406
  21261570.786 6  -2173881.44825  23929709.927
  19448870.552 6  10321955.44425  23508625.517
    630380.824 7  -8602614.73026  21466118.995
 92  8 27 20 17 59.9990000  0  6G 3G17G20G25G24G16
   8068734.685 7 -11124264.59826  21679817.984
   1203906.692 6  -5329033.01025  22687861.640
  -3804571.687 8  -2434810.26228  20641728.439
  21298946.155 5  -2144757.85425  23936826.670
  19535890.912 6  10389763.47525  23525191.479
    625586.561 7  -8606350.51326  21465210.834
 92  8 27 20 18 29.9990000  0  6G 3G17G20G25G24G16
   8009888.423 7 -11170118.78526  21668620.376
   1110143.935 6  -5402094.77125  22670016.344
  -3764346.605 8  -2403466.06228  20649383.609
  21336758.317 5  -2115293.85725  23944020.849
  19622992.453 6  10457634.72525  23541754.832
    621354.095 7  -8609648.53426  21464405.351
 92  8 27 20 18 59.9990000  0  6G 3G17G20G25G24G16
   7951197.954 7 -11215851.58426  21657453.107
   1016634.316 6  -5474959.27525  22652213.199
  -3723569.701 8  -2371691.90528  20657140.589
  21374996.972 5  -2085497.68125  23951297.862
  19710167.749 6  10525563.53825  23558347.296
    617676.775 7  -8612513.97426  21463701.169
 92  8 27 20 19 29.9990000  0  6G 3G17G20G25G24G16
   7892663.495 7 -11261462.85026  21646316.207
    923363.169 6  -5547637.97125  22634472.081
  -3682242.613 8  -2339489.01828  20665008.193
  21413673.962 5  -2055359.78425  23958655.278
  19797393.751 6  10593531.85625  23574950.761
    614571.108 7  -8614934.00926  21463119.212
 92  8 27 20 19 59.9990000  0  6G 3G17G20G25G24G16
   7834283.990 7 -11306953.36026  21635204.310
    830328.947 6  -5620132.08725  22616764.510
  -3640368.226 8  -2306859.66628  20672973.948
  21452802.423 5  -2024870.23925  23966107.579
  19884678.420 6  10661545.79625  23591555.036
    612043.755 7  -8616903.36826  21462626.623
 92  8 27 20 20 29.9990000  0  6G 3G17G20G25G24G16
   7776058.764 7 -11352323.60826  21624127.038
    737531.597 6  -5692441.61125  22599113.989
  -3597948.902 8  -2273805.69428  20681048.828
  21492376.232 6  -1994033.56925  23973633.389
  19972018.386 6  10729602.87225  23608177.389
    610102.667 7  -8618415.90026  21462264.923
 92  8 27 20 20 59.9990000  0  6G 3G17G20G25G24G16
   7717988.310 7 -11397573.30926  21613080.106
    644956.168 6  -5764578.19025  22581493.268
  -3554986.450 8  -2240328.49828  20689223.389
  21532399.787 5  -1962846.52525  23981247.068
  20059409.378 6  10797699.73625  23624810.474
    608752.917 7  -8619467.67326  21462003.024
 92  8 27 20 21 29.9990000  0  6G 3G17G20G25G24G16
   7660071.463 7 -11442703.28626  21602055.568
    552607.179 6  -5836538.37425  22563920.033
  -3511483.930 8  -2206430.45828  20697498.320
  21572869.168 5  -1931312.03625  23988945.259
  20146845.020 6  10865831.35725  23641444.399
    607995.466 7  -8620057.89326  21461867.368
 92  8 27 20 21 59.9990000  0  6G 3G17G20G25G24G16
   7602314.388 7 -11487708.77326  21591065.386
    460506.289 6  -5908305.17225  22546393.267
  -3467437.155 8  -2172108.35428  20705886.123
  21613772.688 5  -1899439.23325  23996739.503
  20234326.065 6  10933998.31725  23658095.471
    607826.033 7  -8620189.93126  21461826.776
 92  8 27 20 22 29.9990000  0  6G 3G17G20G25G24G16
   7544716.208 7 -11532590.45326  21580105.604
    368652.651 6  -5979879.30825  22528912.518
  -3422849.276 8  -2137364.58528  20714366.592
  21655093.147 5  -1867241.53925  24004601.980
  20321844.203 6  11002194.27425  23674744.805
    608247.978 7  -8619861.15626  21461916.115
 92  8 27 20 22 59.9990000  0  6G 3G17G20G25G24G16
   7487272.022 7 -11577352.12326  21569175.201
    277048.138 6  -6051259.33325  22511482.105
  -3377726.473 8  -2102203.98228  20722954.987
  21696820.714 5  -1834726.64025  24012533.619
  20409395.034 6  11070415.67025  23691402.593
    609251.747 7  -8619079.01326  21462102.705
 92  8 27 20 23 29.9990000  0  6G 3G17G20G25G24G16
   7429987.413 7 -11621989.46126  21558273.818
    185706.946 6  -6122434.20825  22494105.685
  -3332065.637 8  -2066624.17928  20731643.062
  21738951.393 5  -1801897.68425  24020555.735
  20496984.611 6  11138667.15625  23708074.891
    610842.932 7  -8617839.13326  21462403.667
 92  8 27 20 23 59.9990000  0  6G 3G17G20G25G24G16
   7372858.857 7 -11666505.19726  21547398.456
     94611.470 6  -6193417.61825  22476768.207
  -3285872.630 8  -2030629.65628  20740435.885
  21781484.295 5  -1768755.14925  24028642.577
  20584616.221 6  11206951.50825  23724759.301
    613019.753 7  -8616142.91926  21462820.618
 92  8 27 20 24 29.9990000  0  6G 3G17G20G25G24G16
   7315888.813 7 -11710897.42226  21536552.715
      3765.130 6  -6264206.88425  22459476.598
  -3239146.589 8  -1994219.80128  20749325.451
  21824435.350 5  -1735286.95124  24036806.465
  20672302.861 6  11275278.70025  23741432.378
    615792.446 7  -8613982.40026  21463347.444
 92  8 27 20 24 59.9990000  0  6G 3G17G20G25G24G16
   7259072.128 7 -11755170.14626  21525750.473
    -86837.803 6  -6334806.46125  22442233.855
  -3191895.197 8  -1957400.59228  20758315.867
  21867802.440 5  -1701494.41225  24045066.827
  20760039.001 6  11343644.40125  23758126.561
    619143.687 7  -8611371.04327  21463987.740
 92  8 27 20 25 29.9990000  0  6G 3G17G20G25G24G16
   7202416.512 7 -11799317.31726  21514968.767
   -177202.624 6  -6405220.50625  22425038.359
  -3144112.729 8  -1920167.53828  20767408.272
  21911603.297 5  -1667364.07624  24053408.282
  20847827.481 6  11412051.02425  23774845.477
    623084.723 7  -8608300.12926  21464735.153
 92  8 27 20 25 59.9990000  0  6G 3G17G20G25G24G16
   7145929.001 7 -11843333.53226  21504215.122
   -267326.580 6  -6475446.87325  22407892.419
  -3095794.347 8  -1882516.89428  20776602.967
  21955857.508 5  -1632880.34824  24061837.606
  20935662.081 6  11480493.51425  23791556.598
    627621.642 7  -8604764.87026  21465601.194
 92  8 27 20 26 29.9990000  0  6G 3G17G20G25G24G16
   7089609.019 7 -11887219.20726  21493495.563
   -357206.817 6  -6545483.32925  22390785.212
  -3046942.817 8  -1844450.81928  20785902.889
  22000561.459 5  -1598046.21524  24070331.266
  21023532.659 6  11548963.96425  23808271.197
    632755.657 7  -8600764.35426  21466572.221
 92  8 27 20 26 59.9990000  0  6G 3G17G20G25G24G16
   7033456.035 7 -11930974.74626  21482811.829
   -446851.600 6  -6615336.29625  22373728.940
  -2997561.161 8  -1805971.64728  20795298.384
  22045697.798 5  -1562875.10424  24078924.218
  21111425.906 6  11617452.18725  23825003.184
    638478.650 7  -8596304.89026  21467662.596
 92  8 27 20 27 29.9990000  0  6G 3G17G20G25G24G16
   6977467.822 7 -11974601.89226  21472159.843
   -536252.429 6  -6684999.17525  22356708.133
  -2947654.058 8  -1767083.05028  20804793.321
  22091251.821 5  -1527378.58824  24087598.742
  21199339.543 6  11685956.22325  23841731.183
    644797.236 7  -8591381.34526  21468866.383
 92  8 27 20 27 59.9990000  0  6G 3G17G20G25G24G16
   6921655.072 7 -12018092.32626  21461537.147
   -625378.023 6  -6754447.60625  22339755.679
  -2897212.887 8  -1727778.29528  20814394.654
  22137211.054 5  -1491566.29124  24096341.560
  21287285.210 6  11754485.23225  23858474.652
    651710.123 7  -8585994.66427  21470179.744
 92  8 27 20 28 29.9990000  0  6G 3G17G20G25G24G16
   6866015.569 7 -12061447.77726  21450952.405
   -714218.840 6  -6823674.07625  22322852.271
  -2846242.286 8  -1688060.98528  20824094.739
  22183547.602 5  -1455460.02124  24105171.497
  21375267.548 6  11823042.85925  23875196.176
    659203.267 7  -8580155.86927  21471608.765
 92  8 27 20 28 59.9990000  0  6G 3G17G20G25G24G16
   6810543.745 7 -12104672.52926  21440395.513
   -802775.657 6  -6892679.32125  22305998.569
  -2794749.988 8  -1647937.17527  20833892.586
  22230238.801 5  -1419077.38025  24114040.647
  21463286.865 6  11891629.18425  23891965.217
    667260.029 7  -8573877.89427  21473141.603
 92  8 27 20 29 29.9990000  0  6G 3G17G20G25G24G16
   6755236.976 7 -12147768.71126  21429867.851
   -891050.837 6  -6961465.07725  22289201.737
  -2742741.075 8  -1607410.80527  20843788.825
  22277287.856 5  -1382415.89125  24122999.945
  21551346.907 6  11960247.40225  23908714.351
    675873.441 7  -8567166.12727  21474779.999
 92  8 27 20 29 59.9990000  0  6G 3G17G20G25G24G16
   6700100.422 7 -12190732.24226  21419374.785
   -979053.674 6  -7030038.61625  22272458.268
  -2690213.010 8  -1566479.88227  20853785.735
  22324707.924 5  -1345465.36425  24132024.777
  21639443.233 6  12028893.84125  23925475.958
    685043.886 7  -8560020.33627  21476524.432
 92  8 27 20 30 29.9990000  0  6G 3G17G20G25G24G16
   6645134.461 7 -12233562.82626  21408918.354
  -1066802.405 6  -7098414.17725  22255758.299
  -2637167.938 8  -1525146.13227  20863878.188
  22372511.060 5  -1308216.19725  24141125.157
  21727575.137 6  12097567.85925  23942254.502
    694787.216 7  -8552428.13327  21478379.517
 92  8 27 20 30 59.9990000  0  6G 3G17G20G25G24G16
   6590344.866 7 -12276255.97926  21398489.684
  -1154301.894 6  -7166595.49525  22239105.907
  -2583602.325 8  -1483406.73228  20874068.763
  22420718.784 5  -1270651.93725  24150281.538
  21815738.805 6  12166266.86525  23959029.719
    705119.409 7  -8544377.06827  21480340.040
 92  8 27 20 31 29.9990000  0  6G 3G17G20G25G24G16
   6535731.658 8 -12318811.70826  21388098.098
  -1241549.259 6  -7234580.37425  22222503.461
  -2529518.772 8  -1441263.75927  20884364.445
  22469334.580 5  -1232769.50324  24159539.489
  21903912.771 5  12234973.75625  23975805.325
    716043.076 7  -8535865.10327  21482425.486
 92  8 27 20 31 59.9990000  0  6G 3G17G20G25G24G16
   6481296.042 8 -12361229.05226  21377743.356
  -1328537.463 6  -7302363.31625  22205944.544
  -2474918.689 8  -1398718.32227  20894752.764
  22518350.910 5  -1194575.13724  24168855.060
  21992090.337 5  12303683.41225  23992585.759
    727561.735 7  -8526889.50227  21484610.644
 92  8 27 20 32 29.9990000  0  5G 3G17G20G24G16
   6427029.091 8 -12403514.93326  21367416.016
  -1415270.879 6  -7369947.70025  22189442.499
  -2419813.399 8  -1355779.17327  20905240.433
  22080267.635 5  12372393.00325  24009370.659
    739668.397 7  -8517455.71526  21486913.649
 92  8 27 20 32 59.9990000  0  5G 3G17G20G24G16
   6372933.247 8 -12445667.53626  21357119.524
  -1501744.221 6  -7437329.43425  22172983.293
  -2364203.121 8  -1312446.54127  20915821.638
  22168449.525 5  12441105.96925  24026142.008
    752350.189 7  -8507573.79327  21489337.621
 92  8 27 20 33 29.9990000  0  5G 3G17G20G24G16
   6319008.520 8 -12487686.78426  21346856.579
  -1587955.116 6  -7504506.65825  22156587.344
  -2308090.279 8  -1268722.32127  20926498.237
  22256656.762 5  12509838.85725  24042927.118
    765600.338 7  -8497248.96327  21491854.649
 92  8 27 20 33 59.9990000  0  5G 3G17G20G24G16
   6265254.941 8 -12529572.63426  21336631.138
  -1673907.729 7  -7571482.62625  22140227.879
  -2251477.332 8  -1224608.39027  20937276.975
  22344914.398 5  12578610.99525  24059729.526
    779417.827 7  -8486482.04827  21494485.058
 92  8 27 20 34 29.9990000  0  6G 3G17G20G25G24G16
   6211670.138 7 -12571327.00626  21326435.226
  -1759606.100 6  -7638260.48925  22123917.041
  -2194369.351 8  -1180108.73527  20948142.563
     -2461.74715     20487.76331  24216545.924
  22433223.429 5  12647423.10024  24076542.187
    793802.591 7  -8475273.13226  21497223.692
 92  8 27 20 34 59.9990000  0  6G 3G17G20G25G24G16
   6158253.627 8 -12612950.23726  21316269.174
  -1845049.228 6  -7704839.49725  22107658.247
  -2136769.601 8  -1135225.86827  20959100.007
     48684.692 5     60342.17321  24226287.200
  22521584.568 5  12716275.91325  24093352.839
    808743.590 7  -8463630.75426  21500060.088
 92  8 27 20 35 29.9990000  0  6G 3G17G20G25G24G16
   6105004.230 7 -12654443.24826  21306133.161
  -1930228.788 6  -7771213.09225  22091446.850
  -2078681.930 8  -1089962.80727  20970153.565
    100195.274 5    100480.02922  24236082.259
  22609979.413 5  12785154.93624  24110161.333
    824252.056 7  -8451546.22726  21503014.123
 92  8 27 20 35 59.9990000  0  6G 3G17G20G25G24G16
   6051925.046 8 -12695803.61326  21296034.682
  -2015143.458 6  -7837380.27725  22075287.047
  -2020106.213 8  -1044319.47027  20981302.996
    152089.421 5    140917.01822  24245945.072
  22698377.527 5  12854036.47424  24126994.739
    840340.872 7  -8439009.45326  21506076.863
 92  8 27 20 36 29.9990000  0  6G 3G17G20G25G24G16
   5999018.910 8 -12737029.14026  21285969.990
  -2099797.177 6  -7903344.12625  22059181.686
  -1961042.141 7   -998295.58627  20992541.616
    204374.649 5    181658.61022  24255888.618
  22786763.545 5  12922908.69425  24143807.910
    857022.025 7  -8426011.10226  21509252.055
 92  8 27 20 36 59.9990000  0  6G 3G17G20G25G24G16
   5946295.168 7 -12778112.56526  21275931.259
  -2184177.345 6  -7969094.83125  22043123.003
  -1901483.028 7   -951885.92827  21003874.131
    257051.620 5    222705.46523  24265920.093
  22875141.173 5  12991774.24025  24160626.506
    874294.889 7  -8412551.72226  21512538.050
 92  8 27 20 37 29.9990000  0  6G 3G17G20G25G24G16
   5893760.975 8 -12819048.27226  21265939.267
  -2268280.967 6  -8034630.06025  22027120.682
  -1841425.056 7   -905087.61127  21015304.228
    310123.609 5    264060.57722  24276022.289
  22963508.119 5  13060631.57525  24177441.326
    892168.862 7  -8398623.92026  21515936.857
 92  8 27 20 37 59.9990000  0  6G 3G17G20G25G24G16
   5841414.969 8 -12859837.35726  21255977.553
  -2352121.232 7  -8099960.06525  22011167.136
  -1780872.117 8   -857903.56927  21026824.292
    363564.588 5    305702.80223  24286196.646
  23051883.488 5  13129495.49425  24194267.327
    910627.088 7  -8384240.85526  21519449.555
 92  8 27 20 38 29.9990000  0  6G 3G17G20G25G24G16
   5789256.087 7 -12900480.62126  21246049.716
  -2435692.100 6  -8165080.12525  21995266.324
  -1719828.460 7   -810337.14027  21038442.599
    417342.700 5    347607.61323  24296429.432
  23140286.593 5  13198380.90625  24211074.982
    929655.676 7  -8369413.35626  21523071.708
 92  8 27 20 38 59.9990000  0  5G 3G17G20G24G16
   5737285.707 8 -12940977.00526  21236160.102
  -2518987.196 6  -8229985.32325  21979408.592
  -1658294.795 8   -762388.89727  21050150.844
  23228719.153 5  13267289.34225  24227919.720
    949248.717 7  -8354146.05526  21526799.687
 92  8 27 20 39 29.9990000  0  5G 3G17G20G24G16
   5685499.639 8 -12981329.77026  21226304.365
  -2602015.407 7  -8294682.55625  21963612.378
  -1596278.733 7   -714064.75427  21061954.272
  23317175.665 5  13336216.46625  24244734.719
    969413.706 7  -8338433.05526  21530640.838
 92  8 27 20 39 59.9990000  0  5G 3G17G20G24G16
   5633901.777 8 -13021535.88426  21216490.030
  -2684769.685 7  -8359166.33626  21947862.361
  -1533779.143 7   -665363.85627  21073845.420
  23405653.935 5  13405160.46325  24261577.180
    990160.743 7  -8322266.52726  21534585.387
 92  8 27 20 40 29.9990000  0  5G 3G17G20G24G16
   5582496.529 7 -13061591.91126  21206703.994
  -2767227.179 7  -8423418.84326  21932175.901
  -1470794.906 7   -616285.29327  21085828.305
  23494141.117 5  13474111.52225  24278421.678
   1011498.201 7  -8305639.94626  21538644.427
 92  8 27 20 40 59.9990000  0  5G 3G17G20G24G16
   5531287.122 8 -13101495.34126  21196962.748
  -2849387.812 7  -8487440.03626  21916542.264
  -1407325.227 7   -566828.48227  21097909.161
  23582628.736 5  13543062.88925  24295255.714
   1033418.028 7  -8288559.56526  21542814.270
 92  8 27 20 41 29.9990000  0  5G 3G17G20G24G16
   5480274.390 8 -13141245.53226  21187253.220
  -2931244.226 6  -8551224.18826  21900959.022
  -1343372.748 8   -516995.45927  21110080.106
  23671114.709 5  13612012.89724  24312090.050
   1055896.640 7  -8271043.75026  21547095.096
 92  8 27 20 41 59.9990000  0  5G 3G17G20G24G16
   5429456.188 7 -13180844.10126  21177582.874
  -3012800.790 7  -8614774.70426  21885445.541
  -1278942.454 7   -466790.09627  21122343.056
  23759594.070 5  13680957.75325  24328932.660
   1078910.649 7  -8253110.75926  21551473.595
 92  8 27 20 42 29.9990000  0  5G 3G17G20G24G16
   5378828.002 8 -13220294.62826  21167945.656
  -3094061.451 7  -8678094.61526  21869979.698
  -1214042.062 8   -416218.45627  21134693.996
  23848067.723 5  13749898.29925  24345758.452
   1102433.925 7  -8234780.96026  21555946.829
 92  8 27 20 42 59.9990000  0  5G 3G17G20G24G16
   5328389.772 8 -13259597.14126  21158355.235
  -3175047.070 7  -8741200.23726  21854563.381
  -1148674.430 8   -365282.68827  21147131.725
  23936538.135 5  13818836.22824  24362604.570
   1126473.434 7  -8216048.88626  21560521.961
 92  8 27 20 43 29.9990000  0  5G 3G17G20G24G16
   5278141.302 8 -13298751.78726  21148782.113
  -3255766.896 7  -8804098.73726  21839207.951
  -1082843.134 7   -313985.64627  21159656.575
  24025006.119 5  13887772.19824  24379435.398
   1151057.320 7  -8196892.61926  21565207.687
 92  8 27 20 43 59.9990000  0  5G 3G17G20G24G16
   5228086.213 8 -13337755.73526  21139265.141
  -3336217.013 7  -8866787.07126  21823899.499
  -1016546.966 8   -262326.39027  21172272.471
  24113482.327 5  13956714.74624  24396275.430
   1176221.600 7  -8177284.11126  21569987.608
 92  8 27 20 44 29.9990000  0  5G 3G17G20G24G16
   5178225.985 8 -13376607.86726  21129776.560
  -3416383.164 7  -8929254.12526  21808645.609
   -949787.819 7   -210306.33327  21184977.885
  24201967.709 5  14025664.46424  24413123.976
   1201983.663 7  -8157209.77826  21574894.551
 92  8 27 20 44 59.9990000  0  5G 3G17G20G24G16
   5128558.990 8 -13415309.40726  21120323.654
  -3496268.589 7  -8991502.45526  21793442.144
   -882570.870 7   -157929.57827  21197767.901
  24290451.514 5  14094613.01423  24429945.271
   1228365.809 7  -8136652.28626  21579913.137
 92  8 27 20 45 29.9990000  0  5G 3G17G20G24G16
   5079085.077 7 -13453860.51926  21110908.462
  -3575859.085 7  -9053520.94826  21778295.160
   -814899.259 7   -105198.51427  21210648.364
  24378930.861 5  14163558.15923  24446777.748
   1255351.935 7  -8115624.13726  21585049.631
 92  8 27 20 45 59.9990000  0  5G 3G17G20G24G16
   5029803.210 8 -13492261.97626  21101533.712
  -3655147.499 7  -9115304.07926  21763209.574
   -746777.285 7    -52116.54027  21223607.432
  24467398.133 5  14232493.76923  24463622.636
   1282909.231 7  -8094150.95826  21590292.192
 92  8 27 20 46 29.9990000  0  5G 3G17G20G24G16
   4980712.917 7 -13530514.14526  21092186.003
  -3734147.048 7  -9176862.10926  21748175.791
   -678208.342 7      1313.71127  21236655.479
  24555837.082 5  14301407.36723  24480451.486
   1311015.870 7  -8072249.70426  21595641.958
 92  8 27 20 46 59.9990000  0  4G 3G17G20G16
   4931817.964 8 -13568614.11326  21082884.343
  -3812864.584 7  -9238200.37026  21733194.173
   -609192.159 7     55092.48827  21249791.306
   1339653.771 7  -8049934.46426  21601095.063
 92  8 27 20 47 29.9990000  0  4G 3G17G20G16
   4883121.820 8 -13606559.16626  21073619.377
  -3891298.272 7  -9299317.46526  21718269.455
   -539728.639 7    109219.79727  21263009.994
   1368804.445 7  -8027219.68726  21606636.427
 92  8 27 20 47 59.9990000  0  4G 3G17G20G16
   4834623.065 8 -13644350.38527  21064390.266
  -3969451.714 7  -9360216.18526  21703396.391
   -469822.393 7    163692.12327  21276310.347
   1398466.572 7  -8004106.36226  21612281.159
 92  8 27 20 48 29.9990000  0  4G 3G17G20G16
   4786326.741 8 -13681983.85927  21055197.580
  -4047323.819 7  -9420895.68426  21688584.186
   -399471.593 7    218510.86127  21289698.928
   1428663.509 7  -7980576.30626  21618030.609
 92  8 27 20 48 59.9990000  0  4G 3G17G20G16
   4738238.796 8 -13719455.00527  21046047.345
  -4124901.553 7  -9481345.79226  21673816.949
   -328673.697 7    273677.95327  21303173.760
   1459408.078 7  -7956619.52626  21623879.680
 92  8 27 20 49 29.9990000  0  4G 3G17G20G16
   4690364.202 8 -13756759.85327  21036935.722
  -4202180.752 7  -9541563.28626  21659111.439
   -257426.778 7    329194.96927  21316731.034
   1490709.352 7  -7932228.93526  21629834.397
 92  8 27 20 49 59.9990000  0  4G 3G17G20G16
   4642699.435 8 -13793901.22727  21027867.600
  -4279164.359 7  -9601550.44926  21644460.912
   -185737.944 7    385056.33927  21330372.550
   1522562.440 7  -7907408.37326  21635896.141
 92  8 27 20 50 29.9990000  0  4G 3G17G20G16
   4595243.226 8 -13830880.09227  21018834.224
  -4355854.399 7  -9661308.87826  21629865.336
   -113611.723 7    441258.50527  21344098.548
   1554957.471 7  -7882165.55326  21642063.052
 92  8 27 20 50 59.9990000  0  4G 3G17G20G16
   4547994.391 8 -13867697.36727  21009846.926
  -4432249.441 7  -9720837.39126  21615328.489
    -41053.024 7    497797.68827  21357905.789
   1587868.256 7  -7856520.81526  21648323.707
 92  8 27 20 51 29.9990000  0  4G 3G17G20G16
   4500951.293 8 -13904354.31827  21000894.823
  -4508350.881 7  -9780137.16226  21600846.715
     31933.439 7    554670.18527  21371795.774
   1621278.826 7  -7830486.61226  21654684.914
 92  8 27 20 51 59.9990000  0  4G 3G17G20G16
   4454112.519 8 -13940852.07227  20991982.263
  -4584156.583 7  -9839206.50326  21586422.711
    105342.701 7    611872.13427  21385764.124
   1655201.617 7  -7804053.31726  21661138.636
 92  8 27 20 52 29.9990000  0  4G 3G17G20G16
   4407479.345 8 -13977189.58927  20983105.259
  -4659674.005 7  -9898051.18626  21572050.450
    179171.950 7    669401.33827  21399813.028
   1689651.970 7  -7777208.92526  21667694.227
 92  8 27 20 52 59.9990000  0  4G 3G17G20G16
   4361054.730 8 -14013364.60227  20974271.154
  -4734906.734 7  -9956674.02526  21557734.941
    253421.170 7    727257.79126  21413943.206
   1724648.011 7  -7749939.30626  21674354.567
 92  8 27 20 53 29.9990000  0  4G 3G17G20G16
   4314835.637 8 -14049379.47427  20965479.411
  -4809860.022 7 -10015079.13826  21543476.512
    328084.096 7    785436.62626  21428151.479
   1760206.262 7  -7722231.62626  21681122.831
 92  8 27 20 53 59.9990000  0  4G 3G17G20G16
   4268822.352 8 -14085233.96827  20956719.715
  -4884539.010 7 -10073270.51226  21529262.062
    403157.052 7    843934.93426  21442432.333
   1796327.767 7  -7694085.02426  21687996.053
 92  8 27 20 54 29.9990000  0  4G 3G17G20G16
   4223017.303 8 -14120926.19127  20948004.748
  -4958946.486 7 -10131250.29426  21515094.710
    478639.024 7    902751.98326  21456800.876
   1832988.583 7  -7665518.17726  21694971.744
 92  8 27 20 54 59.9990000  0  4G 3G17G20G16
   4177423.041 8 -14156454.18427  20939328.904
  -5033066.513 7 -10189006.09526  21500996.100
    554529.048 7    961887.00726  21471237.322
   1870174.260 7  -7636542.36126  21702043.758
 92  8 27 20 55 29.9990000  0  4G 3G17G20G16
   4132042.323 8 -14191815.77927  20930693.113
  -5106886.444 7 -10246528.04526  21486951.243
    630826.689 7   1021339.60826  21485761.637
   1907871.667 7  -7607167.82126  21709223.188
 92  8 27 20 55 59.9990000  0  4G 3G17G20G16
   4086883.993 8 -14227004.04727  20922101.361
  -5180391.584 7 -10303804.70726  21472960.709
    707537.049 7   1081113.88326  21500359.011
   1946084.269 7  -7577391.78326  21716493.694
 92  8 27 20 56 29.9990000  0  4G 3G17G20G16
   4041960.717 8 -14262009.19227  20913548.761
  -5253560.810 7 -10360819.63326  21459037.298
    784669.103 7   1141216.68726  21515036.550
   1984837.293 7  -7547194.65126  21723867.420
 92  8 27 20 56 59.9990000  0  4G 3G17G20G16
   3997267.917 8 -14296834.74727  20905045.748
  -5326393.798 7 -10417572.53926  21445181.460
    862214.436 7   1201641.53926  21529795.123
   2024140.346 7  -7516568.93326  21731346.702
 92  8 27 20 57 29.9990000  0  4G 3G17G20G16
   3952806.592 8 -14331479.92527  20896589.202
  -5398898.657 7 -10474069.76626  21431378.266
    940170.663 7   1262386.57826  21544624.537
   2064000.231 7  -7485509.29226  21738931.781
 92  8 27 20 57 59.9990000  0  4G 3G17G20G16
   3908573.055 8 -14365947.60827  20888170.401
  -5471094.139 7 -10530325.92626  21417639.407
   1018530.208 7   1323445.87026  21559534.895
   2104419.022 7  -7454014.17926  21746623.796
 92  8 27 20 58 29.9990000  0  4G 3G17G20G16
   3864570.368 8 -14400235.41527  20879795.099
  -5542981.792 7 -10586342.21526  21403960.297
   1097292.839 7   1384819.27726  21574529.884
   2145385.692 7  -7422092.13526  21754417.320
 92  8 27 20 58 59.9990000  0  5G 3G17G20G23G16
   3820794.555 8 -14434346.41327  20871467.554
  -5614570.870 7 -10642125.84526  21390340.425
   1176450.488 7   1446500.49126  21589587.769
   4068116.97615   -284920.39531  24562804.025
   2186873.465 7  -7389764.00726  21762313.464
 92  8 27 20 59 29.9990000  0  5G 3G17G20G23G16
   3777250.956 8 -14468276.49427  20863177.393
  -5685858.143 7 -10697674.28826  21376772.688
   1256005.124 7   1508491.00926  21604729.627
   3952120.904 5   -375306.11221  24540729.976
   2228874.049 7  -7357036.32126  21770305.571
 92  8 27 20 59 59.9990000  0  5G 3G17G20G23G16
   3733945.972 8 -14502020.65127  20854939.936
  -5756825.671 7 -10752973.60026  21363269.107
   1335959.137 7   1570792.77526  21619942.475
   3836145.709 5   -465676.01422  24518673.076
   2271385.958 7  -7323910.17926  21778394.841
 92  8 27 21  0 29.9990000  0  5G 3G17G20G23G16
   3690884.022 8 -14535575.41627  20846742.770
  -5827458.454 7 -10808012.08226  21349829.111
   1416313.454 7   1633406.41126  21635235.128
   3720189.966 5   -556030.83522  24496601.096
   2314402.368 7  -7290390.93026  21786575.518
 92  8 27 21  0 59.9990000  0  5G 3G17G20G23G16
   3648065.388 8 -14568940.57827  20838596.450
  -5897763.442 7 -10862795.12226  21336452.162
   1497064.861 7   1696329.52926  21650600.541
   3604256.646 5   -646368.28223  24474544.615
   2357926.968 7  -7256475.67426  21794862.141
 92  8 27 21  1 29.9990000  0  5G 3G17G20G23G16
   3605485.047 8 -14602120.05827  20830493.419
  -5967750.692 7 -10917330.57926  21323133.312
   1578204.092 7   1759554.82526  21666041.861
   3488362.209 5   -736675.40624  24452478.272
   2401955.016 7  -7222168.13826  21803245.058
 92  8 27 21  1 59.9990000  0  5G 3G17G20G23G16
   3563141.562 8 -14635114.95827  20822434.938
  -6037432.783 7 -10971628.24126  21309875.620
   1659725.949 7   1823078.23226  21681552.434
   3372524.209 5   -826938.59124  24430434.232
   2446475.371 7  -7187476.96026  21811711.556
 92  8 27 21  2 29.9990000  0  5G 3G17G20G23G16
   3521031.332 8 -14667928.10227  20814418.638
  -6106834.150 7 -11025707.17526  21296664.276
   1741622.880 7   1886893.96626  21697135.496
   3256740.063 5   -917159.80225  24408398.437
   2491471.914 7  -7152414.74926  21820274.708
 92  8 27 21  2 59.9990000  0  5G 3G17G20G23G16
   3479160.464 8 -14700554.73127  20806454.801
  -6175958.966 7 -11079570.61126  21283509.743
   1823897.428 7   1951003.91326  21712791.647
   3141010.853 5  -1007338.19325  24386396.729
   2536958.852 7  -7116970.39826  21828932.594
 92  8 27 21  3 29.9990000  0  4G 3G17G20G16
   3437531.880 8 -14732992.57327  20798532.096
  -6244796.681 7 -11133210.31426  21270409.682
   1906548.519 7   2015407.28826  21728521.038
   2582942.497 7  -7081138.99726  21837685.485
 92  8 27 21  3 59.9990000  0  4G 3G17G20G16
   3396136.545 8 -14765248.64827  20790654.959
  -6313348.858 7 -11186627.55926  21257368.530
   1989563.398 7   2080094.12326  21744320.130
   2629427.433 7  -7044917.00926  21846523.666
 92  8 27 21  4 29.9990000  0  5G 3G17G20G23G16
   3354979.876 8 -14797318.78327  20782820.003
  -6381597.177 7 -11239808.01526  21244379.962
   2072943.817 7   2145065.76826  21760189.045
   1269579.87915    -97349.95931  24320357.187
   2676441.220 7  -7008282.92426  21855473.071
 92  8 27 21  4 59.9990000  0  5G 3G17G20G23G16
   3314067.964 8 -14829198.17827  20775035.382
  -6449521.008 7 -11292735.61826  21231458.187
   2156691.697 7   2210323.80626  21776127.301
   1153995.014 5   -187416.79721  24298366.721
   2723994.768 7  -6971228.21426  21864523.116
 92  8 27 21  5 29.9990000  0  5G 3G17G20G23G16
   3273399.706 8 -14860887.70527  20767299.628
  -6517107.084 7 -11345400.03526  21218596.581
   2240802.112 7   2275864.27626  21792128.633
   1038469.304 5   -277436.51822  24276375.865
   2772072.620 7  -6933764.96526  21873670.113
 92  8 27 21  5 59.9990000  0  5G 3G17G20G23G16
   3232977.509 8 -14892385.49027  20759603.895
  -6584357.335 7 -11397802.78626  21205794.604
   2325273.346 7   2341685.93626  21808202.785
    923022.341 5   -367394.98523  24254408.183
   2820659.294 7  -6895905.24526  21882913.314
 92  8 27 21  6 29.9990000  0  5G 3G17G20G23G16
   3192801.746 8 -14923691.27627  20751959.457
  -6651279.090 7 -11449949.55926  21193059.810
   2410102.360 7   2407786.39526  21824346.399
    807658.101 5   -457288.96025  24232459.537
   2869725.034 7  -6857672.21826  21892253.169
 92  8 27 21  6 59.9990000  0  5G 3G17G20G23G16
   3152868.232 8 -14954808.29427  20744362.657
  -6717877.151 7 -11501844.09827  21180385.274
   2495280.694 7   2474158.97626  21840558.186
    692379.456 5   -547116.26025  24210529.959
   2919244.903 7  -6819085.32426  21901680.352
 92  8 27 21  7 29.9990000  0  5G 3G17G20G23G16
   3113181.836 8 -14985732.73627  20736810.435
  -6784151.459 7 -11553486.34727  21167774.625
   2580809.223 7   2540804.53526  21856830.531
    577182.912 5   -636879.53225  24188598.582
   2969221.294 7  -6780142.69526  21911187.580
 92  8 27 21  7 59.9990000  0  5G 3G17G20G23G16
   3073755.255 8 -15016454.73727  20729309.388
  -6850107.754 7 -11604880.80527  21155225.882
   2666696.633 7   2607729.68826  21873173.957
    462062.603 6   -726583.40225  24166704.439
   3019665.740 7  -6740835.37026  21920788.314
 92  8 27 21  8 29.9990000  0  5G 3G17G20G23G16
   3034585.695 8 -15046976.45927  20721852.680
  -6915746.602 7 -11656027.91127  21142736.318
   2752936.683 7   2674929.62426  21889587.714
    347005.219 5   -816238.20825  24144799.743
   3070582.330 7  -6701160.10926  21930476.617
 92  8 27 21  8 59.9990000  0  5G 3G17G20G23G16
   2995674.497 8 -15077296.83027  20714448.076
  -6981064.287 7 -11706924.74327  21130306.353
   2839526.342 7   2742402.00326  21906061.639
    232006.699 5   -905847.03925  24122909.108
   3121996.425 7  -6661097.19926  21940259.924
 92  8 27 21  9 29.9990000  0  5G 3G17G20G23G16
   2957024.294 8 -15107413.85627  20707091.919
  -7046062.383 7 -11757572.54527  21117934.548
   2926464.465 7   2810145.86826  21922611.712
    117071.458 5   -995406.67225  24101047.282
   3173913.700 7  -6620642.21426  21950143.902
 92  8 27 21  9 59.9990000  0  5G 3G17G20G23G16
   2918639.666 8 -15137323.94327  20699792.122
  -7110733.157 7 -11807965.30327  21105631.126
   3013751.250 7   2878161.47526  21939220.154
      2217.485 5  -1084903.02625  24079180.870
   3226330.188 7  -6579798.24126  21960116.887
 92  8 27 21 10 29.9990000  0  5G 3G17G20G23G16
   2880512.649 8 -15167033.28527  20692535.346
  -7175071.296 7 -11858098.88327  21093387.212
   3101375.055 7   2946439.63226  21955893.471
   -112543.830 5  -1174327.11625  24057353.041
   3279240.371 7  -6538569.53926  21970189.794
 92  8 27 21 10 59.9990000  0  5G 3G17G20G23G16
   2842648.794 8 -15196537.57127  20685330.763
  -7239072.010 7 -11907969.51227  21081209.492
   3189337.465 7   3014981.69926  21972627.736
   -227190.076 5  -1263661.38325  24035532.197
   3332643.839 7  -6496956.43626  21980347.512
 92  8 27 21 11 29.9990000  0  5G 3G17G20G23G16
   2805046.315 8 -15225838.19127  20678174.298
  -7302749.105 7 -11957587.96327  21069086.455
   3277632.666 7   3083783.07726  21989431.823
   -341708.935 5  -1352896.61325  24013737.615
   3386516.646 7  -6454977.66826  21990599.185
 92  8 27 21 11 59.9990000  0  5G 3G17G20G23G16
   2767697.930 8 -15254940.81927  20671064.660
  -7366115.327 7 -12006964.18627  21057026.554
   3366249.007 7   3152834.63326  22006292.391
   -456104.171 5  -1442035.49525  23991965.548
   3440848.823 7  -6412640.92226  22000936.089
 92  8 27 21 12 29.9990000  0  5G 3G17G20G23G16
   2730607.840 8 -15283842.15227  20664010.213
  -7429170.507 7 -12056098.04827  21045032.337
   3455186.393 7   3222136.42126  22023217.684
   -570375.490 5  -1531077.80625  23970234.192
   3495653.090 7  -6369936.29826  22011364.549
 92  8 27 21 12 59.9990000  0  5G 3G17G20G23G16
   2693776.598 8 -15312541.81627  20656998.907
  -7491923.094 8 -12104996.12627  21033092.473
   3544441.718 7   3291685.88326  22040202.305
   -684548.475 5  -1620043.23625  23948498.400
   3550917.468 7  -6326873.17626  22021880.459
 92  8 27 21 13 29.9990000  0  5G 3G17G20G23G16
   2657203.025 8 -15341040.69127  20650042.193
  -7554371.245 7 -12153656.96027  21021205.672
   3634009.459 7   3361478.84926  22057250.183
   -798643.559 5  -1708948.26925  23926790.488
   3606633.997 7  -6283457.71326  22032486.247
 92  8 27 21 13 59.9990000  0  5G 3G17G20G23G16
   2620891.396 8 -15369335.44027  20643131.078
  -7616492.573 8 -12202063.14027  21009385.545
   3723890.504 7   3431515.89526  22074354.662
   -912668.600 5  -1797798.72525  23905087.462
   3662806.317 7  -6239687.07626  22043172.709
 92  8 27 21 14 29.9990000  0  5G 3G17G20G23G16
   2584845.314 8 -15397423.29727  20636268.858
  -7678289.388 7 -12250216.45927  20997625.586
   3814083.667 7   3501796.19926  22091517.751
  -1026638.140 5  -1886605.90925  23883404.883
   3719429.450 7  -6195565.15726  22053944.462
 92  8 27 21 14 59.9990000  0  5G 3G17G20G23G16
   2549071.340 8 -15425299.11427  20629462.880
  -7739751.666 7 -12298109.09027  20985929.843
   3904591.356 7   3572321.53226  22108740.797
  -1140545.678 5  -1975364.76325  23861717.717
   3776490.635 7  -6151101.94226  22064807.652
 92  8 27 21 15 29.9990000  0  5G 3G17G20G23G16
   2513567.542 8 -15452964.38227  20622707.776
  -7800874.332 8 -12345737.07027  20974296.367
   3995407.870 7   3643087.55326  22126018.766
  -1254366.612 5  -2064056.10325  23840062.358
   3834000.301 7  -6106289.23826  22075755.712
 92  8 27 21 15 59.9990000  0  5G 3G17G20G23G16
   2478335.739 8 -15480417.72427  20616001.179
  -7861673.421 7 -12393112.92527  20962730.434
   4086530.344 7   3714091.95326  22143364.937
  -1368084.171 5  -2152666.82925  23818420.730
   3891968.879 7  -6061118.96126  22086782.469
 92  8 27 21 16 29.9990000  0  5G 3G17G20G23G16
   2443379.062 8 -15507656.67327  20609350.554
  -7922149.827 8 -12440237.35027  20951220.802
   4177958.181 7   3785334.30426  22160760.815
  -1481675.337 5  -2241179.20925  23796807.553
   3950401.594 7  -6015586.99526  22097902.341
 92  8 27 21 16 59.9990000  0  5G 3G17G20G23G16
   2408696.046 8 -15534682.38727  20602750.233
  -7982300.402 8 -12487107.90727  20939776.554
   4269685.794 7   3856810.26126  22178213.023
  -1595120.699 6  -2329577.97025  23775218.928
   4009298.345 7  -5969693.43426  22109110.261
 92  8 27 21 17 29.9990000  0  5G 3G17G20G23G16
   2374288.912 8 -15561493.11727  20596202.616
  -8042143.237 8 -12533738.62727  20928386.929
   4361710.969 7   3928518.04726  22195725.999
  -1708425.635 6  -2417867.32125  23753660.103
   4068672.389 7  -5923427.93626  22120408.720
 92  8 27 21 17 59.9990000  0  5G 3G17G20G23G16
   2340159.150 8 -15588087.72827  20589709.531
  -8101684.168 8 -12580134.11827  20917055.164
   4454031.327 7   4000455.89626  22213294.616
  -1821602.169 5  -2506056.60225  23732123.942
   4128505.735 7  -5876804.55026  22131795.946
 92  8 27 21 18 29.9990000  0  5G 3G17G20G23G16
   2306308.545 8 -15614464.80427  20583266.631
  -8160908.590 8 -12626282.96627  20905785.996
   4546644.668 7   4072622.00326  22230919.535
  -1934657.302 5  -2594151.27225  23710609.427
   4188772.805 7  -5829843.22726  22143264.207
 92  8 27 21 18 59.9990000  0  5G 3G17G20G23G16
   2272735.432 8 -15640625.65127  20576876.885
  -8219829.442 8 -12672195.28827  20894574.987
   4639544.452 7   4145011.35526  22248595.928
  -2047610.102 6  -2682166.25225  23689119.374
   4249466.976 7  -5782549.09026  22154817.609
 92  8 27 21 19 29.9990000  0  5G 3G17G20G23G16
   2239433.962 8 -15666574.84027  20570539.302
  -8278442.269 8 -12717867.55727  20883423.487
   4732721.399 7   4217616.62726  22266329.671
  -2160467.904 6  -2770107.15925  23667641.283
   4310568.440 7  -5734937.54226  22166439.633
 92  8 27 21 19 59.9990000  0  5G 3G17G20G23G16
   2206407.228 8 -15692309.93427  20564253.853
  -8336720.703 7 -12763279.25927  20872328.108
   4826173.905 7   4290436.64726  22284109.792
  -2273217.037 5  -2857963.40225  23646181.329
   4372062.219 7  -5687020.32726  22178140.173
 92  8 27 21 20 29.9990000  0  5G 3G17G20G23G16
   2173658.289 8 -15717828.56427  20558023.866
  -8394661.276 8 -12808427.72827  20861304.170
   4919901.095 7   4363470.69725  22301952.270
  -2385849.434 5  -2945728.69125  23624749.166
   4433971.262 7  -5638779.55926  22189924.385
 92  8 27 21 20 59.9990000  0  5G 3G17G20G23G16
   2141185.561 8 -15743131.97127  20551846.793
  -8452262.004 8 -12853311.36227  20850340.909
   5013896.723 6   4436713.91326  22319828.594
  -2498365.225 5  -3033403.12125  23603330.524
   4496310.372 7  -5590203.62626  22201783.545
 92  8 27 21 21 29.9990000  0  5G 3G17G20G23G16
   2108992.098 8 -15768217.75827  20545714.868
  -8509515.934 8 -12897924.74627  20839449.210
   5108159.937 6   4510165.66325  22337768.984
  -2610755.474 5  -3120979.73125  23581948.906
   4559075.965 7  -5541295.38226  22213729.555
 92  8 27 21 21 59.9990000  0  5G 3G17G20G23G16
   2077081.802 8 -15793082.90627  20539645.689
  -8566440.407 8 -12942281.44227  20828618.517
   5202690.475 6   4583825.67525  22355762.348
  -2723017.524 6  -3208456.42225  23560585.096
   4622279.936 7  -5492045.57226  22225751.562
 92  8 27 21 22 29.9990000  0  5G 3G17G20G23G16
   2045463.915 8 -15817720.18827  20533630.473
  -8623034.419 8 -12986380.63227  20817845.595
   5297493.100 7   4657697.74225  22373802.869
  -2835135.203 5  -3295820.63425  23539245.809
   4685934.135 7  -5442444.90026  22237867.165
 92  8 27 21 22 59.9990000  0  5G 3G17G20G23G16
   2014146.769 8 -15842123.13727  20527670.509
  -8679291.134 8 -13030216.98227  20807136.679
   5392571.988 7   4731785.01225  22391896.932
  -2947094.186 6  -3383061.17825  23517945.885
   4750028.050 7  -5392501.60726  22250068.508
 92  8 27 21 23 29.9990000  0  5G 3G17G20G23G16
   1983133.544 8 -15866289.26727  20521769.814
  -8735224.840 8 -13073801.62327  20796495.276
   5487926.248 6   4806086.94625  22410038.933
  -3058884.583 6  -3470170.39325  23496674.201
   4814560.045 7  -5342216.91926  22262348.517
 92  8 27 21 23 59.9990000  0  5G 3G17G20G23G16
   1952427.652 8 -15890215.92627  20515924.191
  -8790832.151 8 -13117131.94627  20785918.418
   5583554.836 6   4880602.55625  22428240.562
  -3170499.720 6  -3557142.99025  23475435.524
   4879528.639 7  -5291592.07125  22274711.328
 92  8 27 21 24 29.9990000  0  5G 3G17G20G23G16
   1922027.506 8 -15913904.32327  20510141.135
  -8846100.403 8 -13160198.09427  20775402.268
   5679452.447 6   4955327.87326  22446482.843
  -3281941.061 6  -3643980.18325  23454231.174
   4944933.490 7  -5240627.26625  22287154.244
 92  8 27 21 24 59.9990000  0  5G 3G17G20G23G16
   1891938.015 8 -15937350.66527  20504411.591
  -8901037.061 8 -13203005.82427  20764945.657
   5775618.892 7   5030262.59425  22464785.293
  -3393217.695 6  -3730689.11025  23433050.777
   5010777.686 7  -5189320.08325  22299681.072
 92  8 27 21 25 29.9990000  0  5G 3G17G20G23G16
   1862147.276 8 -15960564.21727  20498745.094
  -8955651.917 8 -13245562.79427  20754553.891
   5872038.594 6   5105394.72425  22483130.103
  -3504343.733 6  -3817280.60724  23411903.806
   5077046.291 7  -5137682.23426  22312293.970
 92  8 27 21 25 59.9990000  0  5G 3G17G20G23G16
   1832660.255 8 -15983541.09727  20493134.868
  -9009929.464 8 -13287856.94627  20744217.947
   5968712.160 6   5180724.61825  22501530.375
  -3615319.226 6  -3903754.77824  23390790.832
   5143734.506 7  -5085717.40826  22324988.502
 92  8 27 21 26 29.9990000  0  5G 3G17G20G23G16
   1803469.520 8 -16006287.10727  20487579.264
  -9063884.332 8 -13329899.64627  20733955.541
   6065627.491 7   5256242.95225  22519972.378
  -3726154.408 6  -3990119.62724  23369692.429
   5210829.617 7  -5033435.52626  22337758.252
 92  8 27 21 26 59.9990000  0  5G 3G17G20G23G16
   1774582.414 8 -16028796.53627  20482082.749
  -9117511.257 8 -13371686.81827  20723751.146
   6162788.168 6   5331952.39025  22538460.758
  -3836838.916 6  -4076367.08125  23348632.908
   5278313.534 7  -4980850.65326  22350597.643
 92  8 27 21 27 29.9990000  0  5G 3G17G20G23G16
   1745991.573 8 -16051075.10127  20476644.574
  -9170814.378 8 -13413221.65027  20713604.820
   6260182.002 6   5407843.59725  22556992.969
  -3947373.502 6  -4162497.77025  23327596.861
   5346160.823 7  -4927982.64426  22363512.552
 92  8 27 21 27 59.9990000  0  5G 3G17G20G23G16
   1717689.203 8 -16073128.88227  20471260.781
  -9223804.183 8 -13454512.36827  20703522.979
   6357797.367 6   5483907.33825  22575573.416
  -4057768.375 6  -4248519.52725  23306590.703
   5414361.977 7  -4874838.90725  22376481.005
 92  8 27 21 28 29.9990000  0  5G 3G17G20G23G16
   1689677.136 8 -16094956.46527  20465926.274
  -9276478.918 8 -13495557.54827  20693501.727
   6455631.442 6   5560141.57225  22594192.416
  -4168012.618 6  -4334423.88625  23285614.734
   5482917.701 7  -4821418.86126  22389529.561
 92  8 27 21 28 59.9990000  0  5G 3G17G20G23G16
   1661961.393 8 -16116553.13827  20460652.235
  -9328827.057 8 -13536348.27027  20683539.114
   6553685.946 6   5636547.52625  22612847.541
  -4278094.796 6  -4420201.98825  23264662.299
   5551846.599 7  -4767708.05226  22402644.072
 92  8 27 21 29 29.9990000  0  5G 3G17G20G23G16
   1634547.786 8 -16137914.36727  20455435.547
  -9380849.068 8 -13576884.84528  20673638.858
   6651962.589 6   5713126.60425  22631550.154
  -4388015.075 6  -4505853.94425  23243749.797
   5621169.076 7  -4713690.54426  22415841.206
 92  8 27 21 29 59.9990000  0  5G 3G17G20G23G16
   1607439.040 8 -16159038.06427  20450278.907
  -9432544.250 8 -13617166.76028  20663802.157
   6750459.752 6   5789877.49925  22650296.146
  -4497759.882 6  -4591369.13825  23222861.338
   5690893.993 7  -4659359.44025  22429104.744
 92  8 27 21 30 29.9990000  0  5G 3G17G20G23G16
   1580641.431 8 -16179919.30427  20445177.458
  -9483910.004 8 -13657191.98428  20654026.165
   6849179.411 6   5866801.78425  22669076.255
  -4607318.225 6  -4676739.09425  23202006.935
   5761018.971 7  -4604716.61525  22442452.224
 92  8 27 21 30 59.9990000  0  5G 3G17G20G23G16
   1554160.325 8 -16200553.91327  20440136.118
  -9534948.149 8 -13696961.93328  20644314.748
   6948122.827 6   5943900.37825  22687907.149
  -4716693.171 6  -4761966.13825  23181193.214
   5831532.264 7  -4549771.15325  22455872.913
 92  8 27 21 31 29.9990000  0  5G 3G17G20G23G16
   1527998.590 8 -16220939.65527  20435159.084
  -9585658.216 8 -13736476.21828  20634665.418
   7047287.962 6   6021171.78925  22706779.983
  -4825881.889 6  -4847048.03925  23160431.447
   5902412.537 7  -4494539.79625  22469354.130
 92  8 27 21 31 59.9990000  0  5G 3G17G20G23G16
   1502163.567 8 -16241070.82627  20430245.965
  -9636022.020 8 -13775720.69528  20625081.593
   7146678.677 6   6098618.95425  22725692.331
  -4934857.995 6  -4931964.29025  23139685.389
   5973669.094 7  -4439015.20225  22482918.719
 92  8 27 21 32 29.9990000  0  5G 3G17G20G23G16
   1476663.885 8 -16260940.69127  20425392.055
  -9686026.714 8 -13814685.35127  20615564.262
   7246298.230 6   6176244.45925  22744648.418
  -5043633.868 6  -5016724.49125  23118985.320
   6045308.718 7  -4383192.11025  22496551.931
 92  8 27 21 32 59.9990000  0  6G 3G17G20G23G16G26
   1451501.006 8 -16280548.10327  20420601.132
  -9735662.887 8 -13853362.86428  20606117.682
   7346144.346 6   6254046.47525  22763650.733
  -5152200.718 6  -5101321.84925  23098322.334
   6117342.836 7  -4327061.62825  22510260.361
  10585978.47415   -163733.89031  23814698.627
 92  8 27 21 33 29.9990000  0  6G 3G17G20G23G16G26
   1426672.725 8 -16299894.79327  20415878.681
  -9784931.827 8 -13891754.19728  20596744.910
   7446210.305 6   6332019.78125  22782690.761
  -5260558.043 6  -5185755.92525  23077703.628
   6189788.454 6  -4270610.50925  22524043.949
  10509614.121 5   -223238.42622  23800176.501
 92  8 27 21 33 59.9990000  0  6G 3G17G20G23G16G26
   1402184.745 8 -16318976.31727  20411214.300
  -9833835.160 8 -13929860.66228  20587437.254
   7546497.423 6   6410165.44825  22801772.671
  -5368706.026 6  -5270026.91825  23057121.917
   6262648.639 6  -4213836.38925  22537910.369
  10433514.421 5   -282536.75323  23785686.722
 92  8 27 21 34 29.9990000  0  6G 3G17G20G23G16G26
   1378039.080 8 -16337791.08427  20406622.349
  -9882380.815 8 -13967688.41628  20578201.667
   7647003.355 6   6488481.60325  22820898.621
  -5476653.106 6  -5354141.32125  23036587.213
   6335904.670 6  -4156753.79225  22551848.230
  10357671.898 5   -341634.60223  23771250.875
 92  8 27 21 34 59.9990000  0  6G 3G17G20G23G16G26
   1354235.805 8 -16356339.05627  20402095.363
  -9930571.932 8 -14005239.89628  20569031.466
   7747724.138 6   6566965.19025  22840063.183
  -5584377.638 6  -5438082.33525  23016086.115
   6409553.411 6  -4099365.15225  22565862.688
  10282086.315 5   -400532.21823  23756860.598
 92  8 27 21 35 29.9990000  0  6G 3G17G20G23G16G26
   1330779.610 8 -16374616.58627  20397631.094
  -9978405.474 8 -14042512.75528  20559926.379
   7848660.009 6   6645616.37825  22859279.280
  -5691880.104 6  -5521850.32525  22995628.458
   6483591.107 6  -4041673.46325  22579948.497
  10206762.031 6   -459226.22224  23742537.383
 92  8 27 21 35 59.9990000  0  6G 3G17G20G23G16G26
   1307670.151 8 -16392623.93227  20393227.233
 -10025883.370 8 -14079508.48928  20550894.921
   7949806.729 6   6724431.83625  22878529.014
  -5799151.222 6  -5605438.08125  22975220.266
   6558005.039 6  -3983688.60025  22594112.521
  10131705.513 5   -517711.55124  23728254.821
 92  8 27 21 36 29.9990000  0  6G 3G17G20G23G16G26
   1284904.126 8 -16410363.64627  20388898.439
 -10072997.299 8 -14116220.60328  20541930.078
   8051156.036 6   6803405.15725  22897807.738
  -5906194.446 6  -5688848.21125  22954836.807
   6632792.507 7  -3925412.66125  22608346.757
  10056925.473 5   -575981.42624  23714018.637
 92  8 27 21 36 59.9990000  0  6G 3G17G20G23G16G26
   1262483.357 8 -16427834.34227  20384636.920
 -10119744.446 8 -14152646.90628  20533031.398
   8152705.691 6   6882534.57325  22917134.488
  -6013004.228 6  -5772076.47125  22934521.611
   6707963.444 7  -3866837.88825  22622653.603
   9982435.959 5   -634025.00225  23699853.713
 92  8 27 21 37 29.9990000  0  6G 3G17G20G23G16G26
   1240407.206 8 -16445036.52427  20380433.230
 -10166141.780 8 -14188800.63528  20524198.313
   8254451.065 6   6961816.56725  22936490.138
  -6119594.343 6  -5855133.59525  22914238.523
   6783500.515 7  -3807977.84525  22637024.094
   9908239.602 5   -691840.06825  23685719.128
 92  8 27 21 37 59.9990000  0  6G 3G17G20G23G16G26
   1218675.832 8 -16461970.03727  20376298.252
 -10212199.644 8 -14224689.84728  20515437.718
   8356387.759 6   7041247.53725  22955891.957
  -6225969.220 6  -5938022.91925  22893998.964
   6859386.467 6  -3748845.95125  22651458.262
   9834332.856 5   -749429.55025  23671660.960
 92  8 27 21 38 29.9990000  0  6G 3G17G20G23G16G26
   1197281.515 8 -16478640.91127  20372225.662
 -10257927.782 8 -14260322.12528  20506733.064
   8458503.149 6   7120817.84925  22975320.607
  -6332143.399 6  -6020755.91425  22873788.366
   6935606.120 6  -3689454.03625  22665967.497
   9760708.788 5   -806798.73625  23657655.376
 92  8 27 21 38 59.9990000  0  6G 3G17G20G23G16G26
   1176222.551 8 -16495050.48727  20368215.908
 -10303349.934 8 -14295715.95928  20498095.654
   8560792.056 6   7200523.29925  22994786.970
  -6438110.882 6  -6103327.80525  22853626.454
   7012151.454 6  -3629808.32225  22680539.869
   9687357.612 5   -863955.29525  23643697.399
 92  8 27 21 39 29.9990000  0  6G 3G17G20G23G16G26
   1155506.260 8 -16511193.03827  20364276.815
 -10348461.268 8 -14330867.60928  20489508.608
   8663256.680 6   7280365.70125  23014287.390
  -6543880.729 6  -6185745.70425  22833493.951
   7089009.065 6  -3569919.23825  22695157.839
   9614283.862 5   -920895.67625  23629786.189
 92  8 27 21 39 59.9990000  0  6G 3G17G20G23G16G26
   1135134.400 8 -16527067.18727  20360400.318
 -10393241.873 8 -14365761.55428  20480985.749
   8765894.818 6   7360343.27025  23033823.366
  -6649442.246 6  -6268001.28225  22813409.595
   7166192.453 6  -3509776.36725  22709848.449
   9541488.356 5   -977619.22325  23615948.609
 92  8 27 21 40 29.9990000  0  6G 3G17G20G23G16G26
   1115107.223 8 -16542672.75627  20356589.686
 -10437691.423 8 -14400397.52728  20472526.055
   8868702.391 6   7440452.87225  23053382.935
  -6754790.552 6  -6350090.69925  22793360.825
   7243706.367 6  -3449375.94125  22724596.559
   9468972.257 5  -1034125.08925  23602127.697
 92  8 27 21 40 59.9990000  0  6G 3G17G20G23G16G26
   1095425.194 8 -16558009.39027  20352844.649
 -10481806.096 8 -14434772.54428  20464129.438
   8971675.527 6   7520691.50725  23072986.184
  -6859925.514 6  -6432013.88225  22773348.869
   7321552.142 7  -3388716.90025  22739417.189
   9396737.214 5  -1090411.83624  23588394.175
 92  8 27 21 41 29.9990000  0  6G 3G17G20G23G16G26
   1076083.066 8 -16573081.17127  20349161.639
 -10525580.836 8 -14468882.70528  20455799.884
   9074804.684 6   7601051.69425  23092601.904
  -6964847.839 6  -6513771.40625  22753391.895
   7399728.633 7  -3327800.15425  22754285.636
   9324784.696 5  -1146478.58124  23574695.218
 92  8 27 21 41 59.9990000  0  6G 3G17G20G23G16G26
   1057082.557 8 -16587886.70727  20345546.441
 -10569020.339 8 -14502731.63528  20447536.255
   9178087.314 6   7681531.53225  23112258.007
  -7069540.740 6  -6595350.20225  22733463.401
   7478253.338 7  -3266612.11025  22769230.979
   9253113.181 5  -1202326.28924  23561047.436
 92  8 27 21 42 29.9990000  0  6G 3G17G20G23G16G26
   1038422.914 8 -16602426.68327  20341994.890
 -10612134.031 8 -14536326.68228  20439333.784
   9281518.226 6   7762126.85225  23131937.883
  -7174001.230 6  -6676747.83425  22713584.253
   7557118.107 6  -3205159.04125  22784234.453
   9181727.769 5  -1257951.08324  23547485.695
 92  8 27 21 42 59.9990000  0  6G 3G17G20G23G16G26
   1020103.400 8 -16616701.61127  20338506.265
 -10654917.624 8 -14569664.51328  20431193.999
   9385092.446 6   7842833.87325  23151649.297
  -7278216.783 6  -6757954.63725  22693749.714
   7636324.545 6  -3143439.74525  22799310.686
   9110636.945 5  -1313346.33824  23533947.907
 92  8 27 21 43 29.9990000  0  6G 3G17G20G23G16G26
   1002121.432 8 -16630713.51127  20335084.584
 -10697378.338 8 -14602750.75128  20423112.314
   9488802.807 6   7923646.93425  23171388.532
  -7382180.864 6  -6838965.45225  22673970.127
   7715859.973 6  -3081464.07825  22814438.723
   9039836.388 5  -1368515.50424  23520471.426
 92  8 27 21 43 59.9990000  0  6G 3G17G20G23G16G26
    984474.248 8 -16644464.54127  20331731.225
 -10739511.514 8 -14635581.75328  20415094.574
   9592642.735 6   8004561.01325  23191153.189
  -7485903.157 6  -6919787.87925  22654230.922
   7795708.221 6  -3019244.71225  22829642.877
   8969326.330 6  -1423458.30224  23507059.132
 92  8 27 21 44 29.9990000  0  6G 3G17G20G23G16G26
    967161.236 8 -16657955.18327  20328433.328
 -10781311.134 8 -14668152.84528  20407137.663
   9696607.004 6   8085571.91125  23210932.985
  -7589382.831 6  -7000421.22125  22634539.684
   7875852.386 6  -2956794.72325  22844886.034
   8899118.614 6  -1478165.49624  23493696.842
 92  8 27 21 44 59.9990000  0  6G 3G17G20G23G16G26
    950178.407 8 -16671188.54727  20325203.754
 -10822781.715 8 -14700467.53728  20399244.397
   9800687.447 6   8166673.35825  23230733.708
  -7692633.754 6  -7080876.32825  22614891.796
   7956285.450 6  -2894119.64325  22860196.975
   8829203.388 6  -1532644.75124  23480394.991
 92  8 27 21 45 29.9990000  0  6G 3G17G20G23G16G26
    933522.441 8 -16684167.19727  20322032.040
 -10863929.673 8 -14732530.84028  20391413.608
   9904876.305 6   8247859.34025  23250562.760
  -7795677.922 6  -7161170.32625  22595283.811
   8037003.204 6  -2831222.71525  22875562.747
   8759574.776 6  -1586900.70025  23467143.025
 92  8 27 21 45 59.9990000  0  6G 3G17G20G23G16G26
    917194.995 8 -16696889.86227  20318926.280
 -10904754.974 8 -14764342.73128  20383646.315
  10009171.103 6   8329127.79025  23270412.049
  -7898528.014 6  -7241313.09625  22575712.729
   8118016.297 6  -2768095.67425  22890973.399
   8690237.202 5  -1640929.84025  23453945.981
 92  8 27 21 46 29.9990000  0  6G 3G17G20G23G16G26
    901200.774 8 -16709352.87727  20315880.329
 -10945269.121 8 -14795912.16428  20375937.542
  10113571.617 6   8410478.66425  23290280.584
  -8001180.243 6  -7321301.70625  22556182.000
   8199330.982 6  -2704733.61425  22906447.546
   8621190.115 5  -1694732.64325  23440805.238
 92  8 27 21 46 59.9990000  0  6G 3G17G20G23G16G26
    885541.727 8 -16721554.72327  20312906.807
 -10985477.677 8 -14827243.46628  20368290.616
  10218075.833 6   8491910.30325  23310163.899
  -8103629.219 6  -7401131.92525  22536685.867
   8280937.582 6  -2641144.04625  22921977.185
   8552430.435 6  -1748311.48025  23427723.614
 92  8 27 21 47 29.9990000  0  6G 3G17G20G23G16G26
    870214.141 8 -16733498.27727  20309986.019
 -11025397.566 8 -14858349.83728  20360691.147
  10322676.136 6   8573416.83025  23330073.416
  -8205869.103 6  -7480799.23325  22517221.212
   8362822.602 6  -2577337.57025  22937562.106
   8483967.529 6  -1801659.14525  23414696.583
 92  8 27 21 47 59.9990000  0  6G 3G17G20G23G16G26
    855220.500 8 -16745181.62227  20307131.875
 -11065032.030 8 -14889233.80929  20353149.598
  10427370.464 6   8654996.61425  23349994.385
  -8307879.942 6  -7560288.07025  22497814.837
   8444965.022 6  -2513330.53325  22953191.696
   8415805.540 6  -1854772.42025  23401729.420
 92  8 27 21 48 29.9990000  0  6G 3G17G20G23G16G26
    840557.432 8 -16756607.38627  20304340.687
 -11104378.050 8 -14919893.01729  20345657.035
  10532151.497 6   8736643.94325  23369935.051
  -8409644.865 6  -7639585.29225  22478454.150
   8527337.689 6  -2449144.04825  22968865.475
   8347957.529 5  -1907640.86325  23388816.219
 92  8 27 21 48 59.9990000  0  6G 3G17G20G23G16G26
    826225.806 8 -16767774.86027  20301619.561
 -11143416.340 8 -14950312.43129  20338231.265
  10637015.596 6   8818356.06125  23389887.228
  -8511150.495 6  -7718680.44925  22459132.826
   8609942.292 6  -2384776.88325  22984585.483
   8280429.103 6  -1960260.29925  23375963.367
 92  8 27 21 49 29.9990000  0  6G 3G17G20G23G16G26
    812228.625 8 -16778681.73827  20298951.528
 -11182136.340 8 -14980483.82129  20330866.954
  10741961.175 6   8900131.58525  23409855.474
  -8612403.090 6  -7797578.40725  22439866.214
   8692787.432 6  -2320222.29225  23000349.529
   8213215.164 6  -2012634.65725  23363169.754
 92  8 27 21 49 59.9990000  0  6G 3G17G20G23G16G26
    798568.856 8 -16789325.70127  20296352.867
 -11220516.198 8 -15010390.16029  20323559.063
  10846987.405 6   8981969.95525  23429846.805
  -8713414.586 6  -7876288.50625  22420650.327
   8775875.978 6  -2255477.99425  23016156.926
   8146302.777 5  -2064774.08925  23350430.164
 92  8 27 21 50 29.9990000  0  6G 3G17G20G23G16G26
    785242.573 8 -16799709.80727  20293816.473
 -11258565.501 8 -15040038.92829  20316317.216
  10952085.838 6   9063864.62925  23449836.726
  -8814203.306 6  -7954825.02425  22401469.995
   8859222.483 6  -2190532.68725  23032019.155
   8079679.962 6  -2116687.92425  23337765.071
 92  8 27 21 50 59.9990000  0  6G 3G17G20G23G16G26
    772254.814 8 -16809830.11327  20291345.554
 -11296298.118 8 -15069440.93229  20309140.515
  11057257.576 6   9145816.42225  23469857.076
  -8914770.883 6  -8033189.20425  22382326.118
   8942837.744 6  -2125377.97725  23047926.473
   8013326.851 6  -2168391.51025  23325137.963
 92  8 27 21 51 29.9990000  0  6G 3G17G20G23G16G26
    759607.101 8 -16819685.46427  20288934.683
 -11333735.148 8 -15098612.61429  20302013.369
  11162499.475 6   9227822.84725  23489880.814
  -9015132.010 6  -8111392.54525  22363227.870
   9026717.052 6  -2060017.50525  23063897.496
   7947256.640 6  -2219874.66825  23312565.177
 92  8 27 21 51 59.9990000  0  6G 3G17G20G23G16G26
    747302.546 8 -16829273.41827  20286597.920
 -11370884.932 8 -15127560.45829  20294944.472
  11267810.748 6   9309883.34725  23509925.957
  -9115278.740 6  -8189428.84925  22344176.778
   9110862.811 6  -1994449.33225  23079910.970
   7881495.498 6  -2271116.96225  23300044.585
 92  8 27 21 52 29.9990000  0  6G 3G17G20G23G16G26
    735340.791 8 -16838594.25127  20284320.187
 -11407759.101 8 -15156293.53329  20287932.267
  11373186.711 6   9391994.26425  23529972.659
  -9215192.245 6  -8267283.37525  22325156.176
   9195277.125 6  -1928671.97325  23095966.445
   7816064.614 6  -2322101.95625  23287598.761
 92  8 27 21 52 59.9990000  0  6G 3G17G20G23G16G26
    723719.108 8 -16847650.08027  20282112.845
 -11444348.552 8 -15184804.76129  20280966.319
  11478620.121 6   9474149.90425  23550039.327
  -9314868.585 7  -8344953.09025  22306195.712
   9279949.209 6  -1862693.81625  23112087.695
   7750981.547 6  -2372815.88825  23275212.626
 92  8 27 21 53 29.9990000  0  6G 3G17G20G23G16G26
    712437.761 8 -16856440.74627  20279964.113
 -11480645.834 8 -15213088.32529  20274060.510
  11584107.159 6   9556347.37325  23570110.912
  -9414326.068 6  -8422452.30825  22287262.589
   9364880.128 6  -1796513.88025  23128242.851
   7686267.409 6  -2423242.31625  23262896.342
 92  8 27 21 53 59.9990000  0  6G 3G17G20G23G16G26
    701498.877 8 -16864964.55427  20277882.954
 -11516647.879 8 -15241141.82729  20267209.803
  11689646.044 6   9638585.23625  23590193.559
  -9513546.762 6  -8499766.98625  22268380.221
   9450061.284 6  -1730138.96725  23144452.509
   7621902.217 6  -2473396.87425  23250649.730
 92  8 27 21 54 29.9990000  0  6G 3G17G20G23G16G26
    690907.239 8 -16873217.75627  20275860.224
 -11552338.740 8 -15268952.84529  20260419.713
  11795236.998 6   9720863.63325  23610292.425
  -9612520.281 6  -8576889.05125  22249548.098
   9535483.704 6  -1663576.07025  23160707.016
   7557873.876 5  -2523288.96325  23238461.068
 92  8 27 21 54 59.9990000  0  6G 3G17G20G23G16G26
    680665.793 8 -16881198.09427  20273918.019
 -11587707.042 8 -15296512.54329  20253687.334
  11900878.837 6   9803181.67325  23630390.031
  -9711251.521 6  -8653822.31226  22230761.214
   9621134.572 6  -1596835.17025  23177004.214
   7494176.105 5  -2572923.44325  23226339.800
 92  8 27 21 55 29.9990000  0  6G 3G17G20G23G16G26
    670775.570 8 -16888904.76227  20272034.632
 -11622761.734 8 -15323827.84929  20247012.845
  12006568.410 6   9885536.92825  23650505.925
  -9809732.041 6  -8730560.23026  22212017.560
   9706995.397 6  -1529930.64625  23193356.274
   7430792.867 5  -2622312.95125  23214289.492
 92  8 27 21 55 59.9990000  0  6G 3G17G20G23G16G26
    661238.833 8 -16896335.97527  20270218.190
 -11657486.528 8 -15350886.08629  20240404.699
  12112303.702 6   9967927.83425  23670626.137
  -9907929.437 6  -8807077.51226  22193330.957
   9793058.324 6  -1462868.62525  23209726.381
   7367724.996 5  -2671456.59025  23202285.622
 92  8 27 21 56 29.9990000  0  6G 3G17G20G23G16G26
    652049.809 8 -16903496.23627  20268473.698
 -11691876.843 8 -15377683.68429  20233859.870
  12218075.008 6  10050346.73025  23690760.318
 -10005858.428 6  -8883385.65426  22174697.446
   9879320.761 6  -1395651.19325  23226137.799
   7304996.464 6  -2720335.82225  23190341.860
 92  8 27 21 56 59.9990000  0  6G 3G17G20G23G16G26
    643209.078 8 -16910385.11127  20266789.793
 -11725956.569 8 -15404239.29029  20227377.908
  12323878.768 6  10132790.97225  23710886.855
 -10103518.548 7  -8959484.30626  22156117.809
   9965782.546 6  -1328278.44425  23242593.198
   7242609.863 5  -2768948.63025  23178469.779
 92  8 27 21 57 29.9990000  0  6G 3G17G20G23G16G26
    634720.463 8 -16916999.60827  20265172.263
 -11759739.852 8 -15430563.88729  20220949.968
  12429714.751 6  10215260.33225  23731033.867
 -10200900.444 7  -9035366.16126  22137583.530
  10052451.943 6  -1260743.86425  23259079.264
   7180576.542 6  -2817286.14725  23166665.361
 92  8 27 21 57 59.9990000  0  6G 3G17G20G23G16G26
    626586.937 8 -16923337.40127  20263626.803
 -11793228.098 8 -15456658.58729  20214573.982
  12535581.648 6  10297753.71625  23751173.625
 -10298009.156 7  -9111035.14826  22119109.899
  10139338.857 6  -1193039.76925  23275615.397
   7118910.333 6  -2865337.60325  23154934.422
 92  8 27 21 58 29.9990000  0  6G 3G17G20G23G16G26
    618806.632 8 -16929399.96327  20262145.798
 -11826439.697 8 -15482537.70429  20208256.965
  12641473.327 6  10380266.43225  23771324.864
 -10394855.364 7  -9186499.59925  22100674.971
  10226434.731 6  -1125172.87925  23292192.331
   7057595.691 6  -2913115.09725  23143262.902
 92  8 27 21 58 59.9990000  0  6G 3G17G20G23G16G26
    611383.719 8 -16935184.03827  20260734.076
 -11859390.477 8 -15508213.59929  20201987.795
  12747389.915 6  10462798.54725  23791484.318
 -10491430.486 7  -9261752.78825  22082305.098
  10313731.925 6  -1057149.12125  23308803.861
   6996614.924 6  -2960632.50625  23131658.026
 92  8 27 21 59 29.9990000  0  6G 3G17G20G23G16G26
    604319.512 8 -16940688.60527  20259390.856
 -11892063.008 8 -15533672.66429  20195770.879
  12853328.548 6  10545347.83425  23811642.543
 -10587746.953 7  -9336804.44425  22063968.592
  10401235.711 6   -988964.34825  23325456.792
   6935979.441 6  -3007880.79825  23120126.749
 92  8 27 21 59 59.9990000  0  6G 3G17G20G23G16G26
    597613.713 8 -16945913.87027  20258112.331
 -11924447.135 8 -15558906.99929  20189607.506
  12959284.836 6  10627910.85225  23831801.817
 -10683816.315 7  -9411663.53826  22045683.711
  10488944.992 6   -920619.48125  23342145.669
   6875670.976 6  -3054874.33125  23108648.476
 92  8 27 22  0 29.9990000  0  6G 3G17G20G23G16G26
    591271.417 8 -16950855.92427  20256905.606
 -11956537.739 8 -15583912.60729  20183496.656
  13065259.706 6  10710488.36225  23851968.856
 -10779636.879 7  -9486328.75226  22027454.680
  10576870.078 6   -852106.47725  23358878.075
   6815696.630 6  -3101607.50025  23097231.809
 92  8 27 22  0 59.9990000  0  6G 3G17G20G23G16G26
    585292.461 8 -16955514.84627  20255770.832
 -11988325.109 8 -15608681.95729  20177450.981
  13171248.989 6  10793077.07325  23872140.181
 -10875212.673 7  -9560803.24226  22009264.833
  10665021.929 6   -783416.72525  23375654.281
   6756083.387 6  -3148059.19025  23085887.812
 92  8 27 22  1 29.9990000  0  6G 3G17G20G23G16G26
    579677.402 8 -16959890.20027  20254698.624
 -12019780.883 8 -15633192.90829  20171466.254
  13277249.189 6  10875674.33125  23892305.421
 -10970543.071 7  -9635086.50826  21991124.991
  10753403.030 6   -714548.31425  23392469.460
   6696837.067 6  -3194225.06225  23074615.796
 92  8 27 22  1 59.9990000  0  6G 3G17G20G23G16G26
    574426.913 8 -16963981.46427  20253698.876
 -12050899.832 8 -15657441.38729  20165546.043
  13383257.069 6  10958277.56025  23912490.807
 -11065603.405 7  -9709159.34626  21973038.602
  10841995.749 6   -645515.05425  23409331.587
   6637958.759 6  -3240104.10925  23063412.162
 92  8 27 22  2 29.9990000  0  6G 3G17G20G23G16G26
    569546.054 8 -16967784.72027  20252770.749
 -12081674.977 8 -15681421.97629  20159688.278
  13489272.965 6  11040887.09725  23932657.126
 -11160363.106 7  -9782997.93726  21955003.417
  10930790.209 6   -576324.57925  23426223.993
   6579477.942 6  -3285673.47325  23052284.645
 92  8 27 22  2 59.9990000  0  6G 3G17G20G23G16G26
    565036.641 8 -16971298.54127  20251916.400
 -12112103.844 8 -15705132.73329  20153894.039
  13595295.277 6  11123501.54025  23952836.966
 -11254814.110 7  -9856595.99226  21937035.866
  11019771.793 6   -506988.26625  23443165.834
   6521387.373 6  -3330938.67725  23041224.852
 92  8 27 22  3 29.9990000  0  6G 3G17G20G23G16G26
    560897.462 8 -16974523.84927  20251124.019
 -12142201.029 8 -15728585.04829  20148167.434
  13701318.474 6  11206116.66125  23973005.204
 -11348953.448 7  -9929951.20526  21919119.759
  11108924.792 6   -437518.42025  23460125.993
   6463669.543 6  -3375913.51025  23030241.715
 92  8 27 22  3 59.9990000  0  6G 3G17G20G23G16G26
    557126.301 8 -16977462.41427  20250406.945
 -12172001.155 8 -15751805.88929  20142495.151
  13807336.536 6  11288727.81225  23993187.502
 -11442781.898 7 -10003064.14926  21901258.424
  11198241.731 6   -367920.81625  23477122.097
   6406337.661 6  -3420587.54825  23019336.825
 92  8 27 22  4 29.9990000  0  6G 3G17G20G23G16G26
    553724.655 8 -16980113.03727  20249758.764
 -12201520.197 8 -15774807.68029  20136879.528
  13913347.113 5  11371333.15525  24013358.798
 -11536312.593 7 -10075945.09126  21883462.504
  11287732.307 6   -298187.90125  23494148.360
   6349382.857 6  -3464967.79325  23008494.231
 92  8 27 22  4 59.9990000  0  6G 3G17G20G23G16G26
    550698.368 8 -16982471.18127  20249185.261
 -12230766.786 8 -15797597.20129  20131316.340
  14019351.433 5  11453933.57825  24033526.706
 -11629555.628 7 -10148601.85026  21865718.478
  11377403.226 6   -228314.49725  23511214.675
   6292793.095 6  -3509063.63125  22997720.469
 92  8 27 22  5 29.9990000  0  6G 3G17G20G23G16G26
    548046.159 8 -16984537.82027  20248682.059
 -12259753.307 8 -15820184.08029  20125800.188
  14125344.618 5  11536525.36225  24053700.040
 -11722512.647 7 -10221035.76326  21848025.717
  11467251.335 6   -158302.97225  23528310.520
   6236579.494 6  -3552866.35225  22987024.894
 92  8 27 22  5 59.9990000  0  6G 3G17G20G23G16G26
    545770.145 8 -16986311.30527  20248247.030
 -12288469.118 8 -15842560.00029  20120335.602
  14231325.059 5  11619107.19525  24073871.845
 -11815184.497 7 -10293247.44026  21830392.194
  11557277.488 6    -88152.68625  23545439.761
   6180745.618 6  -3596373.13725  22976400.429
 92  8 27 22  6 29.9990000  0  6G 3G17G20G23G16G26
    543874.740 8 -16987788.24827  20247883.712
 -12316888.037 8 -15864704.57929  20114925.847
  14337292.792 5  11701679.09325  24094032.319
 -11907569.661 7 -10365235.74726  21812815.182
  11647489.288 6    -17857.82525  23562618.139
   6125287.043 6  -3639587.43525  22965851.542
 92  8 27 22  6 59.9990000  0  6G 3G17G20G23G16G26
    542356.712 8 -16988971.09727  20247594.832
 -12345004.561 8 -15886613.52129  20109576.380
  14443240.851 5  11784235.65125  24114193.241
 -11999671.752 7 -10437003.48326  21795288.776
  11737874.225 6     52572.00325  23579799.245
   6070221.922 6  -3682495.24525  22955372.536
 92  8 27 22  7 29.9990000  0  6G 3G17G20G23G16G26
    541224.756 8 -16989853.11727  20247379.881
 -12372792.330 8 -15908266.29829  20104287.322
  14549173.667 5  11866780.33725  24134348.798
 -12091477.617 7 -10508540.39626  21777817.621
  11828442.432 5    123144.64925  23597045.615
   6015573.978 6  -3725077.90825  22944970.727
 92  8 27 22  7 59.9990000  0  6G 3G17G20G23G16G26
    540469.554 8 -16990441.55727  20247237.179
 -12400246.303 8 -15929658.95429  20099067.395
  14655078.409 5  11949303.16424  24154495.481
 -12182988.580 7 -10579847.52426  21760401.807
  11919185.581 5    193853.62025  23614306.376
   5961331.869 6  -3767344.33625  22934652.441
 92  8 27 22  8 29.9990000  0  6G 3G17G20G23G16G26
    540096.995 8 -16990731.85327  20247166.308
 -12427374.257 8 -15950797.58329  20093902.811
  14760957.047 5  12031805.60424  24174651.037
 -12274187.747 7 -10650911.67526  21743054.167
  12010096.620 5    264693.35525  23631610.187
   5907502.912 6  -3809288.83225  22924401.007
 92  8 27 22  8 59.9990000  0  6G 3G17G20G23G16G26
    540110.264 8 -16990721.47127  20247167.388
 -12454199.714 8 -15971700.51329  20088798.844
  14866808.238 5  12114286.73124  24194793.913
 -12365070.612 7 -10721729.36226  21725751.105
  12101161.704 5    335653.10125  23648936.392
   5854088.761 6  -3850910.15825  22914247.816
 92  8 27 22  9 29.9990000  0  6G 3G17G20G23G16G26
    540506.582 8 -16990412.64127  20247244.344
 -12480731.593 8 -15992374.69129  20083747.401
  14972625.636 5  12196741.43825  24214928.874
 -12455634.705 7 -10792298.65626  21708523.022
  12192386.739 5    406737.59125  23666291.827
   5801070.410 6  -3892222.98825  22904161.299
 92  8 27 22  9 59.9990000  0  6G 3G17G20G23G16G26
    541290.461 8 -16989801.79727  20247393.761
 -12506983.471 8 -16012830.67629  20078753.068
  15078409.773 5  12279170.31825  24235058.948
 -12545894.277 7 -10862630.65226  21691345.874
  12283772.091 5    477946.95925  23683678.171
   5748441.438 6  -3933232.50025  22894140.346
 92  8 27 22 10 29.9990000  0  6G 3G17G20G23G16G26
    542462.443 8 -16988888.56427  20247617.316
 -12532958.443 8 -16033070.86429  20073812.429
  15184157.505 5  12361570.78725  24255185.155
 -12635856.482 7 -10932730.93626  21674223.407
  12375321.493 5    549284.12825  23701104.327
   5696204.581 6  -3973936.46225  22884195.451
 92  8 27 22 10 59.9990000  0  6G 3G17G20G23G16G26
    544024.116 8 -16987671.63527  20247913.781
 -12558629.429 8 -16053074.20729  20068928.030
  15289866.523 6  12443941.10425  24275300.209
 -12725533.487 7 -11002608.98926  21657156.972
  12467048.991 5    620760.06925  23718570.146
   5644363.906 6  -4014331.67225  22874330.930
 92  8 27 22 11 29.9990000  0  6G 3G17G20G23G16G26
    545977.346 8 -16986149.62027  20248286.483
 -12583960.807 8 -16072812.90829  20064101.761
  15395534.997 6  12526279.81425  24295412.626
 -12814923.236 7 -11072263.21426  21640149.926
  12558961.591 5    692380.26825  23736057.489
   5592921.126 6  -4054416.83425  22864543.936
 92  8 27 22 11 59.9990000  0  6G 3G17G20G23G16G26
    548323.630 8 -16984321.32827  20248734.853
 -12608953.088 8 -16092287.37629  20059346.963
  15501160.610 6  12608585.11025  24315514.250
 -12904022.745 7 -11141691.30826  21623194.114
  12651035.852 5    764126.47225  23753573.673
   5541892.807 6  -4094179.02325  22854832.788
 92  8 27 22 12 29.9990000  0  6G 3G17G20G23G16G26
    551062.592 8 -16982187.05027  20249253.673
 -12633607.940 8 -16111498.89629  20054658.059
  15606739.237 5  12690853.79725  24335607.120
 -12992810.656 7 -11210876.54626  21606298.441
  12743260.490 5    835989.80625  23771130.659
   5491294.065 6  -4133606.51825  22845209.780
 92  8 27 22 12 59.9990000  0  6G 3G17G20G23G16G26
    554195.529 8 -16979745.77227  20249846.123
 -12657939.229 8 -16130458.31529  20050030.343
  15712268.274 5  12773083.87525  24355692.225
 -13081278.775 7 -11279812.63226  21589466.983
  12835621.794 5    907959.61925  23788696.878
   5441128.950 6  -4172696.09825  22835664.269
 92  8 27 22 13 29.9990000  0  6G 3G17G20G23G16G26
    557724.946 8 -16976995.55627  20250517.748
 -12681982.803 8 -16149193.53129  20045453.831
  15817746.543 5  12855274.35225  24375760.632
 -13169419.459 7 -11348493.56226  21572692.606
  12928104.901 5    980024.39325  23806303.539
   5391403.971 6  -4211442.69325  22826196.823
 92  8 27 22 13 59.9990000  0  6G 3G17G20G23G16G26
    561650.605 8 -16973936.60127  20251267.829
 -12705771.166 8 -16167729.88429  20040926.575
  15923169.629 5  12937421.85325  24395809.612
 -13257233.837 7 -11416920.22126  21555977.497
  13020698.144 5   1052174.98925  23823922.222
   5342113.386 6  -4249850.84425  22816823.272
 92  8 27 22 14 29.9990000  0  6G 3G17G20G23G16G26
    565974.343 8 -16970567.41627  20252089.620
 -12729299.738 8 -16186063.78629  20036448.725
  16028536.091 5  13019525.20725  24415867.137
 -13344715.111 7 -11485087.30026  21539333.590
  13113410.967 5   1124418.78425  23841567.107
   5293246.765 6  -4287928.62625  22807516.995
 92  8 27 22 14 59.9990000  0  6G 3G17G20G23G16G26
    570699.753 8 -16966885.26927  20252991.756
 -12752548.601 8 -16204179.76029  20032023.878
  16133845.623 5  13101584.20125  24435908.443
 -13431866.418 7 -11552997.27926  21522747.932
  13206239.102 5   1196752.44525  23859241.431
   5244790.861 6  -4325686.39825  22798304.672
 92  8 27 22 15 29.9990000  0  6G 3G17G20G23G16G26
    575825.598 8 -16962891.08727  20253969.049
 -12775501.078 8 -16222064.77729  20027651.435
  16239092.904 5  13183594.70725  24455941.474
 -13518694.674 7 -11620655.55626  21506226.219
  13299177.514 5   1269171.93724  23876920.852
   5196740.844 6  -4363127.91425  22789155.876
 92  8 27 22 15 59.9990000  0  5G 3G17G23G16G26
    581354.561 8 -16958582.77527  20255015.295
 -12798123.947 8 -16239692.94729  20023350.313
 -13605184.900 7 -11688050.42926  21489769.382
  13392239.616 5   1341687.86423  23894632.740
   5149110.594 6  -4400242.25225  22780083.466
 92  8 27 22 16 29.9990000  0  4G 3G17G23G26
    587284.764 7 -16953961.83427  20256144.403
 -12820402.987 8 -16257053.19529  20019112.597
 -13691334.702 7 -11755180.03526  21473373.613
   5101918.625 6  -4437015.08725  22771104.622
 92  8 27 22 16 59.9990000  0  4G 3G17G23G26
    593619.507 8 -16949025.63827  20257352.237
 -12842340.750 8 -16274147.52729  20014935.049
 -13777142.568 7 -11822043.20026  21457047.935
   5055179.654 6  -4473434.94525  22762209.480
 92  8 27 22 17 29.9990000  0  4G 3G17G23G26
    600358.444 7 -16943774.51527  20258633.430
 -12863953.332 8 -16290988.47029  20010826.093
 -13862602.189 7 -11888634.98726  21440780.746
   5008910.815 6  -4509488.46125  22753403.287
 92  8 27 22 17 59.9990000  0  4G 3G17G23G26
    607503.059 8 -16938207.27127  20259993.229
 -12885256.834 8 -16307588.55629  20006767.323
 -13947706.345 7 -11954949.78027  21424592.763
   4963121.456 6  -4545168.39225  22744691.857
 92  8 27 22 18 29.9990000  0  4G 3G17G23G26
    615055.610 8 -16932322.14027  20261427.406
 -12906269.085 8 -16323961.70729  20002773.788
 -14032458.942 7 -12020990.64027  21408458.473
   4917797.740 6  -4580485.53125  22736073.304
 92  8 27 22 18 59.9990000  0  4G 3G17G23G26
    623018.495 8 -16926117.27527  20262946.544
 -12926990.904 8 -16340108.54829  19998827.260
 -14116848.045 7 -12086748.28827  21392401.139
   4872927.572 6  -4615449.20725  22727528.290
 92  8 27 22 19 29.9990000  0  4G 3G17G23G26
    631390.647 8 -16919593.51227  20264542.309
 -12947416.517 8 -16356024.58029  19994941.050
 -14200873.572 7 -12152222.61826  21376407.091
   4828501.101 6  -4650067.14625  22719080.498
 92  8 27 22 19 59.9990000  0  4G 3G17G23G26
    640172.288 8 -16912750.65927  20266209.725
 -12967548.421 8 -16371711.75729  19991113.480
 -14284539.030 7 -12217416.37226  21360488.352
   4784508.584 6  -4684346.92425  22710704.866
 92  8 27 22 20 29.9990000  0  4G 3G17G23G26
    649366.085 8 -16905586.64927  20267959.524
 -12987373.712 8 -16387159.98929  19987338.673
 -14367845.621 7 -12282330.50426  21344637.365
   4740944.701 6  -4718292.70325  22702422.200
 92  8 27 22 20 59.9990000  0  4G 3G17G23G26
    658971.038 7 -16898102.24327  20269784.300
 -13006889.432 8 -16402367.02729  19983624.065
 -14450809.115 7 -12346977.26327  21328852.183
   4697821.615 6  -4751895.04825  22694207.617
 92  8 27 22 21 29.9990000  0  4G 3G17G23G26
    668987.328 7 -16890297.34026  20271691.400
 -13026115.678 8 -16417348.49029  19979965.877
 -14533458.550 7 -12411379.30327  21313127.079
   4655147.293 6  -4785147.75225  22686091.636
 92  8 27 22 21 59.9990000  0  5G 3G17G23G21G26
    679418.753 8 -16882168.95326  20273680.433
 -13045058.773 8 -16432109.30729  19976361.832
 -14615800.575 7 -12475541.83127  21297452.700
  17407242.13915   -228557.02531  24458288.489
   4612931.287 6  -4818043.25625  22678057.258
 92  8 27 22 22 29.9990000  0  5G 3G17G23G21G26
    690268.502 8 -16873714.59126  20275738.748
 -13063716.693 8 -16446647.90629  19972813.369
 -14697829.252 7 -12539460.19927  21281842.807
  17289668.510 5   -320172.35622  24435918.396
   4571180.146 6  -4850576.52125  22670107.991
 92  8 27 22 22 59.9990000  0  5G 3G17G23G21G26
    701536.588 8 -16864934.23226  20277886.761
 -13082100.235 8 -16460972.74129  19969308.705
 -14779542.418 7 -12603132.72727  21266292.272
  17172161.358 5   -411736.07023  24413551.750
   4529896.867 6  -4882745.21425  22662259.094
 92  8 27 22 23 29.9990000  0  5G 3G17G23G21G26
    713223.466 8 -16855827.58526  20280112.091
 -13100206.571 8 -16475081.54429  19965864.929
 -14860914.211 7 -12666539.22227  21250808.921
  17054718.823 5   -503249.21423  24391209.027
   4489070.821 6  -4914557.62525  22654491.112
 92  8 27 22 23 59.9990000  0  5G 3G17G23G21G26
    725329.449 8 -16846394.34826  20282411.709
 -13118008.246 8 -16488952.95229  19962480.302
 -14941918.471 7 -12729659.31727  21235391.854
  16937347.851 5   -594706.84323  24368871.461
   4448699.948 6  -4946015.44925  22646806.802
 92  8 27 22 24 29.9990000  0  5G 3G17G23G21G26
    737857.568 8 -16836632.16226  20284797.637
 -13135497.131 8 -16502580.61329  19959148.529
 -15022533.900 7 -12792476.46627  21220053.633
  16820061.097 5   -686098.84724  24346542.559
   4408789.997 6  -4977114.04725  22639201.427
 92  8 27 22 24 59.9990000  0  5G 3G17G23G21G26
    750808.419 8 -16826540.59226  20287262.560
 -13152659.833 8 -16515954.13229  19955886.667
 -15102764.330 7 -12854993.60427  21204782.654
  16702841.012 5   -777438.89424  24324229.366
   4369352.489 6  -5007844.47725  22631704.787
 92  8 27 22 25 29.9990000  0  5G 3G17G23G21G26
    764178.510 8 -16816122.32626  20289808.458
 -13169488.073 8 -16529067.02929  19952681.166
 -15182607.461 7 -12917208.96127  21189589.502
  16585657.846 5   -868750.43523  24301926.726
   4330384.174 6  -5038209.31525  22624287.562
 92  8 27 22 25 59.9990000  0  4G 3G17G23G26
    777974.998 8 -16805371.82826  20292434.340
 -13185981.627 8 -16541919.13329  19949545.577
 -15262070.298 7 -12979127.96927  21174469.770
   4291902.823 6  -5068194.66025  22616961.653
 92  8 27 22 26 29.9990000  0  4G 3G17G23G26
    792195.910 8 -16794290.58526  20295138.378
 -13202153.077 8 -16554520.23429  19946463.920
 -15341162.185 7 -13040757.91827  21159420.848
   4253910.912 6  -5097798.73825  22609735.456
 92  8 27 22 26 59.9990000  0  4G 3G17G23G26
    806841.980 8 -16782878.05426  20297932.534
 -13218001.320 8 -16566869.49329  19943448.638
 -15419901.279 7 -13102112.98027  21144437.730
   4216399.922 6  -5127028.04125  22602596.348
 92  8 27 22 27 29.9990000  0  5G 3G17G23G21G26
    821913.867 8 -16771133.74526  20300797.500
 -13233541.582 8 -16578978.76329  19940490.855
 -15498274.243 7 -13163182.77527  21129521.766
   1039613.64115    -71406.98231  24212834.314
   4179358.425 6  -5155891.45125  22595547.778
 92  8 27 22 27 59.9990000  0  5G 3G17G23G21G26
    837414.144 8 -16759055.59226  20303742.721
 -13248784.038 8 -16590855.97929  19937590.333
 -15576292.839 7 -13223976.39827  21114672.896
    922718.824 5   -162494.26921  24190585.966
   4142794.521 6  -5184382.70525  22588595.681
 92  8 27 22 28 29.9990000  0  5G 3G17G23G21G26
    853348.772 8 -16746638.98126  20306777.490
 -13263726.443 8 -16602499.39729  19934750.849
 -15653958.193 7 -13284494.77527  21099895.017
    805932.010 5   -253496.79522  24168353.897
   4106702.143 6  -5212506.51825  22581723.418
 92  8 27 22 28 59.9990000  0  5G 3G17G23G21G26
    869713.923 7 -16733886.90926  20309888.557
 -13278381.560 8 -16613918.94629  19931958.852
 -15731265.784 7 -13344734.36127  21085188.338
    689244.490 5   -344421.87823  24146152.856
   4071068.428 6  -5240272.98225  22574942.832
 92  8 27 22 29 29.9990000  0  5G 3G17G23G21G26
    886511.740 8 -16720797.70926  20313086.293
 -13292749.800 8 -16625114.95029  19929223.875
 -15808202.428 7 -13404684.92127  21070543.057
    572662.495 5   -435264.68624  24123965.396
   4035909.570 6  -5267669.48925  22568254.882
 92  8 27 22 29 59.9990000  0  5G 3G17G23G21G26
    903742.483 7 -16707371.13626  20316366.682
 -13306817.869 8 -16636077.05029  19926547.418
 -15884783.529 7 -13464358.45327  21055973.893
    456189.302 5   -526022.67224  24101804.078
   4001235.897 6  -5294687.88825  22561651.234
 92  8 27 22 30 29.9990000  0  5G 3G17G23G21G26
    921404.089 8 -16693608.83126  20319727.325
 -13320581.180 8 -16646801.68929  19923929.571
 -15960991.677 7 -13523741.33527  21041468.045
    339808.460 5   -616708.68024  24079656.940
   3967039.451 6  -5321334.35225  22555145.108
 92  8 27 22 30 59.9990000  0  5G 3G17G23G21G26
    939500.007 7 -16679508.11826  20323168.913
 -13334027.293 8 -16657279.15229  19921364.516
 -16036801.455 7 -13582813.80027  21027043.441
    223513.614 5   -707327.80124  24057526.231
   3933341.549 6  -5347592.32225  22548737.344
 92  8 27 22 31 29.9990000  0  5G 3G17G23G21G26
    958029.836 8 -16665069.29126  20326696.541
 -13347147.289 8 -16667502.50229  19918872.671
 -16112222.011 7 -13641582.99527  21012693.185
    107301.865 5   -797882.16425  24035414.649
   3900157.178 6  -5373450.18625  22542418.019
 92  8 27 22 31 59.9990000  0  6G 3G17G23G28G21G26
    976995.022 8 -16650291.20426  20330310.209
 -13359955.828 8 -16677483.15829  19916438.387
 -16187242.941 7 -13700040.77427  20998412.002
    574612.98915   -109649.87131  24416328.278
     -8842.897 5   -888384.26124  24013314.878
   3867477.512 6  -5398914.76925  22536199.903
 92  8 27 22 32 29.9990000  0  6G 3G17G23G28G21G26
    996396.447 8 -16635173.20626  20334000.115
 -13372464.724 8 -16687230.34329  19914058.064
 -16261849.211 7 -13758175.46127  20984220.307
    457321.217 5   -201045.61421  24394011.817
   -124934.497 5   -978844.85325  23991221.493
   3835305.643 6  -5423983.71825  22530078.531
 92  8 27 22 32 59.9990000  0  6G 3G17G23G28G21G26
   1016235.818 8 -16619713.95026  20337770.784
 -13384681.740 8 -16696750.06929  19911731.525
 -16336055.245 7 -13815998.26527  20970095.405
    340034.798 5   -292437.80921  24371692.179
   -240965.541 5  -1069258.32025  23969138.361
   3803659.436 6  -5448643.02825  22524052.703
 92  8 27 22 33 29.9990000  0  6G 3G17G23G28G21G26
   1036513.329 8 -16603913.28126  20341633.220
 -13396622.033 8 -16706054.17729  19909460.567
 -16409876.969 7 -13873521.59227  20956048.719
    222772.283 5   -383811.04222  24349376.437
   -356928.201 5  -1159618.52625  23947065.631
   3772529.657 6  -5472899.93425  22518126.166
 92  8 27 22 33 59.9990000  0  6G 3G17G23G28G21G26
   1057227.418 7 -16587772.42426  20345569.975
 -13408295.104 8 -16715150.04229  19907236.527
 -16483320.827 7 -13930750.48427  20942073.025
    105547.262 5   -475154.96023  24327058.778
   -472811.114 5  -1249916.47825  23925028.158
   3741907.850 6  -5496760.96425  22512307.704
 92  8 27 22 34 29.9990000  0  5G 3G17G23G21G26
   1078381.228 8 -16571288.93826  20349596.158
 -13419684.768 8 -16724025.09329  19905072.565
 -16556400.011 7 -13987695.25327  20928165.233
   -588582.251 5  -1340127.39925  23902987.356
   3711804.391 6  -5520218.09925  22506579.179
 92  8 27 22 34 59.9980000  0  5G 3G17G23G21G26
   1099976.687 8 -16554461.31526  20353706.972
 -13430778.443 8 -16732669.49129  19902958.279
 -16629118.910 7 -14044359.26827  20914328.192
   -704228.576 5  -1430241.14825  23880976.774
   3682212.522 6  -5543276.62425  22500944.550
 92  8 27 22 35 29.9980000  0  6G 3G17G23G28G21G26
   1122015.293 8 -16537288.36326  20357902.148
 -13441564.875 8 -16741074.48629  19900908.118
 -16701467.577 7 -14100734.76927  20900561.842
    -17568.85615    -21296.23431  24260197.864
   -819754.900 5  -1520261.41025  23859000.967
   3653113.252 6  -5565951.32725  22495413.229
 92  8 27 22 35 59.9980000  0  6G 3G17G23G28G21G26
   1144494.869 8 -16519771.81626  20362177.608
 -13452032.232 8 -16749230.84829  19898917.076
 -16773428.447 7 -14156808.07627  20886866.453
   -134689.760 5   -112555.97621  24237902.090
   -935161.152 5  -1610187.97525  23837033.255
   3624510.104 6  -5588239.43425  22489966.570
 92  8 27 22 36 29.9980000  0  6G 3G17G23G28G21G26
   1167416.568 8 -16501910.74926  20366542.406
 -13462167.126 8 -16757128.15529  19896987.072
 -16844985.121 7 -14212566.46927  20873254.527
   -251803.914 5   -203812.56521  24215610.452
  -1050455.844 5  -1700027.65025  23815090.576
   3596398.434 6  -5610144.56425  22484621.600
 92  8 27 22 36 59.9980000  0  6G 3G17G23G28G21G26
   1190786.214 8 -16483700.64126  20370989.617
 -13471956.686 8 -16764756.38229  19895123.623
 -16916112.036 7 -14267989.97127  20859715.899
   -368905.430 6   -295060.31922  24193332.784
  -1165647.355 5  -1789786.92425  23793177.036
   3568786.464 6  -5631660.28325  22479358.204
 92  8 27 22 37 29.9980000  0  6G 3G17G23G28G21G26
   1214599.930 7 -16465144.48426  20375519.691
 -13481407.974 8 -16772120.97729  19893326.067
 -16986806.608 7 -14323076.56827  20846259.295
   -485985.020 5   -386291.07522  24171042.166
  -1280730.883 5  -1879462.14325  23771277.977
   3541682.291 6  -5652780.31025  22474203.393
 92  8 27 22 37 59.9980000  0  6G 3G17G23G28G21G26
   1238858.151 7 -16446241.96426  20380135.056
 -13490526.558 8 -16779226.36529  19891588.979
 -17057077.260 7 -14377832.82827  20832891.729
   -603032.688 5   -477497.06822  24148761.590
  -1395707.802 6  -1969054.29325  23749402.811
   3515087.613 6  -5673503.35925  22469148.292
 92  8 27 22 38 29.9980000  0  6G 3G17G23G28G21G26
   1263557.954 7 -16426995.37826  20384834.003
 -13499320.930 8 -16786079.10829  19889916.377
 -17126943.255 7 -14432273.77627  20819595.154
   -720050.726 5   -568679.72522  24126503.619
  -1510583.207 5  -2058567.18525  23727532.621
   3488990.593 6  -5693838.67125  22464178.183
 92  8 27 22 38 59.9980000  0  6G 3G17G23G28G21G26
   1288702.965 7 -16407401.86026  20389616.742
 -13507810.209 8 -16792694.10929  19888301.725
 -17196412.626 7 -14486405.69827  20806376.255
   -837031.902 5   -659833.65723  24104253.113
  -1625361.114 5  -2148004.29725  23705695.109
   3463403.982 6  -5713776.23225  22459310.783
 92  8 27 22 39 29.9980000  0  6G 3G17G23G28G21G26
   1314298.319 7 -16387457.40426  20394491.158
 -13516003.375 8 -16799078.37829  19886740.226
 -17265489.008 8 -14540231.37527  20793231.585
   -953961.069 5   -750947.13823  24081992.174
  -1740033.903 5  -2237359.42125  23683867.580
   3438325.399 6  -5733317.89925  22454532.990
 92  8 27 22 39 59.9980000  0  6G 3G17G23G28G21G26
   1340342.961 7 -16367162.88926  20399448.706
 -13523907.750 8 -16805237.60629  19885236.977
 -17334173.196 8 -14593751.45427  20780159.645
  -1070843.613 5   -842024.36924  24059752.910
  -1854607.952 6  -2326637.61225  23662069.940
   3413756.953 6  -5752462.04825  22449857.607
 92  8 27 22 40 29.9980000  0  6G 3G17G23G28G21G26
   1366838.560 7 -16346516.99326  20404490.375
 -13531524.455 8 -16811172.69029  19883785.832
 -17402457.849 8 -14646960.18127  20767167.359
  -1187675.657 5   -933062.10825  24037523.299
  -1969073.624 6  -2415831.46925  23640286.061
   3389712.817 6  -5771197.67725  22445292.697
 92  8 27 22 40 59.9980000  0  6G 3G17G23G28G21G26
   1393785.867 7 -16325519.08126  20409620.304
 -13538855.575 8 -16816885.23029  19882395.394
 -17470330.919 7 -14699848.21627  20754251.401
  -1304446.195 5  -1024052.01025  24015291.620
  -2083417.481 6  -2504930.35625  23618534.289
   3366204.803 6  -5789515.55925  22440813.408
 92  8 27 22 41 29.9980000  0  6G 3G17G23G28G21G26
   1421185.251 7 -16304168.90226  20414834.174
 -13545893.591 8 -16822369.37029  19881054.303
 -17537785.805 8 -14752410.40927  20741412.159
  -1421164.897 5  -1115001.47925  23993086.772
  -2197619.591 5  -2593918.80425  23596790.492
   3343223.995 6  -5807422.63425  22436441.355
 92  8 27 22 41 59.9980000  0  6G 3G17G23G28G21G26
   1449033.664 7 -16282468.85626  20420130.938
 -13552650.134 8 -16827634.20129  19879767.623
 -17604836.486 8 -14804657.62727  20728653.802
  -1537851.613 5  -1205926.03425  23970885.251
  -2311678.521 5  -2682795.67425  23575092.593
   3320766.851 6  -5824921.65125  22432156.391
 92  8 27 22 42 29.9980000  0  6G 3G17G23G28G21G26
   1477334.364 7 -16260416.38426  20425516.469
 -13559125.650 8 -16832680.04529  19878542.401
 -17671486.558 8 -14856592.67827  20715971.861
  -1654497.481 5  -1296818.79525  23948694.194
  -2425585.433 5  -2771554.01625  23553411.752
   3298829.724 6  -5842015.41825  22427990.745
 92  8 27 22 42 59.9980000  0  6G 3G17G23G28G21G26
   1506087.802 7 -16238011.08226  20430990.080
 -13565313.303 8 -16837501.55829  19877357.112
 -17737746.470 8 -14908223.69027  20703362.051
  -1771103.465 5  -1387680.43125  23926506.494
  -2539347.252 6  -2860199.31325  23531763.829
   3277412.135 6  -5858704.36125  22423911.259
 92  8 27 22 43 29.9980000  0  6G 3G17G23G28G21G26
   1535294.445 7 -16215252.66526  20436551.050
 -13571204.420 8 -16842092.03829  19876237.357
 -17803626.484 8 -14959558.70127  20690823.921
  -1887673.247 5  -1478514.03224  23904305.514
  -2652967.795 5  -2948734.56125  23510152.240
   3256510.050 6  -5874991.63525  22419940.658
 92  8 27 22 43 59.9980000  0  6G 3G17G23G28G21G26
   1564951.369 7 -16192143.39626  20442185.080
 -13576792.691 8 -16846446.51229  19875175.852
 -17869131.806 8 -15010601.75727  20678361.368
  -2004188.828 5  -1569305.20425  23882145.215
  -2766455.559 5  -3037166.35725  23488546.707
   3236141.322 6  -5890863.37925  22416057.836
 92  8 27 22 44 29.9980000  0  6G 3G17G23G28G21G26
   1595060.650 7 -16168681.60726  20447919.090
 -13582051.671 8 -16850544.40229  19874171.817
 -17934245.144 8 -15061339.35127  20665971.036
  -2120628.143 5  -1660036.94625  23859985.096
  -2879813.556 5  -3125497.02125  23466980.148
   3216317.163 6  -5906310.71325  22412283.539
 92  8 27 22 44 59.9980000  0  6G 3G17G23G28G21G26
   1625620.567 7 -16144868.66726  20453735.933
 -13586971.795 8 -16854378.23729  19873236.015
 -17998948.786 8 -15111757.69527  20653656.521
  -2236994.106 5  -1750711.59025  23837847.402
  -2993037.648 5  -3213723.33925  23445424.800
   3197033.303 6  -5921337.02925  22408616.927
 92  8 27 22 45 29.9980000  0  6G 3G17G23G28G21G26
   1656632.180 7 -16120703.77426  20459635.249
 -13591560.615 8 -16857953.93329  19872359.961
 -18063223.584 8 -15161841.87028  20641426.068
  -2353286.180 5  -1841328.60425  23815715.253
  -3106120.107 5  -3301839.31025  23423909.265
   3178290.027 6  -5935942.10525  22405052.635
 92  8 27 22 45 59.9980000  0  6G 3G17G23G28G21G26
   1688100.716 7 -16096182.85526  20465624.383
 -13595817.556 8 -16861271.01929  19871552.141
 -18127045.356 8 -15211573.06327  20629285.493
  -2469496.502 5  -1931881.93225  23793594.647
  -3219060.726 5  -3389844.81525  23402420.052
   3160097.275 6  -5950118.24625  22401590.122
 92  8 27 22 46 29.9980000  0  6G 3G17G23G28G21G26
   1720024.193 7 -16071307.41026  20471704.444
 -13599759.796 8 -16864342.87629  19870806.017
 -18190408.705 8 -15260947.03827  20617224.932
  -2585640.780 5  -2022383.82025  23771495.656
  -3331854.739 5  -3477735.98025  23380956.740
   3142429.018 6  -5963885.72825  22398224.982
 92  8 27 22 46 59.9980000  0  6G 3G17G23G28G21G26
   1752402.995 7 -16046077.18926  20477863.080
 -13603408.602 8 -16867186.07429  19870109.689
 -18253318.333 8 -15309967.47227  20605249.782
  -2701724.314 6  -2112838.34825  23749412.914
  -3444505.503 5  -3565515.56425  23359524.877
   3125282.485 6  -5977246.61225  22394965.398
 92  8 27 22 47 29.9980000  0  6G 3G17G23G28G21G26
   1785238.540 7 -16020491.06826  20484107.487
 -13606770.607 8 -16869805.81129  19869470.652
 -18315796.401 8 -15358651.59528  20593366.009
  -2817745.172 6  -2203243.83125  23727328.672
  -3557021.467 5  -3653190.12725  23338107.315
   3108653.444 6  -5990204.25725  22391794.673
 92  8 27 22 47 59.9980000  0  6G 3G17G23G28G21G26
   1818528.776 7 -15994550.61826  20490444.770
 -13609854.867 8 -16872209.11529  19868883.388
 -18377855.131 8 -15407008.99928  20581553.857
  -2933701.030 6  -2293598.76224  23705262.808
  -3669408.263 6  -3740764.02525  23316725.217
   3092533.971 6  -6002764.89025  22388729.955
 92  8 27 22 48 29.9980000  0  6G 3G17G23G28G21G26
   1852275.992 7 -15968254.07226  20496865.545
 -13612652.927 8 -16874389.40329  19868349.938
 -18439508.709 8 -15455050.69328  20569818.331
  -3049586.328 6  -2383898.93124  23683212.773
  -3781647.774 6  -3828223.18425  23295359.128
   3076921.413 6  -6014930.53525  22385763.538
 92  8 27 22 48 59.9980000  0  6G 3G17G23G28G21G26
   1886480.452 7 -15941601.25126  20503373.500
 -13615136.164 8 -16876324.38629  19867878.844
 -18500764.148 8 -15502782.16628  20558167.467
  -3165377.763 5  -2474125.84025  23661179.316
  -3893742.593 6  -3915569.54625  23274035.820
   3061834.312 6  -6026686.64525  22382890.058
 92  8 27 22 49 29.9980000  0  6G 3G17G23G28G21G26
   1921142.360 7 -15914591.97926  20509971.782
 -13617295.720 8 -16878007.13629  19867465.700
 -18561614.845 8 -15550198.21628  20546582.917
  -3281076.607 6  -2564280.66025  23639160.430
  -4005683.595 5  -4002796.02625  23252737.035
   3047279.989 6  -6038027.63425  22380118.566
 92  8 27 22 49 59.9980000  0  6G 3G17G23G28G21G26
   1956263.074 7 -15887225.19326  20516653.766
 -13619128.342 8 -16879435.13729  19867117.910
 -18622040.833 8 -15597283.35028  20535083.118
  -3396669.067 5  -2654352.49225  23617162.738
  -4117453.697 6  -4089889.32825  23231461.874
   3033280.588 6  -6048936.29625  22377452.272
 92  8 27 22 50 29.9980000  0  6G 3G17G23G28G21G26
   1991843.220 7 -15859500.39626  20523426.737
 -13620619.147 8 -16880596.77729  19866834.307
 -18682040.326 8 -15644036.15628  20523668.700
  -3512151.087 5  -2744338.38325  23595185.103
  -4229046.206 6  -4176844.31425  23210225.145
   3019842.558 6  -6059407.45425  22374897.741
 92  8 27 22 50 59.9980000  0  6G 3G17G23G28G21G26
   2027882.496 7 -15831417.85926  20530280.772
 -13621788.911 8 -16881508.27429  19866611.351
 -18741597.647 8 -15690444.41028  20512336.365
  -3627529.893 6  -2834243.97824  23573229.563
  -4340480.276 6  -4263675.84025  23189015.968
   3006966.422 6  -6069440.73525  22372444.479
 92  8 27 22 51 29.9980000  0  6G 3G17G23G28G21G26
   2064381.167 7 -15802977.35726  20537227.293
 -13622668.421 8 -16882193.59029  19866443.168
 -18800710.780 8 -15736506.52428  20501085.364
  -3742829.289 6  -2924087.54024  23551289.821
  -4451750.151 6  -4350379.49425  23167845.524
   2994650.139 6  -6079037.81725  22370103.640
 92  8 27 22 51 59.9980000  0  6G 3G17G23G28G21G26
   2101335.831 7 -15774181.50226  20544260.664
 -13623264.044 8 -16882657.69229  19866331.465
 -18859391.112 8 -15782231.38928  20489921.483
  -3858052.581 5  -3013871.77325  23529360.363
  -4562854.009 5  -4436953.70525  23146697.205
   2982884.183 6  -6088206.08025  22367865.929
 92  8 27 22 52 29.9980000  0  6G 3G17G23G28G21G26
   2138748.078 7 -15745029.12326  20551383.373
 -13623571.015 8 -16882896.87129  19866270.697
 -18917641.576 8 -15827621.31128  20478836.686
  -3973203.473 5  -3103599.54725  23507453.748
  -4673797.840 6  -4523403.20325  23125590.767
   2971650.519 6  -6096959.57325  22365726.400
 92  8 27 22 52 59.9980000  0  6G 3G17G23G28G21G26
   2176620.084 7 -15715518.48426  20558590.294
 -13623596.386 8 -16882916.64629  19866269.977
 -18975465.932 8 -15872679.21128  20467830.346
  -4088275.123 6  -3193265.62125  23485554.869
  -4784588.610 6  -4609733.46825  23104515.417
   2960946.683 6  -6105300.14725  22363690.629
 92  8 27 22 53 29.9980000  0  6G 3G17G23G28G21G26
   2214952.242 7 -15685649.26426  20565878.848
 -13623322.183 8 -16882702.96629  19866320.073
 -19032871.446 8 -15917410.71528  20456908.517
  -4203244.808 6  -3282852.22925  23463676.195
  -4895210.481 6  -4695932.14625  23083452.388
   2950777.984 6  -6113223.76525  22361754.929
 92  8 27 22 53 59.9980000  0  6G 3G17G23G28G21G26
   2253745.552 7 -15655420.73226  20573258.929
 -13622735.897 8 -16882246.10029  19866434.683
 -19089848.005 8 -15961807.97728  20446067.362
  -4318090.926 5  -3372342.67225  23441818.447
  -5005666.355 6  -4782001.48325  23062441.164
   2941139.980 6  -6120733.91125  22359924.966
 92  8 27 22 54 29.9980000  0  6G 3G17G23G28G21G26
   2292997.608 7 -15624834.71626  20580731.076
 -13621844.368 8 -16881551.39129  19866602.717
 -19146388.295 8 -16005865.30428  20435304.783
  -4432799.349 6  -3461725.79925  23419994.006
  -5115964.935 6  -4867948.21325  23041449.486
   2932034.261 7  -6127829.23325  22358193.455
 92  8 27 22 54 59.9980000  0  6G 3G17G23G28G21G26
   2332712.498 7 -15593888.07126  20588293.611
 -13620657.206 8 -16880626.32129  19866829.090
 -19202489.341 8 -16049580.34328  20424632.891
  -4547366.943 6  -3550999.06425  23398193.997
  -5226095.555 6  -4953764.07525  23020490.516
   2923484.314 6  -6134491.46325  22356557.307
 92  8 27 22 55 29.9980000  0  6G 3G17G23G28G21G26
   2372887.747 7 -15562582.69626  20595937.959
 -13619177.644 8 -16879473.39829  19867109.007
 -19258138.519 8 -16092943.29628  20414044.821
  -4661809.680 5  -3640175.07925  23376407.900
  -5336038.793 6  -5039433.97325  22999570.009
   2915494.319 6  -6140717.36325  22355043.865
 92  8 27 22 55 59.9980000  0  6G 3G17G23G28G21G26
   2413526.584 7 -15530916.07126  20603673.474
 -13617408.599 8 -16878094.89729  19867441.806
 -19313320.220 8 -16135941.96028  20403539.014
  -4776128.866 5  -3729254.87325  23354663.533
  -5445793.249 6  -5124956.74225  22978685.777
   2908062.150 6  -6146508.67425  22353627.166
 92  8 27 22 56 29.9980000  0  6G 3G17G23G28G21G26
   2454627.938 7 -15498889.05926  20611484.086
 -13615350.186 8 -16876490.92629  19867838.761
 -19368043.701 8 -16178583.60628  20393127.342
  -4890324.006 5  -3818237.90225  23332921.295
  -5555354.207 6  -5210328.77025  22957834.702
   2901179.947 6  -6151871.44725  22352313.266
 92  8 27 22 56 59.9980000  0  6G 3G17G23G28G21G26
   2496189.362 7 -15466503.54326  20619402.025
 -13612993.918 8 -16874654.85429  19868284.673
 -19422325.396 8 -16220880.98828  20382798.023
  -5004412.633 6  -3907137.97425  23311219.828
  -5664718.929 5  -5295547.80925  22937028.925
   2894840.788 6  -6156811.00925  22351111.817
 92  8 27 22 57 29.9980000  0  6G 3G17G23G28G21G26
   2538209.306 7 -15433760.71926  20627396.201
 -13610321.092 8 -16872572.11729  19868794.230
 -19476169.865 8 -16262837.65828  20372547.879
  -5118389.872 6  -3995951.42525  23289527.446
  -5773896.522 6  -5380621.10425  22916258.165
   2889035.700 6  -6161334.39425  22350005.853
 92  8 27 22 57 59.9980000  0  6G 3G17G23G28G21G26
   2580686.744 7 -15400661.43226  20635477.856
 -13607335.346 8 -16870245.53629  19869361.377
 -19529596.744 8 -16304468.94328  20362383.175
  -5232229.891 5  -4084657.86425  23267859.826
  -5882901.729 6  -5465560.06025  22895501.584
   2883762.257 6  -6165443.58725  22349002.358
 92  8 27 22 58 29.9980000  0  6G 3G17G23G28G21G26
   2623627.680 7 -15367200.99026  20643648.190
 -13604028.918 8 -16867669.08429  19869988.603
 -19582622.363 8 -16345787.55628  20352291.532
  -5345927.930 6  -4173253.57425  23246231.119
  -5991717.344 6  -5550351.28025  22874791.471
   2879030.903 6  -6169130.34425  22348104.659
 92  8 27 22 58 59.9980000  0  6G 3G17G23G28G21G26
   2667030.959 7 -15333380.24826  20651906.273
 -13600400.107 8 -16864841.43129  19870681.843
 -19635243.705 8 -16386791.14828  20342280.742
  -5459486.212 6  -4261740.38525  23224610.357
  -6100341.022 6  -5634992.92825  22854125.428
   2874860.022 6  -6172380.31325  22347306.672
 92  8 27 22 59 29.9980000  0  6G 3G17G23G28G21G26
   2710892.447 7 -15299202.46026  20660256.572
 -13596461.530 8 -16861772.38729  19871429.945
 -19687448.135 8 -16427469.87328  20332346.729
  -5572894.258 6  -4350110.18225  23203043.197
  -6208774.213 6  -5719486.13725  22833489.004
   2871234.577 6  -6175205.27625  22346620.327
 92  8 27 22 59 59.9980000  0  6G 3G17G23G28G21G26
   2755215.763 7 -15264664.82426  20668690.393
 -13592218.123 8 -16858465.81529  19872235.488
 -19739227.488 8 -16467817.36128  20322496.269
  -5686141.993 6  -4438355.00625  23181495.495
  -6316996.126 6  -5803814.72725  22812904.895
   2868151.120 7  -6177607.93725  22346037.260
 92  8 27 23  0 29.9980000  0  6G 3G17G23G28G21G26
   2800000.422 7 -15229767.71626  20677212.264
 -13587656.580 8 -16854911.35929  19873107.344
 -19790566.617 8 -16507821.82528  20312721.895
  -5799258.975 6  -4526498.13525  23159962.512
  -6425008.921 6  -5887980.35725  22792343.959
   2865607.413 6  -6179590.07225  22345544.521
 92  8 27 23  0 59.9980000  0  6G 3G17G23G28G21G26
   2845246.594 7 -15194510.94526  20685822.123
 -13582781.186 8 -16851112.33529  19874036.071
 -19841443.492 8 -16547466.10228  20303041.537
  -5912247.287 6  -4614540.84425  23138459.538
  -6532834.283 6  -5971999.95025  22771830.180
   2863604.189 6  -6181150.97725  22345174.128
 92  8 27 23  1 29.9980000  0  6G 3G17G23G28G21G26
   2890951.018 7 -15158897.11026  20694520.302
 -13577602.194 8 -16847076.73929  19875019.660
 -19891854.767 8 -16586747.55828  20293446.170
  -6025105.605 6  -4702482.26425  23116988.492
  -6640483.354 6  -6055882.17025  22751342.393
   2862132.924 6  -6182297.38125  22344882.400
 92  8 27 23  1 59.9980000  0  6G 3G17G23G28G21G26
   2937115.362 7 -15122924.91225  20703302.062
 -13572114.063 8 -16842800.25729  19876062.338
 -19941808.605 8 -16625672.57228  20283940.920
  -6137829.083 6  -4790318.63025  23095535.464
  -6747954.234 6  -6139625.54125  22730891.421
   2861210.997 6  -6183015.78225  22344710.439
 92  8 27 23  2 29.9980000  0  6G 3G17G23G28G21G26
   2983745.152 7 -15086590.03325  20712175.919
 -13566322.244 8 -16838287.14129  19877168.752
 -19991293.552 8 -16664232.22428  20274524.109
  -6250404.581 6  -4878039.62425  23074109.297
  -6855255.724 6  -6223236.90525  22710471.897
   2860846.422 6  -6183299.87425  22344646.943
 92  8 27 23  2 59.9980000  0  6G 3G17G23G28G21G26
   3030833.998 7 -15049897.41925  20721139.504
 -13560243.260 8 -16833550.26629  19878322.774
 -20040329.396 8 -16702441.91828  20265193.399
  -6362814.148 6  -4965631.49825  23052715.297
  -6962379.164 6  -6306709.57825  22690084.811
   2861031.286 6  -6183155.76625  22344677.312
 92  8 27 23  3 29.9980000  0  6G 3G17G23G28G21G26
   3078383.552 7 -15012845.83125  20730184.512
 -13553875.381 8 -16828588.26429  19879536.064
 -20088934.657 8 -16740316.11428  20255948.788
  -6475051.962 6  -5053089.41625  23031365.068
  -7069294.275 6  -6390019.86525  22669741.435
   2861752.471 6  -6182593.76625  22344811.979
 92  8 27 23  3 59.9980000  0  6G 3G17G23G28G21G26
   3126396.232 7 -14975433.39925  20739324.135
 -13547218.372 8 -16823400.96829  19880802.297
 -20137111.753 8 -16777856.64128  20246778.197
  -6587122.895 6  -5140417.29325  23010036.843
  -7175986.241 6  -6473156.34025  22649437.781
   2863009.488 6  -6181614.31725  22345059.217
 92  8 27 23  4 29.9980000  0  6G 3G17G23G28G21G26
   3174867.784 7 -14937663.34925  20748546.680
 -13540284.496 8 -16817997.94229  19882118.806
 -20184862.257 8 -16815064.77328  20237689.629
  -6699046.664 6  -5227630.45925  22988739.557
  -7282451.826 6  -6556116.36325  22629179.635
   2864795.274 6  -6180222.78625  22345392.287
 92  8 27 23  4 59.9980000  0  6G 3G17G23G28G21G26
   3223799.431 7 -14899534.80325  20757860.212
 -13533061.094 8 -16812369.28629  19883495.093
 -20232186.490 8 -16851940.75528  20228682.814
  -6810828.719 6  -5314733.27225  22967472.280
  -7388676.704 6  -6638888.82025  22608964.180
   2867124.640 6  -6178407.65425  22345839.697
 92  8 27 23  5 29.9980000  0  6G 3G17G23G28G21G26
   3273193.217 7 -14861046.17825  20767256.008
 -13525542.772 8 -16806510.84229  19884924.593
 -20279065.284 8 -16888469.64828  20219764.199
  -6922463.087 6  -5401721.13125  22946224.969
  -7494673.902 6  -6721483.90725  22588792.884
   2870001.936 6  -6176165.61725  22346382.621
 92  8 27 23  5 59.9980000  0  6G 3G17G23G28G21G26
   3323047.538 7 -14822198.66125  20776744.799
 -13517726.989 8 -16800420.61329  19886412.103
 -20325479.227 8 -16924636.29728  20210930.304
  -7033943.414 6  -5488588.78125  22925008.417
  -7600467.901 6  -6803920.60925  22568657.324
   2873452.106 6  -6173477.18025  22347046.242
 92  8 27 23  6 29.9980000  0  6G 3G17G23G28G21G26
   3373360.016 7 -14782994.13625  20786315.103
 -13509602.760 8 -16794090.02329  19887960.172
 -20371435.542 8 -16960446.36528  20202188.416
  -7145252.560 6  -5575323.06025  22903825.352
  -7706071.644 6  -6886209.13525  22548574.647
   2877477.743 6  -6170340.29925  22347806.306
 92  8 27 23  6 59.9980000  0  6G 3G17G23G28G21G26
   3424132.334 7 -14743431.28925  20795984.549
 -13501154.059 8 -16787506.60629  19889564.661
 -20416926.609 8 -16995893.91528  20193527.712
  -7256371.876 6  -5661909.38625  22882687.885
  -7811487.113 6  -6968350.92325  22528505.790
   2882080.490 6  -6166753.68825  22348689.224
 92  8 27 23  7 29.9980000  0  6G 3G17G23G28G21G26
   3475359.820 7 -14703513.81325  20805729.543
 -13492386.156 8 -16780674.46429  19891233.576
 -20461951.962 8 -17030978.56728  20184965.909
  -7367298.044 6  -5748345.26625  22861575.151
  -7916717.261 6  -7050348.30225  22508483.521
   2887252.078 6  -6162723.91725  22349670.895
 92  8 27 23  7 59.9980000  0  6G 3G17G23G28G21G26
   3527043.533 7 -14663240.79825  20815564.804
 -13483302.665 8 -16773596.40629  19892961.819
 -20506521.218 8 -17065707.80128  20176479.174
  -7478033.863 6  -5834632.97125  22840500.401
  -8021734.886 6  -7132180.06725  22488494.379
   2892994.622 6  -6158249.20225  22350763.219
 92  8 27 23  8 29.9980000  0  6G 3G17G23G28G21G26
   3579187.043 7 -14622609.46725  20825484.247
 -13473905.707 8 -16766274.08829  19894752.599
 -20550638.317 8 -17100084.71628  20168086.904
  -7588565.095 6  -5920761.05325  22819463.844
  -8126517.558 6  -7213828.72725  22468565.886
   2899290.984 6  -6153342.90125  22351960.110
 92  8 27 23  8 59.9980000  0  6G 3G17G23G28G21G26
   3631787.320 7 -14581622.27925  20835497.645
 -13464213.190 8 -16758721.45929  19896599.051
 -20594297.247 8 -17134104.62928  20159776.597
  -7698903.496 6  -6006738.91025  22798475.704
  -8231056.156 6  -7295287.23425  22448662.394
   2906129.473 6  -6148014.18125  22353264.927
 92  8 27 23  9 29.9980000  0  6G 3G17G23G28G21G26
   3684845.117 7 -14540278.58025  20845591.507
 -13454240.623 8 -16750950.61329  19898493.140
 -20637508.452 8 -17167775.66628  20151554.579
  -7809044.849 6  -6092563.21125  22777512.776
  -8335355.424 6  -7376559.25125  22428815.174
   2913500.604 6  -6142270.44025  22354670.174
 92  8 27 23  9 59.9980000  0  6G 3G17G23G28G21G26
   3738362.237 7 -14498576.92425  20855777.676
 -13443987.988 8 -16742961.54629  19900446.048
 -20680280.385 8 -17201104.38928  20143418.961
  -7918986.686 6  -6178232.10125  22756599.044
  -8439416.183 6  -7457645.42125  22409008.996
   2921397.879 6  -6136116.72325  22356160.022
 92  8 27 23 10 29.9980000  0  6G 3G17G23G28G21G26
   3792339.306 7 -14456516.87225  20866047.906
 -13433447.940 8 -16734748.50029  19902452.919
 -20722606.723 8 -17234085.91128  20135361.379
  -8028726.384 6  -6263743.48425  22735705.549
  -8543251.297 6  -7538555.72925  22389254.771
   2929827.998 6  -6129547.71225  22357769.608
 92  8 27 23 10 59.9980000  0  6G 3G17G23G28G21G26
   3846770.522 7 -14414102.99225  20876405.855
 -13422614.057 8 -16726306.50829  19904513.092
 -20764490.622 8 -17266722.68328  20127389.238
  -8138274.599 6  -6349105.63525  22714863.137
  -8646863.821 6  -7619292.65225  22369541.589
   2938792.587 6  -6122562.27525  22359476.716
 92  8 27 23 11 29.9980000  0  6G 3G17G23G28G21G26
   3901655.521 7 -14371335.45225  20886845.798
 -13411473.836 8 -16717625.79329  19906632.805
 -20805930.407 8 -17299013.39128  20119504.637
  -8247619.473 6  -6434309.29125  22694058.980
  -8750247.384 6  -7699851.17925  22349860.873
   2948307.245 6  -6115148.25525  22361284.375
 92  8 27 23 11 59.9980000  0  6G 3G17G23G28G21G26
   3956997.324 7 -14328211.97625  20897380.355
 -13400007.209 8 -16708690.75129  19908811.247
 -20846918.868 8 -17330952.39228  20111705.476
  -8356755.146 6  -6519350.00025  22673289.958
  -8853382.486 6  -7780216.04025  22330234.750
   2958386.392 6  -6107294.36825  22363210.002
 92  8 27 23 12 29.9980000  0  6G 3G17G23G28G21G26
   4012795.167 7 -14284733.18225  20907994.087
 -13388202.401 8 -16699492.18429  19911063.228
 -20887451.690 8 -17362536.37828  20103991.157
  -8465681.611 6  -6604227.75825  22652559.609
  -8956267.639 6  -7860386.15525  22310664.808
   2969019.164 6  -6099009.05525  22365227.155
 92  8 27 23 12 59.9980000  0  6G 3G17G23G28G21G26
   4069046.211 7 -14240901.24025  20918704.562
 -13376064.789 8 -16690034.28529  19913369.651
 -20927534.554 8 -17393769.75528  20096366.295
  -8574396.920 6  -6688940.91725  22631872.311
  -9058912.617 6  -7940369.11225  22291129.732
   2980189.677 6  -6090304.71125  22367350.406
 92  8 27 23 13 29.9980000  0  6G 3G17G23G28G21G26
   4125753.584 7 -14196713.69225  20929495.202
 -13363598.071 8 -16680319.95829  19915738.761
 -20967175.848 8 -17424659.03528  20088818.750
  -8682901.577 6  -6773489.88425  22611221.707
  -9161323.669 6  -8020169.79425  22271637.526
   2991904.186 6  -6081176.49025  22369584.429
 92  8 27 23 13 59.9980000  0  6G 3G17G23G28G21G26
   4182911.567 7 -14152175.04625  20940371.672
 -13350814.884 8 -16670359.02229  19918178.232
 -21006383.130 8 -17455210.11328  20081356.766
  -8791204.412 6  -6857881.55425  22590615.652
  -9263523.338 6  -8099805.79925  22252190.289
   3004139.995 6  -6071642.13625  22371914.566
 92  8 27 23 14 29.9980000  0  6G 3G17G23G28G21G26
   4240524.273 7 -14107282.06825  20951336.552
 -13337721.005 8 -16660155.99529  19920666.659
 -21045145.291 8 -17485414.36428  20073981.632
  -8899299.244 6  -6942111.17125  22570044.823
  -9365518.458 6  -8179282.39525  22232782.775
   3016901.719 6  -6061697.90925  22374343.005
 92  8 27 23 14 59.9980000  0  6G 3G17G23G28G21G26
   4298587.846 7 -14062037.74525  20962389.989
 -13324337.852 8 -16649727.54229  19923215.315
 -21083461.656 8 -17515271.25328  20066688.101
  -9007174.044 6  -7026169.48025  22549513.297
  -9467318.680 6  -8258607.14725  22213408.148
   3030209.863 6  -6051327.89525  22376871.005
 92  8 27 23 15 29.9980000  0  6G 3G17G23G28G21G26
   4357101.891 7 -14016442.41825  20973514.178
 -13310670.092 8 -16639077.34029  19925816.944
 -21121327.897 8 -17544777.37828  20059489.934
  -9114824.235 6  -7110052.69525  22529028.718
  -9568904.920 6  -8337765.13825  22194075.072
   3044071.965 6  -6040526.21525  22379507.769
 92  8 27 23 15 59.9980000  0  6G 3G17G23G28G21G26
   4416063.230 7 -13970498.58025  20984738.708
 -13296718.019 8 -16628205.56929  19928469.178
 -21158735.040 8 -17573925.75328  20052366.685
  -9222251.051 6  -7193761.73825  22508585.600
  -9670268.862 6  -8416749.89325  22174789.393
   3058480.328 6  -6029298.93825  22382251.740
 92  8 27 23 16 29.9980000  0  6G 3G17G23G28G21G26
   4475473.728 7 -13924204.69325  20996045.920
 -13282478.990 8 -16617110.22429  19931178.612
 -21195683.183 8 -17602716.48628  20045338.621
  -9329455.628 6  -7277297.69425  22488192.338
  -9771397.931 6  -8495551.63225  22155547.364
   3073451.188 6  -6017633.30325  22385096.440
 92  8 27 23 16 59.9980000  0  6G 3G17G23G28G21G26
   4535335.234 7 -13877559.37425  21007433.536
 -13267948.707 8 -16605787.92529  19933945.307
 -21232174.188 8 -17631151.02528  20038390.331
  -9436438.482 6  -7360660.89125  22467826.238
  -9872275.276 6  -8574157.24025  22136347.486
   3088977.522 6  -6005534.81225  22388051.255
 92  8 27 23 17 29.9980000  0  6G 3G17G23G28G21G26
   4595645.078 7 -13830564.76025  21018908.812
 -13253125.863 8 -16594237.64029  19936764.225
 -21268211.280 8 -17659231.83428  20031534.048
  -9543216.418 6  -7443864.38525  22447506.844
  -9972881.761 6  -8652551.77425  22117207.806
   3105051.155 6  -5993009.90125  22391113.994
 92  8 27 23 17 59.9980000  0  6G 3G17G23G28G21G26
   4656404.724 7 -13783219.60725  21030474.835
 -13238006.876 8 -16582456.59529  19939642.623
 -21303795.096 8 -17686959.43228  20024765.903
  -9649779.105 6  -7526900.17325  22427228.643
 -10073219.752 6  -8730737.13325  22098111.206
   3121670.365 6  -5980059.87625  22394275.126
 92  8 27 23 18 29.9980000  0  6G 3G17G23G28G21G26
   4717616.668 7 -13735522.02225  21042122.162
 -13222596.361 8 -16570448.39929  19942573.304
 -21338925.565 8 -17714333.80628  20018078.792
  -9756105.136 6  -7609751.53425  22407000.746
 -10173285.689 6  -8808710.52425  22079069.588
   3138826.621 6  -5966691.32725  22397544.932
 92  8 27 23 18 59.9980000  0  6G 3G17G23G28G21G26
   4779278.891 7 -13687473.58725  21053853.131
 -13206903.835 8 -16558220.43029  19945557.888
 -21373602.243 8 -17741354.58028  20011481.170
  -9862178.038 6  -7692405.71725  22386815.450
 -10273067.861 6  -8886462.70525  22060082.053
   3156507.908 6  -5952913.63625  22400909.593
 92  8 27 23 19 29.9980000  0  6G 3G17G23G28G21G26
   4841385.159 7 -13639079.13525  21065675.326
 -13190933.589 8 -16545776.10529  19948598.533
 -21407830.944 8 -17768026.24928  20004965.181
  -9967990.242 6  -7774856.70225  22366680.549
 -10372584.630 6  -8964008.13825  22041139.217
   3174708.672 6  -5938731.21925  22404369.048
 92  8 27 23 19 59.9980000  0  6G 3G17G23G28G21G26
   4903937.338 7 -13590337.19425  21077579.156
 -13174678.573 8 -16533109.83429  19951693.380
 -21441614.770 8 -17794351.27928  19998535.322
 -10073527.824 6  -7857093.65525  22346596.313
 -10471858.790 6  -9041364.49725  22022254.361
   3193427.518 6  -5924145.12425  22407925.606
 92  8 27 23 20 29.9980000  0  6G 3G17G23G28G21G26
   4966935.094 7 -13541248.08325  21089565.757
 -13158144.195 8 -16520225.89729  19954837.723
 -21474952.120 8 -17820328.41428  19992193.243
 -10178793.428 6  -7939118.67625  22326563.821
 -10570893.858 6  -9118534.58625  22003405.689
   3212670.495 6  -5909150.57125  22411590.689
 92  8 27 23 20 59.9980000  0  6G 3G17G23G28G21G26
   5030377.570 7 -13491812.42425  21101640.139
 -13141325.239 8 -16507120.20529  19958039.567
 -21507839.376 8 -17845954.82428  19985936.514
 -10283796.750 6  -8020939.34425  22306580.915
 -10669696.880 6  -9195523.86225  21984602.616
   3232458.027 6  -5893731.65925  22415354.793
 92  8 27 23 21 29.9980000  0  6G 3G17G23G28G21G26
   5094264.787 7 -13442030.19625  21113797.382
 -13124213.940 8 -16493786.72729  19961295.912
 -21540270.812 8 -17871226.03728  19979764.447
 -10388549.172 6  -8102564.66625  22286647.025
 -10768272.770 6  -9272336.15725  21965846.701
   3252796.828 6  -5877883.22125  22419233.118
 92  8 27 23 21 59.9980000  0  6G 3G17G23G28G21G26
   5158595.582 7 -13391902.36725  21126041.386
 -13106810.844 8 -16480225.86429  19964607.000
 -21572249.506 8 -17896144.47128  19973676.981
 -10493054.960 6  -8183997.63925  22266759.753
 -10866599.734 6  -9348954.45925  21947134.855
   3273682.246 6  -5861608.90125  22423202.940
 92  8 27 23 22 29.9980000  0  6G 3G17G23G28G21G26
   5223367.935 7 -13341430.42725  21138363.485
 -13089106.160 8 -16466429.98829  19967976.008
 -21603769.424 8 -17920705.42928  19967682.451
 -10597309.775 6  -8265235.05325  22246924.675
 -10964654.450 6  -9425360.61825  21928473.494
   3295099.050 6  -5844920.46525  22427278.528
 92  8 27 23 22 59.9980000  0  6G 3G17G23G28G21G26
   5288578.025 7 -13290617.39225  21150772.795
 -13071080.882 8 -16452384.31629  19971406.833
 -21634831.626 8 -17944909.71428  19961770.124
 -10701314.347 6  -8346277.46325  22227130.907
 -11062434.709 6  -9501552.92525  21909864.776
   3317029.970 6  -5827831.36925  22431452.299
 92  8 27 23 23 29.9980000  0  6G 3G17G23G28G21G26
   5354223.965 7 -13239464.75625  21163262.178
 -13052722.702 8 -16438079.23829  19974901.184
 -21665447.824 8 -17968766.45128  19955945.396
 -10805058.871 6  -8427117.32125  22207389.244
 -11159926.139 6  -9577520.19525  21891312.120
   3339460.761 6  -5810352.76425  22435723.022
 92  8 27 23 23 59.9980000  0  6G 3G17G23G28G21G26
   5420307.891 7 -13187970.85925  21175837.633
 -13034020.500 8 -16423506.08329  19978462.388
 -21695625.677 7 -17992281.65128  19950200.054
 -10908528.624 6  -8507743.03725  22187697.826
 -11257138.297 6  -9653269.85425  21872811.748
   3362395.240 6  -5792481.73025  22440085.782
 92  8 27 23 24 29.9980000  0  6G 3G17G23G28G21G26
   5486827.980 7 -13136137.01525  21188497.538
 -13014980.504 8 -16408669.69529  19982082.172
 -21725362.111 8 -18015452.88428  19944541.861
 -11011723.050 6  -8588154.19225  22168062.859
 -11354087.537 6  -9728814.61225  21854370.344
   3385853.921 6  -5774202.27325  22444544.235
 92  8 27 23 24 59.9980000  0  6G 3G17G23G28G21G26
   5553783.919 7 -13083963.59825  21201234.821
 -12995621.548 8 -16393584.81228  19985766.202
 -21754660.413 8 -18038282.69228  19938970.038
 -11114641.709 6  -8668350.43825  22148478.557
 -11450777.485 6  -9804157.29825  21835966.925
   3409860.761 6  -5755495.61025  22449112.143
 92  8 27 23 25 29.9980000  0  6G 3G17G23G28G21G26
   5621177.079 7 -13031449.50525  21214063.629
 -12975960.992 8 -16378264.89128  19989507.972
 -21783525.896 8 -18060775.24928  19933470.705
 -11217281.534 6  -8748329.54025  22128944.501
 -11547205.680 6  -9879296.04025  21817622.774
   3434437.320 6  -5736344.99825  22453800.088
 92  8 27 23 25 59.9980000  0  6G 3G17G23G28G21G26
   5689005.462 7 -12978596.23225  21226966.097
 -12956016.502 8 -16362723.71229  19993304.333
 -21811946.087 8 -18082920.83928  19928070.394
 -11319648.561 7  -8828095.96725  22109467.794
 -11643382.440 6  -9954238.89825  21799317.237
   3459581.454 6  -5716752.22025  22458581.478
 92  8 27 23 26 29.9980000  0  6G 3G17G23G28G21G26
   5757268.414 6 -12925404.34925  21239961.740
 -12935798.632 8 -16346969.52028  19997148.212
 -21839902.777 8 -18104705.25428  19922742.003
 -11421743.044 6  -8907650.02225  22090037.495
 -11739291.946 6 -10028973.53025  21781063.054
   3485282.913 6  -5696725.13425  22463466.716
 92  8 27 23 26 59.9980000  0  6G 3G17G23G28G21G26
   5825963.674 6 -12871875.61725  21253034.730
 -12915312.043 8 -16331005.95328  20001053.159
 -21867394.144 8 -18126127.05428  19917512.633
 -11523563.393 6  -8986990.44025  22070662.808
 -11834933.443 6 -10103499.27825  21762861.874
   3511514.492 6  -5676284.89125  22468462.727
 92  8 27 23 27 29.9980000  0  6G 3G17G23G28G21G26
   5895095.919 7 -12818006.36725  21266192.321
 -12894544.516 8 -16314823.46028  20005005.233
 -21894415.977 8 -18147183.02528  19912372.062
 -11625107.370 6  -9066115.57125  22051338.246
 -11930298.954 6 -10177809.95525  21744720.233
   3538265.125 6  -5655440.17625  22473547.237
 92  8 27 23 27 59.9980000  0  6G 3G17G23G28G21G26
   5964657.686 7 -12763802.42025  21279426.240
 -12873497.723 8 -16298423.34928  20009004.734
 -21920963.927 8 -18167869.73628  19907318.340
 -11726376.454 7  -9145026.51625  22032067.017
 -12025395.289 6 -10251910.88725  21726616.516
   3565513.874 6  -5634207.39925  22478730.199
 92  8 27 23 28 29.9980000  0  6G 3G17G23G28G21G26
   6034649.172 7 -12709263.62325  21292746.828
 -12852172.174 8 -16281806.04428  20013063.205
 -21947047.719 8 -18188194.73428  19902356.715
 -11827356.475 7  -9223712.15825  22012855.058
 -12120215.799 7 -10325796.92825  21708580.492
   3593266.887 6  -5612581.67625  22484016.829
 92  8 27 23 28 59.9980000  0  6G 3G17G23G28G21G26
   6105069.827 7 -12654390.44025  21306149.799
 -12830552.677 8 -16264959.67128  20017181.184
 -21972696.132 8 -18208180.47728  19897476.394
 -11928028.421 6  -9302157.77825  21993693.972
 -12214756.564 7 -10399465.00725  21690587.519
   3621524.221 6  -5590562.95125  22489399.483
 92  8 27 23 29 29.9980000  0  6G 3G17G23G28G21G26
   6175918.829 6 -12599183.43325  21319630.987
 -12808617.663 8 -16247867.46128  20021355.734
 -21997923.659 8 -18227838.28028  19892674.198
 -12028381.478 7  -9380354.90225  21974598.692
 -12309018.898 6 -10472916.08025  21672645.510
   3650297.857 6  -5568141.90225  22494865.988
 92  8 27 23 29 59.9980000  0  6G 3G17G23G28G21G26
   6247194.005 7 -12543644.33325  21333190.839
 -12786365.165 8 -16230527.83828  20025582.987
 -22022724.932 8 -18247163.93428  19887956.184
 -12128403.059 7  -9458293.71725  21955568.556
 -12403005.652 6 -10546152.41025  21654763.669
   3679588.768 6  -5545317.80225  22500447.374
 92  8 27 23 30 29.9980000  0  6G 3G17G23G28G21G26
   6318895.973 7 -12487772.75125  21346835.863
 -12763790.058 8 -16212936.86528  20029883.031
 -22047102.207 8 -18266159.17728  19883316.506
 -12228087.356 6  -9535969.72125  21936595.531
 -12496706.051 6 -10619165.65225  21636934.442
   3709396.592 6  -5522090.93625  22506117.169
 92  8 27 23 30 59.9980000  0  6G 3G17G23G28G21G26
   6391021.100 6 -12431571.36825  21360557.094
 -12740889.370 8 -16195092.15328  20034240.274
 -22071043.631 8 -18284814.81528  19878760.021
 -12327450.166 6  -9613395.21125  21917682.434
 -12590131.293 7 -10691964.49125  21619160.916
   3739712.175 6  -5498468.37725  22511889.103
 92  8 27 23 31 29.9980000  0  6G 3G17G23G28G21G26
   6463570.770 6 -12375039.18825  21374369.762
 -12717681.752 8 -16177008.29328  20038651.900
 -22094516.475 8 -18303105.34128  19874291.854
 -12426505.387 6  -9690581.12025  21898837.061
 -12683278.359 6 -10764546.54025  21601426.304
   3770541.359 6  -5474445.57925  22517753.374
 92  8 27 23 31 59.9980000  0  6G 3G17G23G28G21G26
   6536541.017 7 -12318179.29725  21388256.418
 -12694198.229 8 -16158709.42928  20043122.585
 -22117507.275 8 -18321020.22728  19869918.332
 -12525253.891 6  -9767527.89025  21880042.502
 -12776137.147 6 -10836903.92525  21583758.155
   3801873.360 6  -5450031.02625  22523707.642
 92  8 27 23 32 29.9980000  0  6G 3G17G23G28G21G26
   6609931.571 6 -12260991.90025  21402213.106
 -12670445.122 8 -16140200.51528  20047646.213
 -22140032.806 8 -18338572.55628  19865631.330
 -12623696.639 6  -9844236.43925  21861313.478
 -12868706.419 7 -10909035.74425  21566141.781
   3833710.180 6  -5425223.16525  22529766.297
 92  8 27 23 32 59.9980000  0  6G 3G17G23G28G21G26
   6683743.080 6 -12203476.43825  21416264.409
 -12646428.332 8 -16121486.12928  20052213.881
 -22162097.005 8 -18355765.42928  19861434.115
 -12721829.170 7  -9920703.31525  21842638.656
 -12960984.856 7 -10980940.96925  21548585.545
   3866067.579 6  -5400009.60825  22535932.549
 92  8 27 23 33 29.9980000  0  6G 3G17G23G28G21G26
   6757975.196 6 -12145633.25525  21430389.610
 -12622148.265 8 -16102566.58528  20056837.280
 -22183719.446 8 -18372614.07128  19857320.783
 -12819628.493 7  -9996910.53625  21824032.786
 -13052954.874 7 -11052605.82925  21531086.149
   3898951.328 6  -5374385.85825  22542188.048
 92  8 27 23 33 59.9980000  0  6G 3G17G23G28G21G26
   6832624.895 6 -12087464.75025  21444593.237
 -12597589.633 8 -16083430.00528  20061507.687
 -22204922.038 8 -18389135.55728  19853285.157
 -12917089.156 7 -10072853.84225  21805481.959
 -13144630.101 7 -11124041.00325  21513637.479
   3932362.217 6  -5348351.37125  22548548.894
 92  8 27 23 34 29.9980000  0  6G 3G17G23G28G21G26
   6907693.677 7 -12028969.61525  21458881.795
 -12572732.398 8 -16064060.72828  20066240.601
 -22225702.951 8 -18405328.46228  19849329.485
 -13014211.416 6 -10148533.42725  21787001.972
 -13236012.414 7 -11195247.91625  21496246.548
   3966295.342 6  -5321910.03325  22554989.965
 92  8 27 23 34 59.9980000  0  6G 3G17G23G28G21G26
   6983181.890 7 -11970147.65325  21473246.231
 -12547562.411 8 -16044447.75228  20071028.826
 -22246036.847 8 -18421173.05228  19845464.051
 -13110990.968 6 -10223946.10225  21768582.814
 -13327095.433 7 -11266221.60725  21478911.139
   4000739.278 6  -5295070.55225  22561552.902
 92  8 27 23 35 29.9980000  0  6G 3G17G23G28G21G26
   7059085.516 6 -11911002.06325  21487691.611
 -12522068.409 8 -16024582.29228  20075879.258
 -22265922.195 8 -18436668.11928  19841676.143
 -13207429.368 7 -10299092.84925  21750228.860
 -13417891.172 7 -11336971.50125  21461636.168
   4035667.558 6  -5267853.68225  22568205.357
 92  8 27 23 35 59.9980000  0  6G 3G17G23G28G21G26
   7135402.325 7 -11851534.45225  21502212.658
 -12496251.645 8 -16004465.33828  20080792.497
 -22285343.174 8 -18451801.32328  19837982.790
 -13303544.220 7 -10373987.42525  21731941.580
 -13508412.695 7 -11407507.67325  21444407.246
   4071074.302 6  -5240264.04325  22574939.505
 92  8 27 23 36 29.9980000  0  6G 3G17G23G28G21G26
   7212133.976 6 -11791743.60425  21516815.549
 -12470120.086 8 -15984103.08228  20085763.026
 -22304286.554 8 -18466562.40028  19834375.268
 -13399330.467 7 -10448626.01925  21713711.171
 -13598639.612 7 -11477814.28225  21427238.521
   4106966.072 6  -5212296.48525  22581774.683
 92  8 27 23 36 59.9980000  0  6G 3G17G23G28G21G26
   7289276.515 6 -11731632.59825  21531495.246
 -12443688.071 8 -15963506.70828  20090799.959
 -22322773.580 7 -18480967.87228  19830856.724
 -13494791.546 7 -10523011.26525  21695546.626
 -13688578.562 7 -11547896.49325  21410126.758
   4143358.969 6  -5183938.34225  22588692.394
 92  8 27 23 37 29.9980000  0  6G 3G17G23G28G21G26
   7366828.331 6 -11671202.65825  21546253.219
 -12416976.271 8 -15942692.31528  20095880.631
 -22340824.133 7 -18495033.21228  19827423.051
 -13589921.308 7 -10597138.29225  21677446.416
 -13778228.024 7 -11617753.16625  21393067.008
   4180266.538 6  -5155179.20025  22595722.407
 92  8 27 23 37 59.9980000  0  6G 3G17G23G28G21G26
   7444790.959 6 -11610452.61325  21561091.027
 -12389999.723 8 -15921671.63628  20101008.941
 -22358443.926 7 -18508762.92328  19824070.232
 -13684705.384 7 -10670995.93325  21659407.065
 -13867569.482 7 -11687369.82825  21376064.998
   4217700.365 6  -5126010.01325  22602840.049
 92  8 27 23 38 29.9980000  0  6G 3G17G23G28G21G26
   7523162.822 6 -11549383.72525  21576001.085
 -12362758.855 8 -15900444.99328  20106189.685
 -22375653.907 8 -18522173.29628  19820798.807
 -13779125.800 7 -10744570.26725  21641439.093
 -13956591.831 7 -11756737.82025  21359122.947
   4255650.709 6  -5096438.32425  22610065.228
 92  8 27 23 38 59.9980000  0  6G 3G17G23G28G21G26
   7601940.840 6 -11487998.26125  21590990.738
 -12335246.704 8 -15879006.94228  20111429.277
 -22392467.321 8 -18535274.62428  19817595.434
 -13873177.438 7 -10817857.22325  21623546.760
 -14045307.295 7 -11825866.68425  21342246.880
   4294095.906 6  -5066480.98025  22617384.331
 92  8 27 23 39 29.9980000  0  6G 3G17G23G28G21G26
   7681122.350 6 -11426298.39825  21606060.885
 -12307451.282 8 -15857348.17928  20116719.115
 -22408874.163 8 -18548059.16828  19814474.235
 -13966855.500 7 -10890853.02825  21605718.462
 -14133708.351 7 -11894750.55825  21325419.199
   4333010.792 6  -5036157.67625  22624783.478
 92  8 27 23 39 59.9980000  0  6G 3G17G23G28G21G26
   7760708.680 6 -11364283.18925  21621204.482
 -12279356.254 8 -15835455.96128  20122069.751
 -22424862.899 7 -18560517.92128  19811430.262
 -14060162.701 7 -10963559.89725  21587959.866
 -14221796.088 7 -11963390.29025  21308661.700
   4372393.077 6  -5005470.21925  22632279.099
 92  8 27 23 40 29.9980000  0  6G 3G17G23G28G21G26
   7840693.737 6 -11301957.20225  21636425.784
 -12250951.621 8 -15813322.48428  20127473.270
 -22440432.970 8 -18572650.43728  19808467.323
 -14153112.932 7 -11035988.64725  21570272.951
 -14309585.839 7 -12031797.81025  21291954.806
   4412245.827 6  -4974416.15225  22639858.632
 92  8 27 23 40 59.9980000  0  6G 3G17G23G28G21G26
   7921080.233 6 -11239318.42125  21651718.227
 -12222232.656 8 -15790944.06428  20132937.258
 -22455552.261 7 -18584431.67728  19805590.515
 -14245704.023 7 -11108137.46225  21552654.298
 -14397073.019 7 -12099969.57526  21275307.451
   4452583.012 6  -4942984.54325  22647542.942
 92  8 27 23 41 29.9980000  0  6G 3G17G23G28G21G26
   8001869.089 6 -11176366.13225  21667096.441
 -12193206.617 8 -15768326.37528  20138462.373
 -22470210.883 7 -18595853.96428  19802800.826
 -14337927.704 7 -11180000.01025  21535105.467
 -14484244.465 7 -12167895.31825  21258715.737
   4493431.236 6  -4911154.76225  22655318.150
 92  8 27 23 41 59.9980000  0  6G 3G17G23G28G21G26
   8083057.140 6 -11113102.75625  21682548.644
 -12163877.878 8 -15745472.81228  20144041.091
 -22484413.210 8 -18606920.72328  19800101.825
 -14429778.021 7 -11251571.68025  21517620.192
 -14571113.569 7 -12235585.49526  21242180.564
   4534800.703 6  -4878918.87425  22663186.053
 92  8 27 23 42 29.9980000  0  6G 3G17G23G28G21G26
   8164642.819 6 -11049529.53725  21698071.718
 -12134249.839 8 -15722386.03828  20149677.908
 -22498162.611 8 -18617634.51628  19797482.598
 -14521247.955 7 -11322846.89825  21500219.368
 -14657679.918 7 -12303039.72026  21225716.142
   4576688.565 6  -4846278.94825  22671157.954
 92  8 27 23 42 59.9980000  0  6G 3G17G23G28G21G26
   8246623.405 6 -10985648.63925  21713670.759
 -12104335.318 8 -15699076.05128  20155374.235
 -22511467.019 8 -18628001.58428  19794952.470
 -14612335.250 7 -11393823.94826  21482884.109
 -14743942.837 7 -12370257.53426  21209299.148
   4619077.626 6  -4813248.48825  22679223.900
 92  8 27 23 43 29.9980000  0  6G 3G17G23G28G21G26
   8328996.997 6 -10921461.45525  21729347.985
 -12074132.775 8 -15675541.61128  20161120.866
 -22524355.939 7 -18638044.88128  19792495.431
 -14703049.157 7 -11464510.05025  21465621.160
 -14829913.631 7 -12437247.73326  21192935.366
   4661950.221 6  -4779841.31325  22687382.992
 92  8 27 23 43 59.9980000  0  6G 3G17G23G28G21G26
   8411759.738 6 -10856971.02025  21745094.254
 -12043642.802 8 -15651783.19128  20166922.060
 -22536833.534 8 -18647767.68628  19790124.282
 -14793395.091 7 -11534909.47125  21448433.848
 -14915599.547 7 -12504015.90926  21176629.504
   4705276.665 6  -4746080.47125  22695624.406
 92  8 27 23 44 29.9980000  0  6G 3G17G23G28G21G26
   8494915.726 6 -10792174.25825  21760917.031
 -12012865.692 8 -15627801.02328  20172780.215
 -22548888.990 7 -18657161.50528  19787825.683
 -14883366.875 7 -11605017.29526  21431311.592
 -15000977.535 7 -12570544.13526  21160382.582
   4749051.887 6  -4711969.88825  22703948.683
 92  8 27 23 44 59.9980000  0  6G 3G17G23G28G21G26
   8578461.264 6 -10727073.85325  21776818.382
 -11981792.166 8 -15603587.92028  20178690.713
 -22560517.185 7 -18666222.43728  19785613.125
 -14972959.356 7 -11674829.55426  21414256.818
 -15086043.397 7 -12636829.16626  21144194.239
   4793266.685 6  -4677516.78225  22712368.894
 92  8 27 23 45 29.9980000  0  6G 3G17G23G28G21G26
   8662394.735 6 -10661671.16225  21792795.252
 -11950414.028 8 -15579137.41628  20184664.198
 -22571708.551 7 -18674942.98128  19783485.468
 -15062151.723 7 -11744330.08926  21397286.677
 -15170794.356 7 -12702868.83726  21128073.349
   4837931.322 6  -4642713.19525  22720873.646
 92  8 27 23 45 59.9980000  0  6G 3G17G23G28G21G26
   8746717.348 6 -10595965.29425  21808841.133
 -11918730.572 7 -15554449.03127  20190688.707
 -22582444.869 8 -18683308.91328  19781443.432
 -15150920.574 7 -11813500.57326  21380395.710
 -15255221.121 7 -12768655.86026  21112004.413
   4883065.248 6  -4607543.91425  22729459.583
 92  8 27 23 46 29.9980000  0  6G 3G17G23G28G21G26
   8831422.644 6 -10529961.24425  21824953.419
 -11886749.798 8 -15529528.93527  20196778.091
 -22592730.334 7 -18691323.54528  19779486.596
 -15239265.006 7 -11882340.32426  21363588.176
 -15339328.991 7 -12834194.40226  21095997.025
   4928681.178 6  -4571999.03125  22738135.306
 92  8 27 23 46 59.9980000  0  6G 3G17G23G28G21G26
   8916508.156 6 -10463660.84325  21841148.538
 -11854474.371 8 -15504379.26427  20202919.550
 -22602572.291 8 -18698992.61728  19777613.043
 -15327187.909 7 -11950851.65026  21346853.791
 -15423124.782 7 -12899489.76526  21080052.983
   4974790.310 6  -4536069.81225  22746908.733
 92  8 27 23 47 29.9980000  0  6G 3G17G23G28G21G26
   9001974.696 6 -10397063.65825  21857410.510
 -11821916.129 8 -15479009.23227  20209114.251
 -22611977.597 7 -18706321.41528  19775823.522
 -15414694.826 7 -12019038.84526  21330200.020
 -15506603.520 7 -12964538.08726  21064166.771
   5021391.192 6  -4499757.51125  22755781.690
 92  8 27 23 47 59.9980000  0  6G 3G17G23G28G21G26
   9087825.023 6 -10330167.34325  21873743.592
 -11789075.185 8 -15453418.86827  20215366.183
 -22620942.759 7 -18713307.23128  19774115.425
 -15501801.970 7 -12086914.47826  21313626.863
 -15589755.057 7 -13029331.43726  21048345.464
   5068473.423 6  -4463070.02625  22764741.078
 92  8 27 23 48 29.9980000  0  6G 3G17G23G28G21G26
   9174056.214 6 -10262974.24525  21890156.360
 -11755951.862 8 -15427608.50127  20221669.859
 -22629471.826 8 -18719953.25428  19772501.852
 -15588522.075 7 -12154488.55926  21297126.016
 -15672570.343 7 -13093862.73726  21032587.653
   5116022.916 6  -4426018.43625  22773788.244
 92  8 27 23 48 59.9980000  0  6G 3G17G23G28G21G26
   9260662.292 6 -10195489.03025  21906633.643
 -11722545.830 7 -15401577.81627  20228022.162
 -22637571.672 7 -18726264.82328  19770952.674
 -15674862.989 7 -12221767.18726  21280693.013
 -15755049.548 7 -13158132.21426  21016889.830
   5164008.863 6  -4388626.78525  22782919.743
 92  8 27 23 49 29.9980000  0  6G 3G17G23G28G21G26
   9347642.724 6 -10127712.18925  21923191.091
 -11688850.430 8 -15375321.66627  20234438.919
 -22645239.266 8 -18732239.53228  19769494.844
 -15760814.466 7 -12288742.30626  21264332.649
 -15837199.118 7 -13222144.80426  21001257.272
   5212415.195 6  -4350907.64725  22792130.297
 92  8 27 23 49 59.9980000  0  6G 3G17G23G28G21G26
   9434995.762 6 -10059644.90025  21939812.904
 -11654867.379 7 -15348841.37027  20240901.006
 -22652474.462 8 -18737877.34628  19768118.916
 -15846367.252 7 -12355406.76926  21248058.535
 -15919025.543 7 -13285905.58826  20985687.671
   5261262.125 6  -4312845.07825  22801435.705
 92  8 27 23 50 29.9980000  0  6G 3G17G23G28G21G26
   9522720.293 6  -9991288.25325  21956507.656
 -11620598.314 7 -15322138.21127  20247424.550
 -22659295.786 8 -18743192.64428  19766819.166
 -15931506.363 7 -12421748.92326  21231856.252
 -16000530.594 7 -13349415.95326  20970176.499
   5310556.317 6  -4274433.97325  22810807.097
 92  8 27 23 50 59.9980000  0  6G 3G17G23G28G21G26
   9610810.292 6  -9922646.76425  21973274.029
 -11586040.887 8 -15295210.33727  20254001.816
 -22665718.465 7 -18748197.33228  19765599.160
 -16016228.218 7 -12487765.89626  21215735.542
 -16081726.781 7 -13412685.68026  20954726.395
   5360301.145 6  -4235671.75925  22820277.031
 92  8 27 23 51 29.9980000  0  6G 3G17G23G28G21G26
   9699267.821 6  -9853718.83725  21990097.003
 -11551188.964 8 -15268052.99227  20260632.506
 -22671738.655 7 -18752888.36628  19764452.065
 -16100518.386 7 -12553446.50426  21199692.868
 -16162599.741 7 -13475703.52226  20939331.992
   5410532.531 6  -4196530.49325  22829833.035
 92  8 27 23 51 59.9980000  0  6G 3G17G23G28G21G26
   9788088.384 6  -9784508.12825  22006996.393
 -11516055.157 8 -15240676.02327  20267321.325
 -22677364.572 7 -18757272.19028  19763387.502
 -16184380.941 7 -12618793.92226  21183735.065
 -16243138.673 7 -13538461.05826  20924008.131
   5461257.836 6  -4157004.23725  22839479.427
 92  8 27 23 52 29.9980000  0  6G 3G17G23G28G21G26
   9877269.775 6  -9715016.18225  22023974.210
 -11480628.146 8 -15213070.56627  20274062.009
 -22682591.457 7 -18761345.08928  19762387.184
 -16267804.951 7 -12683799.61426  21167857.157
 -16323344.258 7 -13600958.85326  20908742.369
   5512449.344 6  -4117114.70125  22849228.828
 92  8 27 23 52 59.9980000  0  6G 3G17G23G28G21G26
   9966813.566 6  -9645241.87025  22041009.167
 -11444903.504 7 -15185233.17227  20280855.606
 -22687387.571 7 -18765082.30628  19761470.539
 -16350773.603 7 -12748450.45526  21152074.044
 -16403213.962 7 -13663194.94426  20893546.369
   5564101.269 6  -4076866.43425  22859052.068
 92  8 27 23 53 29.9980000  0  6G 3G17G23G28G21G26
  10056716.164 6  -9575188.00725  22058125.787
 -11408904.718 7 -15157182.17327  20287708.082
 -22691743.920 7 -18768476.85128  19760642.332
 -16433281.286 7 -12812742.08926  21136375.442
 -16482755.061 7 -13725174.94926  20878413.145
   5616196.529 6  -4036272.74225  22868962.966
 92  8 27 23 53 59.9980000  0  6G 3G17G23G28G21G26
  10146976.748 6  -9504855.12525  22075298.799
 -11372633.241 8 -15128918.69327  20294613.352
 -22695666.323 7 -18771533.25828  19759899.836
 -16515327.147 7 -12876673.91126  21120752.747
 -16561981.824 7 -13786910.01126  20863332.685
   5668708.537 6  -3995354.30825  22878960.925
 92  8 27 23 54 29.9980000  0  6G 3G17G23G28G21G26
  10237595.140 6  -9434243.48425  22092543.101
 -11336086.740 7 -15100440.90727  20301564.220
 -22699146.378 7 -18774244.98328  19759236.155
 -16596905.154 7 -12940241.13226  21105233.871
 -16640897.348 7 -13848402.56826  20848322.467
   5721625.957 6  -3954119.91525  22889030.624
 92  8 27 23 54 59.9980000  0  6G 3G17G23G28G21G26
  10328569.919 6  -9363354.14625  22109853.777
 -11299275.531 7 -15071756.85227  20308572.018
 -22702191.702 7 -18776617.95328  19758655.667
 -16678039.837 7 -13003462.90926  21089795.788
 -16719492.864 7 -13909645.80526  20833357.577
   5774964.469 6  -3912557.38425  22899181.267
 92  8 27 23 55 29.9970000  0  6G 3G17G23G28G21G26
  10419893.997 6  -9292192.55525  22127234.634
 -11262193.039 7 -15042861.42227  20315632.161
 -22704828.633 7 -18778672.69828  19758154.864
 -16758750.216 7 -13066354.08026  21074433.823
 -16797760.075 7 -13970633.19726  20818465.626
   5828731.875 6  -3870660.74825  22909411.325
 92  8 27 23 55 59.9970000  0  6G 3G17G23G28G21G26
  10511575.803 6  -9220752.32825  22144679.527
 -11224817.477 7 -15013737.61727  20322738.201
 -22707058.775 7 -18780410.48128  19757728.679
 -16839041.538 7 -13128918.73026  21059158.108
 -16875685.499 7 -14031354.24126  20803639.120
   5882937.764 6  -3828422.40225  22919722.147
 92  8 27 23 56 29.9970000  0  6G 3G17G23G28G21G26
  10603609.439 6  -9149037.85125  22162195.771
 -11187141.614 7 -14984379.81927  20329907.678
 -22708884.569 7 -18781833.15228  19757381.340
 -16918913.010 7 -13191156.18026  21043957.521
 -16953254.830 7 -14091797.82826  20788878.299
   5937589.395 6  -3785836.67525  22930123.596
 92  8 27 23 56 59.9970000  0  6G 3G17G23G28G21G26
  10695989.908 6  -9077053.11025  22179767.207
 -11149153.840 7 -14954778.94227  20337138.342
 -22710316.136 7 -18782948.64828  19757109.997
 -16998358.758 7 -13253061.91026  21028844.144
 -17030471.004 7 -14151966.24926  20774184.212
   5992695.783 6  -3742896.60825  22940613.844
 92  8 27 23 57 29.9970000  0  6G 3G17G23G28G21G26
  10788716.401 6  -9004798.81624  22197415.119
 -11110852.610 7 -14924933.86227  20344426.207
 -22711354.688 7 -18783757.91228  19756912.374
 -17077351.736 7 -13314614.89426  21013805.925
 -17107339.251 7 -14211863.53826  20759556.888
   6048244.611 6  -3699611.80425  22951176.131
 92  8 27 23 57 59.9970000  0  6G 3G17G23G28G21G26
  10881790.045 6  -8932273.93925  22215130.275
 -11072240.930 7 -14894846.83527  20351769.953
 -22711996.061 7 -18784257.68128  19756789.549
 -17155876.525 7 -13375802.99826  20998867.267
 -17183860.413 7 -14271490.37526  20744994.979
   6104227.949 6  -3655988.53725  22961830.186
 92  8 27 23 58 29.9970000  0  6G 3G17G23G28G21G26
  10975208.523 6  -8859480.39025  22232902.242
 -11033320.033 7 -14864518.86327  20359175.036
 -22712236.154 8 -18784444.73628  19756749.107
 -17233923.926 7 -13436619.09326  20984012.011
 -17260041.868 7 -14330852.52726  20730496.986
   6160654.608 6  -3612019.66525  22972571.450
 92  8 27 23 58 59.9970000  0  6G 3G17G23G28G21G26
  11068966.193 6  -8786422.59425  22250743.041
 -10994108.049 7 -14833964.09027  20366642.597
 -22712071.102 8 -18784316.12028  19756780.256
 -17311495.867 7 -13497064.76126  20969253.948
 -17335893.459 7 -14389957.61526  20716065.756
   6217504.245 6  -3567721.22325  22983395.756
 92  8 27 23 59 29.9970000  0  6G 3G17G23G28G21G26
  11163064.986 6  -8713098.92725  22268661.007
 -10954618.039 7 -14803192.67527  20374156.685
 -22711494.981 7 -18783867.20228  19756881.825
 -17388595.027 7 -13557142.00326  20954585.672
 -17411406.035 7 -14448798.54526  20701697.213
   6274762.126 6  -3523104.71425  22994284.128
 92  8 27 23 59 59.9970000  0  6G 3G17G23G28G21G26
  11257500.703 6  -8639512.82024  22286620.584
 -10914855.194 7 -14772208.63027  20381722.607
 -22710505.602 7 -18783096.22928  19757072.763
 -17465221.005 7 -13616850.50426  20940002.058
 -17486583.749 7 -14507378.52226  20687389.228
   6332425.737 6  -3478172.07525  23005267.535
 92  8 28  0  0 29.9970000  0  6G 3G17G23G28G21G26
  11352272.500 6  -8565664.65225  22304659.605
 -10874829.159 7 -14741019.51227  20389339.584
 -22709093.115 7 -18781995.58428  19757344.885
 -17541367.916 7 -13676185.75226  20925510.361
 -17561428.321 7 -14565698.91226  20673147.708
   6390482.270 6  -3432933.16725  23016309.790
 92  8 28  0  0 59.9970000  0  6G 3G17G23G28G21G26
  11447387.314 6  -8491549.31225  22322751.361
 -10834534.312 7 -14709620.94627  20397006.087
 -22707251.396 7 -18780560.46928  19757693.364
 -17617034.946 7 -13735147.04426  20911111.359
 -17635925.216 7 -14623748.38626  20658965.696
   6448930.082 6  -3387389.42725  23027430.172
 92  8 28  0  1 29.9970000  0  6G 3G17G23G28G21G26
  11542843.237 6  -8417168.20224  22340928.317
 -10793964.312 7 -14678007.96527  20404729.520
 -22704990.806 7 -18778798.98228  19758125.065
 -17692213.540 7 -13793727.74026  20896801.665
 -17710069.128 7 -14681522.81526  20644862.019
   6507790.497 6  -3341524.21425  23038627.510
 92  8 28  0  1 59.9970000  0  6G 3G17G23G28G21G26
  11638642.715 6  -8342519.29025  22359154.529
 -10753110.420 7 -14646173.75827  20412502.149
 -22702309.479 7 -18776709.61028  19758630.485
 -17766890.652 7 -13851917.66626  20882596.809
 -17783855.591 7 -14739018.70926  20630818.871
   6567080.646 6  -3295324.11525  23049921.232
 92  8 28  0  2 29.9970000  0  6G 3G17G23G28G21G26
  11734784.443 6  -8267603.81625  22377445.857
 -10711957.397 7 -14614106.47227  20420333.387
 -22699207.227 8 -18774292.25428  19759223.714
 -17841072.803 7 -13909721.92826  20868472.117
 -17857276.682 7 -14796229.92726  20616845.035
   6626808.169 6  -3248783.17625  23061273.173
 92  8 28  0  2 59.9970000  0  6G 3G17G23G28G21G26
  11831269.442 6  -8192420.73825  22395805.716
 -10670490.083 7 -14581794.29427  20428228.152
 -22695694.900 7 -18771555.37328  19759894.740
 -17914755.603 7 -13967137.04526  20854460.088
 -17930329.927 7 -14853154.49026  20602943.539
   6686992.919 6  -3201885.98525  23072729.172
 92  8 28  0  3 29.9970000  0  6G 3G17G23G28G21G26
  11928095.146 6  -8116972.23025  22414231.021
 -10628711.628 7 -14549239.66427  20436176.759
 -22691783.179 7 -18768507.27728  19760634.597
 -17987926.626 7 -14024153.39226  20840530.261
 -18003029.236 7 -14909803.24226  20589107.787
   6747627.042 6  -3154638.66125  23084273.010
 92  8 28  0  3 59.9970000  0  6G 3G17G23G28G21G26
  12025257.776 6  -8041261.24725  22432719.761
 -10586624.569 7 -14516444.54327  20444187.903
 -22687469.797 7 -18765146.18828  19761455.249
 -18060583.554 7 -14080769.17026  20826700.985
 -18075390.597 7 -14966188.71926  20575343.296
   6808684.907 6  -3107061.11225  23095885.651
 92  8 28  0  4 29.9970000  0  6G 3G17G23G28G21G26
  12122758.222 6  -7965286.90025  22451282.371
 -10544224.712 7 -14483405.71327  20452251.481
 -22682757.565 7 -18761474.30128  19762353.487
 -18132723.227 8 -14136981.87226  20812976.906
 -18147413.503 7 -15022310.40926  20561631.059
   6870157.260 6  -3059160.55525  23107588.589
 92  8 28  0  4 59.9970000  0  6G 3G17G23G28G21G26
  12220590.578 6  -7889054.05625  22469893.367
 -10501535.446 7 -14450141.36527  20460375.797
 -22677658.533 7 -18757501.04728  19763325.235
 -18204346.630 7 -14192792.26826  20799347.621
 -18219108.034 7 -15078176.23726  20547995.659
   6932028.347 6  -3010949.37325  23119372.442
 92  8 28  0  5 29.9970000  0  6G 3G17G23G28G21G26
  12318754.145 6  -7812563.02325  22488578.231
 -10458553.157 7 -14416648.67827  20468550.687
 -22672163.770 7 -18753219.40428  19764370.821
 -18275451.628 7 -14248198.78226  20785817.988
 -18290466.071 7 -15133779.87526  20534412.632
   6994294.053 6  -2962430.67425  23131208.398
 92  8 28  0  5 59.9970000  0  6G 3G17G23G28G21G26
  12417248.728 6  -7735814.05525  22507312.772
 -10415278.630 7 -14382928.25927  20476783.887
 -22666269.756 8 -18748626.66128  19765493.753
 -18346039.220 7 -14303202.06026  20772388.275
 -18361467.025 7 -15189105.25726  20520903.954
   7056955.700 6  -2913603.40325  23143132.313
 92  8 28  0  6 29.9970000  0  6G 3G17G23G28G21G26
  12516068.549 6  -7658811.73824  22526124.299
 -10371716.288 7 -14348983.61726  20485081.093
 -22659978.870 7 -18743724.66628  19766689.745
 -18416124.502 7 -14357813.90726  20759049.759
 -18432091.846 7 -15244137.56426  20507462.969
   7120021.836 6  -2864460.99525  23155140.140
 92  8 28  0  6 59.9970000  0  6G 3G17G23G28G21G26
  12615213.102 6  -7581556.30225  22544990.598
 -10327857.058 7 -14314807.60726  20493425.007
 -22653283.081 7 -18738507.16328  19767964.283
 -18485701.416 7 -14412029.70026  20745806.427
 -18502327.740 7 -15298866.78526  20494098.431
   7183491.548 6  -2815004.13425  23167217.279
 92  8 28  0  7 29.9970000  0  6G 3G17G23G28G21G26
  12714683.001 6  -7504047.36824  22563917.065
 -10283689.148 7 -14280391.07526  20501827.890
 -22646175.249 7 -18732968.56928  19769315.807
 -18554759.850 7 -14465841.44026  20732664.545
 -18572156.218 7 -15353278.54826  20480809.651
   7247362.576 6  -2765234.50125  23179372.065
 92  8 28  0  7 59.9970000  0  6G 3G17G23G28G21G26
  12814477.478 6  -7426285.55124  22582908.738
 -10239216.530 7 -14245737.07826  20510296.727
 -22638646.457 8 -18727101.96928  19770748.995
 -18623291.850 7 -14519242.95326  20719628.490
 -18641568.285 7 -15407365.84526  20467596.898
   7311637.199 6  -2715150.36325  23191592.924
 92  8 28  0  8 29.9970000  0  6G 3G17G23G28G21G26
  12914592.497 6  -7348273.89724  22601960.009
 -10194428.598 7 -14210837.43926  20518812.152
 -22630686.865 7 -18720899.70128  19772260.909
 -18691292.282 7 -14572230.29926  20706682.972
 -18710574.490 7 -15461136.87626  20454468.266
   7376316.150 6  -2664751.23725  23203916.583
 92  8 28  0  8 59.9970000  0  6G 3G17G23G28G21G26
  13015024.406 6  -7270015.46324  22621074.326
 -10149333.712 7 -14175698.56926  20527397.099
 -22622308.019 8 -18714370.71028  19773859.942
 -18758740.617 7 -14624787.43326  20693852.064
 -18779197.321 7 -15514609.19526  20441410.926
   7441393.344 6  -2614041.81125  23216291.026
 92  8 28  0  9 29.9970000  0  6G 3G17G23G28G21G26
  13115777.342 6  -7191506.72624  22640248.752
 -10103940.862 7 -14140327.52026  20536035.109
 -22613504.766 7 -18707511.02128  19775533.353
 -18825637.661 7 -14676914.97026  20681121.737
 -18847450.102 7 -15567793.15426  20428420.019
   7506883.810 6  -2563010.23325  23228750.221
 92  8 28  0  9 59.9970000  0  6G 3G17G23G28G21G26
  13216847.025 5  -7112751.29024  22659478.939
 -10058262.591 7 -14104734.09226  20544725.672
 -22604278.333 8 -18700321.59728  19777289.807
 -18891994.358 7 -14728621.44326  20668490.882
 -18915354.381 7 -15620705.53626  20415499.144
   7572786.228 6  -2511657.70225  23241296.235
 92  8 28  0 10 29.9970000  0  6G 3G17G23G28G21G26
  13318231.417 5  -7033750.51924  22678764.288
 -10012307.113 7 -14068924.63426  20553470.409
 -22594638.495 7 -18692810.03828  19779123.038
 -18957815.284 7 -14779910.48626  20655971.548
 -18982919.420 7 -15673353.56626  20402644.913
   7639088.531 6  -2459993.65325  23253909.134
 92  8 28  0 10 59.9970000  0  6G 3G17G23G28G21G26
  13419933.994 6  -6954501.80424  22698125.874
  -9966070.862 7 -14032896.39126  20562269.917
 -22584592.749 7 -18684982.16528  19781030.168
 -19023104.790 7 -14830785.38626  20643544.671
 -19050133.385 7 -15725728.08126  20389852.079
   7705783.736 6  -2408023.35525  23266603.246
 92  8 28  0 11 29.9970000  0  6G 3G17G23G28G21G26
  13521948.616 6  -6875010.10424  22717537.466
  -9919543.432 7 -13996641.27126  20571128.154
 -22574131.033 7 -18676830.17228  19783023.758
 -19087872.166 8 -14881253.43926  20631219.844
 -19116982.108 7 -15777817.95226  20377131.945
   7772856.785 6  -2355758.61825  23279368.768
 92  8 28  0 11 59.9970000  0  6G 3G17G23G28G21G26
  13624272.681 6  -6795277.13724  22737010.995
  -9872722.582 7 -13960157.49226  20580036.997
 -22563260.343 8 -18668359.49628  19785095.443
 -19152100.791 8 -14931301.72126  20618994.277
 -19183452.937 7 -15829613.35627  20364484.361
   7840302.974 6  -2303203.14825  23292204.322
 92  8 28  0 12 29.9970000  0  7G 3G17G11G23G28G21G26
  13726905.226 6  -6715303.83624  22756537.197
  -9825591.652 7 -13923432.10926  20589003.489
   -873342.74416   -281673.52431  23987665.655
 -22551992.367 7 -18659579.24028  19787240.099
 -19215767.826 8 -14980912.35526  20606879.544
 -19249533.093 8 -15881104.36326  20351911.095
   7908115.137 6  -2250362.58725  23305105.831
 92  8 28  0 12 59.9970000  0  7G 3G17G11G23G28G21G26
  13829844.908 6  -6635091.19224  22776125.966
  -9778136.680 7 -13886454.19326  20598037.975
   -992521.029 5   -374541.32922  23964983.627
 -22540334.379 7 -18650495.09828  19789459.312
 -19278861.778 8 -15030076.45026  20594875.315
 -19315222.223 8 -15932290.66426  20339413.947
   7976301.162 6  -2197230.58025  23318077.011
 92  8 28  0 13 29.9970000  0  7G 3G17G11G23G28G21G26
  13933087.284 6  -6554642.62824  22795780.929
  -9730377.489 7 -13849239.26826  20607124.085
  -1111659.231 5   -467376.18824  23942314.071
 -22528283.731 7 -18641104.98128  19791750.986
 -19341373.891 7 -15078787.19326  20582977.571
 -19380531.978 7 -15983181.34127  20326980.984
   8044867.422 6  -2143802.31325  23331121.161
 92  8 28  0 13 59.9970000  0  7G 3G17G11G23G28G21G26
  14036633.201 6  -6473957.69124  22815479.212
  -9682317.643 7 -13811790.06426  20616267.545
  -1230751.941 6   -560175.57425  23919652.999
 -22515853.661 7 -18631419.20928  19794118.597
 -19403303.027 7 -15127043.63926  20571193.869
 -19445467.725 7 -16033780.58727  20314625.457
   8113825.240 6  -2090069.03725  23344251.741
 92  8 28  0 14 29.9970000  0  7G 3G17G11G23G28G21G26
  14140477.940 6  -6393039.75624  22835230.409
  -9633951.770 7 -13774102.35926  20625470.214
  -1349799.614 6   -652939.91625  23896989.948
 -22503053.942 7 -18621445.39028  19796550.873
 -19464666.299 7 -15174859.12626  20559516.383
 -19510033.196 7 -16084091.33227  20302340.502
   8183164.529 5  -2036038.42725  23357438.472
 92  8 28  0 14 59.9970000  0  7G 3G17G11G23G28G21G26
  14244621.656 6  -6311888.98524  22855049.179
  -9585291.349 7 -13736185.14126  20634732.992
  -1468797.332 6   -745665.38525  23874352.440
 -22489877.161 7 -18611177.76228  19799058.157
 -19525479.331 8 -15222245.91026  20547944.634
 -19574229.675 8 -16134114.51527  20290124.229
   8252891.155 5  -1981705.98525  23370717.779
 92  8 28  0 15 29.9970000  0  7G 3G17G11G23G28G21G26
  14349062.340 6  -6230506.64924  22874930.725
  -9536343.690 7 -13698044.14226  20644045.535
  -1587742.854 6   -838350.10625  23851716.550
 -22476319.567 7 -18600613.39228  19801639.820
 -19585761.162 7 -15269218.73326  20536473.345
 -19638055.777 7 -16183849.09427  20277971.512
   8323003.650 5  -1927072.84825  23384063.670
 92  8 28  0 15 59.9970000  0  7G 3G17G11G23G28G21G26
  14453797.408 5  -6148895.03724  22894862.217
  -9487102.685 7 -13659674.52426  20653420.375
  -1706634.055 6   -930992.47825  23829095.770
 -22462395.088 7 -18589763.15428  19804288.486
 -19645517.863 7 -15315782.36526  20525102.008
 -19701503.308 7 -16233288.70927  20265901.808
   8393490.774 5  -1872147.94725  23397478.003
 92  8 28  0 16 29.9970000  0  7G 3G17G11G23G28G21G26
  14558819.736 5  -6067059.56424  22914842.545
  -9437576.864 7 -13621082.98326  20662839.614
  -1825473.508 6  -1023594.52925  23806477.479
 -22448093.851 7 -18578619.32628  19807008.713
 -19704737.990 8 -15361927.90626  20513834.128
 -19764567.510 8 -16282429.62027  20253903.155
   8464334.590 5  -1816944.95425  23410947.528
 92  8 28  0 16 59.9970000  0  7G 3G17G11G23G28G21G26
  14664130.207 6  -5984999.57524  22934885.949
  -9387764.190 7 -13582267.92826  20672324.268
  -1944256.061 6  -1116152.41225  23783877.174
 -22433397.895 7 -18567167.93828  19809808.265
 -19763405.163 7 -15407642.57526  20502670.337
 -19827235.635 7 -16331261.86827  20241974.952
   8535538.679 5  -1761461.19525  23424499.317
 92  8 28  0 17 29.9970000  0  7G 3G17G11G23G28G21G26
  14769722.128 6  -5902720.31924  22954983.915
  -9337662.614 7 -13543227.75026  20681853.711
  -2062983.704 6  -1208667.32825  23761279.538
 -22418311.027 7 -18555411.93828  19812680.667
 -19821499.284 7 -15452910.70127  20491614.890
 -19889510.308 7 -16379787.54727  20230124.426
   8607093.195 5  -1705704.33925  23438129.321
 92  8 28  0 17 59.9970000  0  7G 3G17G11G23G28G21G26
  14875598.692 6  -5820219.12224  22975131.587
  -9287267.475 7 -13503958.83026  20691442.902
  -2181648.387 5  -1301133.16625  23738690.477
 -22402825.740 7 -18543345.46028  19815627.027
 -19878986.444 7 -15497705.88227  20480674.294
 -19951377.865 8 -16427996.00227  20218352.866
   8678996.000 5  -1649675.89124  23451807.981
 92  8 28  0 18 29.9970000  0  7G 3G17G11G23G28G21G26
  14981756.770 6  -5737498.71724  22995334.661
  -9236570.727 7 -13464454.87126  20701087.076
  -2300248.864 5  -1393548.99325  23716128.876
 -22386933.280 7 -18530961.72028  19818644.408
 -19935860.859 7 -15542023.58726  20469849.778
 -20012835.705 8 -16475885.20127  20206658.082
   8751245.712 5  -1593377.40125  23465549.058
 92  8 28  0 18 59.9970000  0  7G 3G17G11G23G28G21G26
  15088190.787 5  -5654563.21724  23015580.725
  -9185581.431 7 -13424722.98926  20710792.167
  -2418785.955 5  -1485915.51825  23693581.095
 -22370658.433 7 -18518280.03128  19821746.151
 -19992148.312 7 -15585883.92427  20459140.382
 -20073901.117 8 -16523468.59327  20195037.077
   8823840.904 5  -1536809.68025  23479362.745
 92  8 28  0 19 29.9970000  0  7G 3G17G11G23G28G21G26
  15194899.295 5  -5571413.81824  23035884.589
  -9134307.676 7 -13384769.42026  20720553.140
  -2537256.814 6  -1578230.44725  23671030.287
 -22354005.453 7 -18505303.68328  19824912.079
 -20047848.552 8 -15629286.67327  20448541.489
 -20134587.089 7 -16570756.33327  20183489.941
   8896771.624 5  -1479980.56925  23493248.083
 92  8 28  0 19 59.9970000  0  7G 3G17G11G23G28G21G26
  15301882.129 5  -5488050.67124  23056245.983
  -9082738.103 7 -13344585.33626  20730362.499
  -2655656.512 6  -1670489.84825  23648504.391
 -22336965.962 7 -18492026.15028  19828157.842
 -20102965.339 8 -15672234.83126  20438054.180
 -20194894.277 7 -16617748.93027  20172015.444
   8970045.019 5  -1422884.55925  23507184.655
 92  8 28  0 20 29.9970000  0  7G 3G17G11G23G28G21G26
  15409137.519 6  -5404475.05623  23076659.781
  -9030868.693 7 -13304167.64226  20740236.073
  -2773982.187 6  -1762691.49225  23625981.583
 -22319543.147 7 -18478449.92128  19831475.315
 -20157502.422 7 -15714731.24127  20427671.497
 -20254834.323 8 -16664455.41827  20160605.523
   9043653.016 5  -1365527.63225  23521190.928
 92  8 28  0 20 59.9970000  0  7G 3G17G11G23G28G21G26
  15516659.989 6  -5320691.57923  23097123.824
  -8978703.137 7 -13263519.18526  20750162.441
  -2892234.948 5  -1854836.41125  23603479.551
 -22301738.630 7 -18464576.27528  19834860.362
 -20211445.642 7 -15756764.87327  20417407.293
 -20314431.049 8 -16710894.38227  20149265.304
   9117596.768 5  -1307909.10525  23535256.831
 92  8 28  0 21 29.9970000  0  7G 3G17G11G23G28G21G26
  15624452.423 6  -5236697.52924  23117634.485
  -8926220.013 7 -13222623.24226  20760148.828
  -3010406.814 5  -1946918.39725  23580993.588
 -22283536.819 7 -18450393.05128  19838322.215
 -20264765.719 8 -15798312.98327  20407265.224
 -20373667.581 8 -16757052.70127  20137995.266
   9191886.694 5  -1250020.99525  23549406.195
 92  8 28  0 21 59.9970000  0  7G 3G17G11G23G28G21G26
  15732514.928 5  -5152493.24723  23138193.682
  -8873412.730 7 -13181474.69926  20770196.912
  -3128493.038 6  -2038933.55825  23558518.987
 -22264948.264 7 -18435908.44628  19841861.625
 -20317471.003 8 -15839382.03627  20397233.689
 -20432538.402 7 -16802926.03427  20126790.553
   9266531.875 5  -1191855.87625  23563598.100
 92  8 28  0 22 29.9970000  0  7G 3G17G11G23G28G21G26
  15840846.258 6  -5068079.20224  23158811.818
  -8820294.223 7 -13140083.69226  20780308.822
  -3246490.175 6  -2130879.23325  23536065.701
 -22245986.905 7 -18421133.36128  19845470.347
 -20369566.895 8 -15879976.19327  20387321.861
 -20491033.475 7 -16848506.57427  20115657.880
   9341527.521 5  -1133417.63725  23577879.704
 92  8 28  0 22 59.9970000  0  7G 3G17G11G23G28G21G26
  15949442.063 6  -4983459.29123  23179471.236
  -8766876.234 7 -13098459.31026  20790463.302
  -3364397.487 6  -2222754.93925  23513623.447
 -22226648.988 7 -18406064.87528  19849147.931
 -20421068.168 7 -15920107.04327  20377519.397
 -20549139.881 8 -16893784.27127  20104602.943
   9416883.210 5  -1074698.92025  23592216.348
 92  8 28  0 23 29.9970000  0  7G 3G17G11G23G28G21G26
  16058300.018 6  -4898635.01724  23200190.642
  -8713169.539 7 -13056609.93726  20800692.430
  -3482212.885 6  -2314559.17525  23491217.948
 -22206955.393 7 -18390719.20028  19852899.833
 -20471998.372 8 -15959792.91027  20367828.786
 -20606835.875 8 -16938742.15127  20093624.693
   9492582.694 5  -1015712.50324  23606609.744
 92  8 28  0 23 59.9970000  0  7G 3G17G11G23G28G21G26
  16167415.841 6  -4813609.81624  23220958.975
  -8659189.612 7 -13014547.66426  20810959.962
  -3599935.737 5  -2406291.20625  23468802.736
 -22186912.152 7 -18375101.08728  19856711.005
 -20522367.775 8 -15999041.75127  20358244.301
 -20664123.971 8 -16983382.20327  20082721.901
   9568613.133 5   -956467.94025  23621086.362
 92  8 28  0 24 29.9970000  0  7G 3G17G11G23G28G21G26
  16276788.883 5  -4728384.15724  23241767.509
  -8604945.945 7 -12972279.89826  20821283.585
  -3717561.936 6  -2497947.84125  23446428.445
 -22166514.932 8 -18359207.15728  19860594.307
 -20572155.214 7 -16037837.13127  20348768.521
 -20720992.674 8 -17027695.44427  20071905.269
   9644971.825 5   -896967.61425  23635621.560
 92  8 28  0 24 59.9970000  0  7G 3G17G11G23G28G21G26
  16386418.299 5  -4642958.70124  23262632.285
  -8550428.646 7 -12929798.88926  20831660.002
  -3835087.379 6  -2589525.98625  23424065.337
 -22145750.479 7 -18343027.05028  19864545.241
 -20621351.616 8 -16076171.98427  20339407.951
 -20777451.383 8 -17071689.22327  20061154.412
   9721655.928 5   -837213.87824  23650223.251
 92  8 28  0 25 29.9970000  0  7G 3G17G11G23G28G21G26
  16496300.546 5  -4557336.39424  23283536.363
  -8495625.591 7 -12887095.20226  20842090.021
  -3952510.637 6  -2681024.57225  23401715.689
 -22124627.876 7 -18326567.85828  19868562.520
 -20669935.878 8 -16114029.82327  20330161.902
 -20833505.822 8 -17115367.97327  20050488.965
   9798658.961 5   -777211.58024  23664870.931
 92  8 28  0 25 59.9970000  0  7G 3G17G11G23G28G21G26
  16606435.306 5  -4471517.23424  23304489.967
  -8440531.058 7 -12844164.43426  20852571.185
  -4069827.453 6  -2772440.28625  23379393.832
 -22103122.948 7 -18309810.77028  19872656.876
 -20717890.328 8 -16151396.89027  20321039.097
 -20889163.753 8 -17158737.74827  20039896.968
   9875990.090 5   -716953.47625  23679591.520
 92  8 28  0 26 29.9970000  0  6G 3G17G11G23G28G21
  16716818.509 5  -4385504.54624  23325497.834
  -8385138.105 7 -12801001.12326  20863113.207
  -4187036.699 6  -2863772.06925  23357085.076
 -22081223.370 7 -18292746.16628  19876824.741
 -20765214.088 8 -16188272.55927  20312033.902
 -20944444.447 7 -17201813.60627  20029375.182
 92  8 28  0 26 59.9970000  0  6G 3G17G11G23G28G21
  16827455.667 5  -4299293.81824  23346561.462
  -8329427.689 7 -12757590.40526  20873715.218
  -4304128.204 6  -2955012.09325  23334807.139
 -22058915.396 7 -18275363.34528  19881067.703
 -20811903.962 7 -16224654.26427  20303142.687
 -20999352.601 8 -17244599.16227  20018928.704
 92  8 28  0 27 29.9970000  0  6G 3G17G11G23G28G21
  16938338.102 5  -4212892.15223  23367663.583
  -8273420.539 7 -12713948.47226  20884369.152
  -4421105.700 6  -3046163.38425  23312540.654
 -22036218.233 7 -18257677.22228  19885385.734
 -20857970.812 8 -16260550.46727  20294382.032
 -21053885.089 8 -17287091.99427  20008551.358
 92  8 28  0 27 59.9970000  0  6G 3G17G11G23G28G21
  17049461.394 5  -4126302.65123  23388809.564
  -8217126.243 7 -12670082.83026  20895083.615
  -4537968.253 6  -3137225.00825  23290309.244
 -22013125.208 8 -18239682.65628  19889781.771
 -20903438.425 7 -16295979.75427  20285726.784
 -21108051.540 8 -17329299.56927  19998244.823
 92  8 28  0 28 29.9970000  0  6G 3G17G11G23G28G21
  17160822.525 5  -4039527.44423  23409998.026
  -8160551.862 7 -12625998.89926  20905852.549
  -4654714.617 6  -3228196.06725  23268085.480
 -21989652.343 7 -18221392.12928  19894249.548
 -20948305.909 7 -16330941.43027  20277186.356
 -21161846.521 8 -17371217.71227  19988007.780
 92  8 28  0 28 59.9970000  0  6G 3G17G11G23G28G21
  17272420.788 5  -3952567.76123  23431218.895
  -8103704.135 7 -12581701.96426  20916673.648
  -4771340.432 6  -3319073.26425  23245893.193
 -21965827.551 8 -18202827.33928  19898784.628
 -20992567.347 7 -16365430.81827  20268764.137
 -21215237.582 8 -17412821.11227  19977848.713
 92  8 28  0 29 29.9970000  0  6G 3G17G11G23G28G21
  17384255.782 5  -3865423.42823  23452510.305
  -8046586.401 7 -12537194.68726  20927533.120
  -4887840.594 6  -3409852.53125  23223728.397
 -21941660.416 8 -18183995.79528  19903384.703
 -21036221.688 7 -16399447.17427  20260455.748
 -21268217.339 8 -17454103.98727  19967766.393
 92  8 28  0 29 59.9970000  0  6G 3G17G11G23G28G21
  17496313.653 5  -3778105.65523  23473841.348
  -7989197.940 7 -12492476.42826  20938455.219
  -5004224.228 6  -3500541.09925  23201584.048
 -21917157.798 7 -18164902.85028  19908041.560
 -21079261.321 8 -16432984.54927  20252269.406
 -21320799.411 8 -17495077.02627  19957761.809
 92  8 28  0 30 29.9970000  0  6G 3G17G11G23G28G21
  17608545.586 6  -3690651.94222  23495190.138
  -7931594.088 7 -12447590.32526  20949419.679
  -5120534.744 6  -3591172.54225  23179445.334
 -21892390.298 7 -18145603.51128  19912755.616
 -21121707.871 7 -16466059.77727  20244192.037
 -21373019.875 8 -17535768.25827  19947822.370
 92  8 28  0 30 59.9970000  0  6G 3G17G11G23G28G21
  17721040.292 5  -3602993.70222  23516602.305
  -7873669.606 6 -12402454.35426  20960440.859
  -5236679.182 6  -3681674.63325  23157342.206
 -21867271.120 7 -18126030.09828  19917535.717
 -21163471.448 8 -16498602.77127  20236243.430
 -21424792.742 8 -17576110.71827  19937972.569
 92  8 28  0 31 29.9970000  0  6G 3G17G11G23G28G21
  17833740.604 5  -3515175.24022  23538042.712
  -7815465.475 7 -12357100.51526  20971517.471
  -5352709.287 6  -3772087.68625  23135269.686
 -21841832.652 8 -18106207.91328  19922378.085
 -21204604.915 8 -16530654.83627  20228415.160
 -21476194.589 8 -17616164.08727  19928186.593
 92  8 28  0 31 59.9970000  0  6G 3G17G11G23G28G21
  17946734.264 5  -3427128.00522  23559554.979
  -7756883.087 6 -12311451.92326  20982660.966
  -5468532.089 6  -3862339.04925  23113223.488
 -21815981.085 7 -18086063.86628  19927292.343
 -21245005.359 8 -16562135.69127  20220728.691
 -21527141.677 8 -17655863.07727  19918489.537
 92  8 28  0 32 29.9970000  0  5G 3G17G11G23G28
  18060010.218 5  -3338861.40822  23581107.239
  -7697928.665 7 -12265513.41026  20993890.082
  -5584153.678 6  -3952433.72225  23091220.341
 -21789724.792 7 -18065604.40528  19932292.761
 -21284705.308 8 -16593070.67827  20213175.300
 92  8 28  0 32 59.9970000  0  6G 3G17G11G23G28G21
  18173509.071 5  -3250420.71422  23602701.260
  -7638645.367 7 -12219318.63526  21005163.718
  -5699628.524 6  -4042414.12025  23069247.832
 -21763097.647 8 -18044855.96828  19937361.292
 -21323773.938 8 -16623513.78727  20205740.417
  22637502.35417    -44244.80435  19899346.889
 92  8 28  0 33 29.9970000  0  6G 3G17G11G23G28G21
  18287227.764 5  -3161809.01622  23624345.556
  -7579046.172 7 -12172877.72426  21016505.676
  -5814954.236 6  -4132278.30525  23047313.667
 -21736084.764 8 -18023806.97228  19942499.045
 -21362212.486 8 -16653465.88327  20198426.860
  22587774.291 8    -82993.91725  19889884.869
 92  8 28  0 33 59.9970000  0  6G 3G17G11G23G28G21
  18401170.870 5  -3073022.23522  23646020.011
  -7519136.953 6 -12126195.23526  21027905.884
  -5930121.706 6  -4222019.10625  23025382.050
 -21708687.293 8 -18002458.29128  19947715.794
 -21400022.558 8 -16682928.23927  20191231.152
  22538460.723 8   -121420.05226  19880501.815
 92  8 28  0 34 29.9970000  0  6G 3G17G11G23G28G21
  18515329.886 5  -2984067.40522  23667748.609
  -7458934.086 7 -12079283.92326  21039360.384
  -6045133.659 6  -4311638.67925  23003505.834
 -21680908.760 8 -17980812.67228  19952999.336
 -21437214.545 8 -16711908.99927  20184153.351
  22489567.847 8   -159518.36126  19871196.977
 92  8 28  0 34 59.9970000  0  6G 3G17G11G23G28G21
  18629693.097 5  -2894953.26123  23689514.141
  -7398456.259 7 -12032158.36426  21050873.494
  -6159996.886 6  -4401142.41825  22981647.187
 -21652763.674 7 -17958881.42728  19958352.580
 -21473771.537 8 -16740394.96827  20177197.717
    187568.31818    -20006.44531  19861974.071
 92  8 28  0 35 29.9970000  0  6G 3G17G11G23G28G21
  18744274.537 5  -2805668.82722  23711321.823
  -7337694.675 7 -11984811.69625  21062438.587
  -6274692.490 6  -4490515.61625  22959822.176
 -21624252.648 7 -17936665.04528  19963781.102
 -21509672.488 7 -16768369.72027  20170361.819
    139515.155 8    -57443.22125  19852825.755
 92  8 28  0 35 59.9970000  0  6G 3G17G11G23G28G21
  18859057.990 5  -2716227.24822  23733158.226
  -7276663.190 7 -11937254.70826  21074051.558
  -6389231.242 6  -4579766.51925  22938021.118
 -21595417.876 8 -17914196.41727  19969269.582
 -21544922.769 8 -16795837.45227  20163659.449
     91861.062 8    -94576.24225  19843760.271
 92  8 28  0 36 29.9970000  0  6G 3G17G11G23G28G21
  18974023.583 5  -2626643.95623  23755038.009
  -7215374.359 7 -11889497.19926  21085711.506
  -6503627.770 6  -4668906.58425  22916252.708
 -21566281.876 8 -17891493.02128  19974815.623
 -21579528.273 8 -16822802.77427  20157073.129
     44574.074 8   -131423.23726  19834761.520
 92  8 28  0 36 59.9970000  0  5G 3G17G11G23G28
  19089207.365 5  -2536890.49223  23776961.022
  -7153789.855 7 -11841509.32125  21097429.583
  -6617840.843 6  -4757903.77925  22894522.012
 -21536820.617 8 -17868536.18828  19980419.104
 -21613458.695 8 -16849242.05927  20150619.287
 92  8 28  0 37 29.9970000  0  6G 3G17G11G23G28G21
  19204602.006 5  -2446972.76323  23798910.807
  -7091912.999 6 -11793293.59625  21109204.082
  -6731873.089 6  -4846760.00125  22872823.604
 -21507043.569 7 -17845333.29727  19986084.671
 -21646732.874 8 -16875169.96427  20144283.533
    156423.73918    -33661.83233  19816987.755
 92  8 28  0 37 59.9970000  0  6G 3G17G11G23G28G21
  19320192.945 5  -2356901.97323  23820909.997
  -7029755.809 6 -11744859.42925  21121027.957
  -6845733.082 6  -4935481.97425  22851148.849
 -21476945.615 8 -17821880.35427  19991815.774
 -21679369.181 8 -16900600.84027  20138072.972
    110302.860 8    -69600.09925  19808211.870
 92  8 28  0 38 29.9970000  0  6G 3G17G11G23G28G21
  19435970.187 5  -2266686.24623  23842942.704
  -6967330.666 6 -11696216.47425  21132914.698
  -6959425.935 6  -5024073.70625  22829513.487
 -21446519.045 8 -17798171.30927  19997603.237
 -21711380.364 8 -16925544.61427  20131980.230
     64574.093 8   -105232.89426  19799507.366
 92  8 28  0 38 59.9970000  0  6G 3G17G11G23G28G21
  19551935.001 5  -2176324.26923  23865010.667
  -6904639.616 6 -11647366.36225  21144842.570
  -7072945.278 6  -5112530.39425  22807921.025
 -21415752.637 8 -17774197.49527  20003459.383
 -21742770.997 8 -16950004.82727  20126008.784
     19249.659 8   -140550.62326  19790881.708
 92  8 28  0 39 29.9970000  0  6G 3G17G11G23G28G21
  19668087.860 5  -2085815.71823  23887108.969
  -6841681.241 7 -11598307.88126  21156821.018
  -7186285.350 6  -5200847.22925  22786341.634
 -21384625.667 8 -17749942.71827  20009381.663
 -21773529.601 7 -16973972.54227  20120154.377
    -25649.109 8   -175536.63927  19782336.603
 92  8 28  0 39 59.9970000  0  6G 3G17G11G23G28G21
  19784427.361 5  -1995161.80123  23909254.697
  -6778458.395 7 -11549043.30526  21168852.768
  -7299441.851 6  -5289021.07025  22764811.259
 -21353145.990 8 -17725413.09527  20015372.146
 -21803646.170 8 -16997440.01627  20114423.514
    -70117.754 8   -210187.53427  19773875.411
 92  8 28  0 40 29.9970000  0  5G17G11G23G28G21
  -6714983.645 7 -11499582.55325  21180935.963
  -7412426.908 6  -5377061.36325  22743311.103
 -21321345.360 8 -17700633.38527  20021425.466
 -21833124.304 8 -17020409.97127  20108817.305
   -114196.071 7   -244534.24327  19765488.237
 92  8 28  0 40 59.9970000  0  5G17G11G23G28G21
  -6651247.785 6 -11449918.24825  21193057.891
  -7525238.268 6  -5464966.24325  22721844.674
 -21289226.830 8 -17675605.94827  20027536.315
 -21861968.455 8 -17042885.92027  20103328.435
   -157885.572 7   -278577.99327  19757171.934
 92  8 28  0 41 29.9970000  0  5G17G11G23G28G21
  -6587201.581 6 -11400012.11225  21205250.541
  -7637837.476 6  -5552705.74925  22700415.749
 -21256767.148 7 -17650312.72227  20033715.098
 -21890123.019 8 -17064824.54627  20097968.746
   -201160.586 8   -312298.77627  19748939.394
 92  8 28  0 41 59.9970000  0  5G17G11G23G28G21
  -6522979.357 7 -11349968.85925  21217472.779
  -7750364.076 6  -5640388.73025  22679006.491
 -21224109.734 8 -17624865.37027  20039926.558
 -21917728.157 8 -17086335.03227  20092716.292
   -244183.804 8   -345823.34027  19740748.554
 92  8 28  0 42 29.9970000  0  5G17G11G23G28G21
  -6458656.219 6 -11299846.95525  21229706.020
  -7862905.905 6  -5728083.71325  22657590.247
 -21191322.621 8 -17599316.94427  20046167.187
 -21944875.990 8 -17107489.13527  20087551.228
   -287049.359 8   -379225.00628  19732597.287
 92  8 28  0 42 59.9970000  0  5G17G11G23G28G21
  -6393967.832 6 -11249440.44125  21242019.156
  -7975200.940 6  -5815586.30125  22636224.008
 -21158145.557 8 -17573464.70127  20052480.427
 -21971297.176 8 -17128077.09927  20082523.288
   -329479.230 8   -412287.26428  19724519.679
 92  8 28  0 43 29.9970000  0  5G17G11G23G28G21
  -6328917.059 7 -11198751.52125  21254397.737
  -8087243.536 6  -5902892.08825  22614905.107
 -21124581.080 8 -17547310.58427  20058866.036
 -21996984.317 8 -17148093.03727  20077633.314
   -371470.369 8   -445007.60828  19716528.052
 92  8 28  0 43 59.9970000  0  5G17G11G23G28G21
  -6263565.653 6 -11147828.39925  21266829.650
  -8199084.657 6  -5990040.94125  22593619.723
 -21090689.554 8 -17520901.57627  20065316.820
 -22022000.830 8 -17167586.38427  20072872.280
   -413062.681 8   -477417.16428  19708617.428
 92  8 28  0 44 29.9970000  0  5G17G11G23G28G21
  -6197894.182 6 -11096655.86525  21279330.816
  -8310693.385 6  -6077008.76925  22572379.367
 -21056459.894 8 -17494229.12327  20071831.130
 -22046321.087 8 -17186537.26627  20068244.443
   -454208.889 8   -509479.13628  19700785.290
 92  8 28  0 44 59.9970000  0  5G17G11G23G28G21
  -6131932.425 6 -11045257.09225  21291883.965
  -8422074.281 7  -6163799.01025  22551182.121
 -21021922.817 8 -17467317.13427  20078403.990
 -22069960.646 8 -17204957.68727  20063746.567
   -494914.437 8   -541197.73228  19693042.041
 92  8 28  0 45 29.9970000  0  5G17G11G23G28G21
  -6065710.140 6 -10993655.34725  21304482.564
  -8533239.036 6  -6250420.86825  22530029.335
 -20987083.679 7 -17440169.76227  20085031.262
 -22092946.735 8 -17222868.91327  20059372.326
   -535199.217 8   -572588.44928  19685369.992
 92  8 28  0 45 59.9970000  0  5G17G11G23G28G21
  -5999270.792 6 -10941884.46925  21317130.208
  -8644218.340 6  -6336898.19425  22508914.623
 -20951964.902 8 -17412804.46827  20091713.696
 -22115320.293 8 -17240302.84127  20055116.292
   -575095.166 8   -603676.18728  19677782.335
 92  8 28  0 46 29.9970000  0  5G17G11G23G28G21
  -5932599.891 6 -10889933.13425  21329822.701
  -8754983.487 6  -6423208.61725  22487835.975
 -20916527.221 8 -17385190.69527  20098457.108
 -22137063.113 7 -17257245.28527  20050975.948
   -614588.483 7   -634450.16928  19670264.319
 92  8 28  0 46 59.9970000  0  5G17G11G23G28G21
  -5865690.257 6 -10837795.73925  21342547.482
  -8865532.215 6  -6509350.39825  22466796.450
 -20880764.657 7 -17357323.77827  20105261.737
 -22158167.911 8 -17273690.57627  20046960.168
   -653699.764 8   -664926.48628  19662825.509
 92  8 28  0 47 29.9970000  0  5G17G11G23G28G21
  -5798729.998 6 -10785618.91625  21355296.186
  -8976060.749 6  -6595476.48025  22445762.292
 -20844869.567 7 -17329353.51927  20112090.619
 -22178819.748 8 -17289782.85927  20043029.499
   -692625.799 8   -695258.41528  19655416.918
 92  8 28  0 47 59.9970000  0  5G17G11G23G28G21
  -5731546.058 6 -10733267.84225  21368077.388
  -9086408.710 6  -6681461.84625  22424764.708
 -20808699.960 7 -17301170.20627  20118975.953
 -22198857.179 8 -17305397.22027  20039218.328
   -731216.247 8   -725328.86628  19648071.343
 92  8 28  0 48 29.9970000  0  5G17G11G23G28G21
  -5663308.419 6 -10680095.69325  21381060.590
  -9195756.966 6  -6766668.28325  22403961.480
 -20771459.473 8 -17272151.67627  20126063.646
 -22217443.948 8 -17319880.46627  20035678.498
   -768658.689 8   -754504.83228  19640949.204
 92  8 28  0 48 59.9970000  0  5G17G11G23G28G21
  -5594720.293 6 -10626650.39125  21394114.902
  -9304815.329 6  -6851648.73325  22383199.144
 -20733861.385 8 -17242854.49027  20133217.024
 -22235283.773 8 -17333781.60727  20032284.578
   -805664.807 8   -783340.75228  19633905.250
 92  8 28  0 49 29.9970000  0  5G17G11G23G28G21
  -5525899.464 6 -10573023.83525  21407210.976
  -9413689.560 6  -6936485.74825  22362488.222
 -20696008.971 8 -17213359.06127  20140425.623
 -22252495.848 7 -17347193.59327  20029007.187
   -842332.881 8   -811913.25128  19626929.410
 92  8 28  0 49 59.9970000  0  5G17G11G23G28G21
  -5456957.616 6 -10519302.90725  21420323.898
  -9522476.124 6  -7021254.42325  22341783.475
 -20658000.930 8 -17183742.39227  20147654.339
 -22269185.513 8 -17360198.52627  20025837.391
   -878762.941 8   -840300.28728  19619997.698
 92  8 28  0 50 29.9970000  0  5G17G11G23G28G21
  -5387820.430 6 -10465429.79925  21433486.316
  -9631091.473 6  -7105889.76025  22321114.344
 -20619745.372 8 -17153932.90327  20154935.069
 -22285271.517 8 -17372733.08527  20022773.183
   -914866.836 8   -868433.22028  19613125.376
 92  8 28  0 50 59.9970000  0  5G17G11G23G28G21
  -5318419.840 6 -10411351.50425  21446690.255
  -9739455.521 6  -7190329.25825  22300494.349
 -20581170.330 8 -17123874.43427  20162273.029
 -22300691.886 8 -17384748.94027  20019843.431
   -950554.495 8   -896241.74728  19606333.548
 92  8 28  0 51 29.9970000  0  5G17G11G23G28G21
  -5248755.450 6 -10357067.59225  21459945.819
  -9847567.298 6  -7274572.15225  22279918.753
 -20542293.919 8 -17093581.10927  20169672.236
 -22315439.113 8 -17396240.30427  20017031.288
   -985817.307 8   -923719.25528  19599620.415
 92  8 28  0 51 59.9970000  0  5G17G11G23G28G21
  -5178834.690 6 -10302583.83725  21473252.647
  -9955432.625 6  -7358622.97325  22259394.212
 -20503144.648 8 -17063075.17427  20177121.180
 -22329518.999 8 -17407211.62427  20014355.100
  -1020665.452 8   -950873.63828  19592997.370
 92  8 28  0 52 29.9970000  0  5G17G11G23G28G21
  -5108613.525 6 -10247866.11525  21486615.566
 -10063023.118 6  -7442459.70225  22238928.011
 -20463704.828 7 -17032342.87527  20184625.105
 -22342895.835 8 -17417635.13227  20011810.642
  -1055083.249 8   -977692.69228  19586445.916
 92  8 28  0 52 59.9970000  0  5G17G11G23G28G21
  -5038043.583 6 -10192876.61525  21500045.248
 -10170282.223 6  -7526038.16325  22218506.658
 -20423923.084 8 -17001344.11927  20192196.483
 -22355513.241 7 -17427466.88927  20009405.767
  -1089027.953 8  -1004143.10428  19579983.649
 92  8 28  0 53 29.9970000  0  5G17G11G23G28G21
  -4967158.587 6 -10137641.54725  21513532.132
 -10277252.206 7  -7609391.34325  22198154.467
 -20383831.694 7 -16970104.05127  20199825.122
 -22367414.837 8 -17436740.86127  20007143.473
  -1122565.038 8  -1030275.87628  19573597.620
 92  8 28  0 53 59.9970000  0  5G17G11G23G28G21
  -4896046.868 6 -10082229.82525  21527063.654
 -10384013.643 6  -7692582.04425  22177841.640
 -20343500.952 7 -16938677.51627  20207496.631
 -22378691.083 8 -17445527.53027  20004994.860
  -1155790.569 8  -1056165.89128  19567279.824
 92  8 28  0 54 29.9970000  0  5G17G11G23G28G21
  -4824754.101 6 -10026677.01125  21540632.980
 -10490611.077 6  -7775644.90825  22157550.907
 -20302958.876 8 -16907086.24827  20215221.294
 -22389383.626 8 -17453859.31227  20002962.088
  -1188746.285 8  -1081845.57328  19561004.119
 92  8 28  0 54 59.9970000  0  5G17G11G23G28G21
  -4753247.904 6  -9970958.01925  21554233.455
 -10596995.624 6  -7858541.97425  22137310.089
 -20262153.210 7 -16875289.71127  20222978.393
 -22399468.840 8 -17461718.02727  20001041.407
  -1221373.356 8  -1107269.35728  19554797.815
 92  8 28  0 55 29.9970000  0  5G17G11G23G28G21
  -4681510.332 6  -9915058.57625  21567890.500
 -10703145.725 6  -7941256.24325  22117100.990
 -20221068.527 7 -16843275.64927  20230797.730
 -22408924.182 7 -17469085.78727  19999238.755
  -1253636.131 8  -1132409.14628  19548662.772
 92  8 28  0 55 59.9970000  0  5G17G11G23G28G21
  -4609481.804 6  -9858932.54325  21581597.071
 -10808977.953 6  -8023722.94425  22096970.346
 -20179627.946 7 -16810984.31727  20238682.722
 -22417660.088 8 -17475893.01527  19997582.072
  -1285436.423 8  -1157188.59328  19542610.592
 92  8 28  0 56 29.9970000  0  5G17G11G23G28G21
  -4537203.502 6  -9802611.83925  21595355.147
 -10914526.131 6  -8105968.23025  22076884.131
 -20137883.192 7 -16778455.94327  20246627.671
 -22425720.459 8 -17482173.81427  19996044.976
  -1316802.431 8  -1181629.64128  19536639.026
 92  8 28  0 56 59.9970000  0  5G17G11G23G28G21
  -4464658.503 6  -9746083.24325  21609153.904
 -11019763.011 6  -8187970.96125  22056857.305
 -20095837.187 7 -16745692.82327  20254631.231
 -22433078.464 8 -17487907.32327  19994650.462
  -1347720.601 8  -1205721.70828  19530756.738
 92  8 28  0 57 29.9970000  0  5G17G11G23G28G21
  -4391900.132 6  -9689388.41625  21622998.140
 -11124737.970 7  -8269769.58825  22036886.181
 -20053554.677 7 -16712745.43427  20262674.362
 -22439768.593 8 -17493120.41227  19993376.404
  -1378250.529 8  -1229511.24428  19524942.474
 92  8 28  0 57 59.9970000  0  5G17G11G23G28G21
  -4318879.627 6  -9632489.46025  21636891.841
 -11229405.659 6  -8351328.77525  22016966.471
 -20011000.637 7 -16679586.45327  20270771.337
 -22445766.063 7 -17497793.76827  19992232.665
  -1408364.802 8  -1252976.91128  19519213.769
 92  8 28  0 58 29.9970000  0  5G17G11G23G28G21
  -4245599.819 6  -9575388.27825  21650842.174
 -11333775.437 7  -8432655.82225  21997102.763
 -19968186.482 7 -16646224.76127  20278920.685
 -22451104.556 7 -17501953.61927  19991216.249
  -1438092.641 8  -1276141.44728  19513557.435
 92  8 28  0 58 59.9970000  0  5G17G11G23G28G21
  -4172021.150 6  -9518054.29325  21664849.827
 -11437798.923 6  -8513713.12425  21977313.433
 -19925054.087 8 -16612615.12227  20287129.423
 -22455734.409 8 -17505561.29527  19990337.767
  -1467392.237 8  -1298972.29728  19507985.553
 92  8 28  0 59 29.9970000  0  5G17G11G23G28G21
  -4098162.640 6  -9460502.32225  21678901.669
 -11541500.394 7  -8594519.39225  21957575.187
 -19881593.717 7 -16578749.90027  20295397.489
 -22459694.422 8 -17508647.03427  19989583.309
  -1496291.028 8  -1321490.83228  19502482.322
 92  8 28  0 59 59.9970000  0  5G17G11G23G28G21
  -4024248.299 6  -9402906.72625  21692963.494
 -11645103.308 7  -8675248.87225  21937865.452
 -19838024.775 7 -16544800.09627  20303690.617
 -22463220.386 8 -17511394.53427  19988916.091
  -1525010.844 8  -1343869.89028  19497022.592
 92  8 28  1  0 29.9970000  0  5G17G11G23G28G21
  -3950098.368 6  -9345127.57825  21707075.115
 -11748418.008 7  -8755753.83425  21918205.122
 -19794152.683 7 -16510614.02327  20312038.848
 -22466099.291 8 -17513637.82127  19988364.024
  -1553354.663 8  -1365955.98428  19491627.647
 92  8 28  1  0 59.9970000  0  5G17G11G23G28G21
  -3875690.403 6  -9287147.47625  21721231.794
 -11851432.386 7  -8836024.74225  21898594.918
 -19749969.549 7 -16476185.64127  20320448.536
 -22468299.334 8 -17515352.16827  19987944.134
  -1581307.881 8  -1387737.72928  19486306.900
 92  8 28  1  1 29.9970000  0  5G17G11G23G28G21
  -3800874.592 6  -9228849.42425  21735461.623
 -11954011.773 7  -8915956.64525  21879075.401
 -19705357.078 7 -16441422.67527  20328934.971
 -22469686.426 7 -17516433.00327  19987678.758
  -1608731.852 8  -1409107.03228  19481086.015
 92  8 28  1  1 59.9970000  0  5G17G11G23G28G21
  -3725862.700 6  -9170398.59425  21749746.164
 -12056354.422 7  -8995704.12325  21859600.224
 -19660555.157 7 -16406512.10227  20337459.840
 -22470447.799 7 -17517026.27727  19987531.170
  -1635820.228 8  -1430214.84028  19475934.771
 92  8 28  1  2 29.9970000  0  5G17G11G23G28G21
  -3650565.132 6  -9111725.22525  21764072.736
 -12158373.370 7  -9075199.40325  21840194.028
 -19615487.091 7 -16371394.10827  20346039.090
 -22470488.751 8 -17517058.17827  19987529.371
  -1662496.379 8  -1451001.44028  19470856.287
 92  8 28  1  2 59.9970000  0  5G17G11G23G28G21
  -3574941.422 6  -9052797.71225  21778465.472
 -12260022.950 7  -9154406.80125  21820850.999
 -19570121.498 7 -16336044.29427  20354671.134
 -22469787.734 8 -17516511.95327  19987660.710
  -1688722.387 8  -1471437.27928  19465865.192
 92  8 28  1  3 29.9970000  0  5G17G11G23G28G21
  -3499052.853 6  -8993663.75325  21792908.274
 -12361345.412 7  -9233359.33625  21801565.111
 -19524513.698 7 -16300505.77926  20363348.177
 -22468398.405 8 -17515429.36027  19987926.057
  -1714546.900 8  -1491560.26928  19460945.598
 92  8 28  1  3 59.9970000  0  5G17G11G23G28G21
  -3422899.760 6  -8934323.71925  21807395.954
 -12462324.013 7  -9312043.94825  21782351.202
 -19478648.522 7 -16264766.70327  20372071.898
 -22466309.775 7 -17513801.85227  19988324.511
  -1739965.648 8  -1511367.07428  19456115.941
 92  8 28  1  4 29.9970000  0  5G17G11G23G28G21
  -3346497.462 6  -8874789.55325  21821933.610
 -12562974.904 7  -9390473.15425  21763198.211
 -19432522.896 8 -16228824.64327  20380854.018
 -22463553.418 8 -17511654.02927  19988848.098
  -1764997.888 8  -1530872.71028  19451350.290
 92  8 28  1  4 59.9970000  0  5G17G11G23G28G21
  -3269890.671 6  -8815095.93825  21836506.881
 -12663328.639 7  -9468670.81525  21744099.183
 -19386163.670 7 -16192700.56927  20389675.411
 -22460174.695 7 -17509021.25427  19989492.232
  -1789673.881 8  -1550100.72328  19446656.320
 92  8 28  1  5 29.9970000  0  5G17G11G23G28G21
  -3193082.579 6  -8755245.48025  21851122.872
 -12763392.943 7  -9546643.00925  21725054.388
 -19339578.668 7 -16156400.58927  20398538.745
 -22456175.913 7 -17505905.31527  19990251.487
  -1814000.375 8  -1569056.44628  19442024.646
 92  8 28  1  5 59.9970000  0  5G17G11G23G28G21
  -3116001.489 6  -8695182.37525  21865797.174
 -12863095.953 6  -9624333.61425  21706082.862
 -19292685.001 8 -16119860.08627  20407467.134
 -22451487.970 8 -17502252.38827  19991148.946
  -1837905.528 8  -1587683.82228  19437472.598
 92  8 28  1  6 29.9970000  0  5G17G11G23G28G21
  -3038691.240 6  -8634940.67725  21880512.696
 -12962488.470 7  -9701782.28625  21687176.480
 -19245529.726 8 -16083115.70927  20416439.413
 -22446163.513 7 -17498103.48327  19992155.469
  -1861447.216 8  -1606027.99828  19432994.208
 92  8 28  1  6 59.9970000  0  5G17G11G23G28G21
  -2961127.569 6  -8574501.44325  21895260.656
 -13061542.509 7  -9778967.24325  21668326.130
 -19198096.424 7 -16046154.72327  20425458.489
 -22440168.822 7 -17493432.30327  19993293.661
  -1884605.875 8  -1624073.70528  19428591.906
 92  8 28  1  7 29.9970000  0  5G17G11G23G28G21
  -2883296.189 6  -8513853.59325  21910078.558
 -13160239.682 7  -9855874.08525  21649538.017
 -19150374.765 7 -16008969.02427  20434546.758
 -22433479.365 7 -17488219.73027  19994571.556
  -1907371.396 8  -1641813.05928  19424255.917
 92  8 28  1  7 59.9970000  0  5G17G11G23G28G21
  -2805263.489 6  -8453049.02225  21924939.330
 -13258631.078 7  -9932542.68225  21630816.188
 -19102430.411 7 -15971609.78927  20443668.693
 -22426155.024 8 -17482512.48627  19995965.411
  -1929806.771 8  -1659295.18528  19419983.815
 92  8 28  1  8 29.9970000  0  5G17G11G23G28G21
  -2726959.331 6  -8392032.76925  21939826.005
 -13356636.816 7 -10008910.79225  21612170.865
 -19054209.051 7 -15934034.70327  20452846.779
 -22418117.084 7 -17476249.14527  19997491.894
  -1951824.282 8  -1676451.65528  19415797.303
 92  8 28  1  8 59.9970000  0  5G17G11G23G28G21
  -2648427.223 6  -8330838.96825  21954776.025
 -13454284.261 7 -10084999.67025  21593585.382
 -19005753.651 7 -15896277.28526  20462065.397
 -22409398.637 7 -17469455.55827  19999153.104
  -1973440.212 8  -1693295.22128  19411686.669
 92  8 28  1  9 29.9970000  0  5G17G11G23G28G21
  -2569688.101 6  -8269483.91925  21969758.663
 -13551593.809 7 -10160825.23125  21575062.405
 -18957097.852 7 -15858363.65626  20471324.367
 -22400030.264 7 -17462155.54327  20000936.959
  -1994671.867 8  -1709839.35728  19407645.976
 92  8 28  1  9 59.9970000  0  5G17G11G23G28G21
  -2490710.624 6  -8207943.02525  21984784.261
 -13648533.232 7 -10236362.45525  21556623.100
 -18908216.202 7 -15820274.06126  20480624.199
 -22389991.394 7 -17454333.07327  20002843.699
  -2015477.333 8  -1726051.41728  19403683.290
 92  8 28  1 10 29.9970000  0  5G17G11G23G28G21
  -2411507.331 6  -8146226.16225  21999862.262
 -13745108.463 7 -10311615.84425  21538244.054
 -18859101.074 7 -15782002.54226  20489972.207
 -22379292.185 7 -17445996.01027  20004876.412
  -2035855.965 8  -1741930.86028  19399807.363
 92  8 28  1 10 59.9970000  0  5G17G11G23G28G21
  -2332080.893 6  -8084335.52025  22014971.832
 -13841317.975 7 -10386584.26025  21519937.467
 -18809733.951 7 -15743534.68826  20499365.844
 -22367943.152 7 -17437152.62227  20007043.372
  -2055825.890 8  -1757491.82828  19396007.433
 92  8 28  1 11 29.9970000  0  5G17G11G23G28G21
  -2252409.016 6  -8022253.59325  22030127.390
 -13937144.862 7 -10461254.53625  21501698.034
 -18760096.126 7 -15704855.83826  20508816.232
 -22355929.170 7 -17427791.09327  20009326.981
  -2075389.820 8  -1772736.44528  19392285.600
 92  8 28  1 11 59.9970000  0  5G17G11G23G28G21
  -2172501.425 6  -7959987.92425  22045328.577
 -14032589.593 7 -10535627.02125  21483540.295
 -18710187.674 7 -15665966.13826  20518307.901
 -22343252.878 7 -17417913.45727  20011738.752
  -2094554.954 8  -1787670.31728  19388635.657
 92  8 28  1 12 29.9970000  0  5G17G11G23G28G21
  -2092369.147 6  -7897547.28925  22060589.871
 -14127667.788 7 -10609713.87525  21465442.543
 -18660026.778 7 -15626879.73126  20527856.711
 -22329926.820 7 -17407529.51427  20014277.754
  -2113358.476 8  -1802322.38728  19385063.120
 92  8 28  1 12 59.9970000  0  5G17G11G23G28G21
  -2012002.444 6  -7834923.94025  22075889.750
 -14222390.308 7 -10683523.61425  21447419.021
 -18609644.975 7 -15587621.19926  20537436.099
 -22315957.483 7 -17396644.34127  20016931.037
  -2131818.845 8  -1816707.10028  19381547.334
 92  8 28  1 13 29.9970000  0  5G17G11G23G28G21
  -1931364.813 6  -7772089.40325  22091228.631
 -14316724.486 7 -10757030.74125  21429468.648
 -18559036.803 7 -15548186.25526  20547074.396
 -22301307.230 7 -17385228.55627  20019718.058
  -2149910.692 8  -1830804.63428  19378105.507
 92  8 28  1 13 59.9970000  0  5G17G11G23G28G21
  -1850431.891 6  -7709024.95025  22106623.873
 -14410639.082 7 -10830210.90925  21411596.910
 -18508173.343 7 -15508552.39426  20556755.115
 -22285955.209 7 -17373265.94227  20022641.664
  -2167602.281 8  -1844590.28328  19374736.739
 92  8 28  1 14 29.9970000  0  5G17G11G23G28G21
  -1769276.215 6  -7645786.77725  22122066.392
 -14504208.328 7 -10903122.01125  21393787.199
 -18457127.146 7 -15468776.17426  20566464.823
 -22269973.097 7 -17360812.36727  20025684.257
  -2184969.497 8  -1858123.18428  19371434.075
 92  8 28  1 14 59.9970000  0  5G17G11G23G28G21
  -1687838.884 6  -7582329.09425  22137568.300
 -14597364.201 7 -10975710.95825  21376060.771
 -18405833.225 7 -15428806.90126  20576227.384
 -22253302.443 7 -17347822.25127  20028857.411
  -2201941.712 8  -1871348.27828  19368203.931
 92  8 28  1 15 29.9970000  0  5G17G11G23G28G21
  -1606150.019 5  -7518675.54925  22153110.021
 -14690104.371 7 -11047976.01725  21358414.507
 -18354276.979 7 -15388633.20726  20586040.101
 -22235953.297 7 -17334303.44527  20032156.896
  -2218519.200 8  -1884265.81228  19365047.297
 92  8 28  1 15 59.9970000  0  5G17G11G23G28G21
  -1524213.620 6  -7454829.05625  22168703.906
 -14782429.485 7 -11119917.62325  21340844.811
 -18302439.442 7 -15348240.31826  20595901.294
 -22217939.301 7 -17320266.56927  20035581.935
  -2234689.899 8  -1896866.33328  19361971.726
 92  8 28  1 16 29.9970000  0  5G17G11G23G28G21
  -1442050.229 6  -7390805.62025  22184344.618
 -14874349.419 7 -11191543.52025  21323355.938
 -18250339.984 7 -15307643.37826  20605816.780
 -22199272.041 7 -17305720.68327  20039141.401
  -2250468.839 8  -1909161.62728  19358965.317
 92  8 28  1 16 59.9970000  0  5G17G11G23G28G21
  -1359679.942 6  -7326621.05225  22200016.868
 -14965868.052 7 -11262856.70325  21305939.705
 -18197991.123 7 -15266852.04126  20615777.085
 -22179969.012 7 -17290679.35027  20042813.169
  -2265860.563 8  -1921155.17428  19356042.101
 92  8 28  1 17 29.9970000  0  5G17G11G23G28G21
  -1277110.109 6  -7262281.01725  22215723.715
 -15056982.112 7 -11333854.64625  21288604.536
 -18145391.473 7 -15225865.29626  20625790.063
 -22160027.159 7 -17275140.25327  20046606.263
  -2280858.709 8  -1932842.02528  19353182.620
 92  8 28  1 17 59.9970000  0  5G17G11G23G28G21
  -1194338.011 6  -7197783.29025  22231487.102
 -15147701.475 7 -11404545.03425  21271341.886
 -18092564.391 7 -15184701.34526  20635842.404
 -22139441.100 7 -17259099.19427  20050525.030
  -2295475.303 8  -1944231.59528  19350404.594
 92  8 28  1 18 29.9970000  0  5G17G11G23G28G21
  -1111382.425 6  -7133142.65925  22247272.254
 -15238036.187 7 -11474935.68225  21254147.080
 -18039540.666 7 -15143384.20126  20645928.531
 -22118200.627 7 -17242548.17627  20054565.034
  -2309727.209 8  -1955336.98128  19347694.050
 92  8 28  1 18 59.9970000  0  5G17G11G23G28G21
  -1028199.142 6  -7068324.58325  22263092.901
 -15327945.894 7 -11544995.18625  21237040.593
 -17986278.420 7 -15101881.14826  20656064.004
 -22096265.797 7 -17225456.10427  20058741.382
  -2323565.782 8  -1966120.26728  19345059.444
 92  8 28  1 19 29.9970000  0  5G17G11G23G28G21
   -944771.770 6  -7003316.24525  22278966.253
 -15417414.084 7 -11614710.64725  21220012.471
 -17932763.799 7 -15060181.44526  20666250.443
 -22073614.624 7 -17207805.85427  20063047.511
  -2336987.297 8  -1976578.59528  19342505.812
 92  8 28  1 19 59.9970000  0  5G17G11G23G28G21
   -861120.329 6  -6938133.36325  22294890.269
 -15506469.929 7 -11684104.74526  21203066.433
 -17879038.324 7 -15018317.45326  20676475.014
 -22050290.735 7 -17189631.41227  20067488.996
  -2350033.928 8  -1986744.79128  19340018.764
 92  8 28  1 20 29.9970000  0  5G17G11G23G28G21
   -777262.767 6  -6872789.93425  22310842.525
 -15595117.362 7 -11753180.66225  21186199.329
 -17825109.750 7 -14976295.19826  20686735.441
 -22026340.050 7 -17170968.54327  20072052.167
  -2362708.926 8  -1996621.39728  19337610.171
 92  8 28  1 20 59.9970000  0  5G17G11G23G28G21
   -693174.961 6  -6807266.99725  22326851.532
 -15683327.159 7 -11821915.54325  21169411.581
 -17770950.372 7 -14934093.07426  20697038.888
 -22001764.516 7 -17151818.78127  20076724.193
  -2374997.018 8  -2006196.52428  19335270.201
 92  8 28  1 21 29.9970000  0  5G17G11G23G28G21
   -608867.561 5  -6741572.98225  22342880.686
 -15771114.094 7 -11890320.91126  21152702.978
 -17716580.305 7 -14891726.80526  20707384.876
 -21976587.772 8 -17132200.57527  20081517.994
  -2386934.506 8  -2015498.45428  19332999.093
 92  8 28  1 21 59.9970000  0  5G17G11G23G28G21
   -524321.880 5  -6675693.29925  22358980.110
 -15858463.424 7 -11958385.28626  21136083.534
 -17661996.688 7 -14849194.14626  20717770.706
 -21950804.025 7 -17112109.34127  20086422.299
  -2398509.351 8  -2024517.82028  19330797.957
 92  8 28  1 22 29.9970000  0  5G17G11G23G28G21
   -439544.028 6  -6609632.59725  22375106.666
 -15945365.266 7 -12026101.00426  21119547.462
 -17607186.484 7 -14806484.91026  20728201.145
 -21924397.400 7 -17091532.78927  20091447.241
  -2409709.126 8  -2033244.91428  19328664.784
 92  8 28  1 22 59.9970000  0  5G17G11G23G28G21
   -354534.919 5  -6543391.74425  22391289.703
 -16031830.368 7 -12093476.37326  21103093.382
 -17552162.925 7 -14763609.38326  20738677.872
 -21897360.477 7 -17070465.06527  20096592.399
  -2420561.525 8  -2041701.31628  19326602.062
 92  8 28  1 23 29.9970000  0  5G17G11G23G28G21
   -269309.608 5  -6476982.56525  22407505.327
 -16117866.543 7 -12160517.52426  21086723.155
 -17496925.830 7 -14720567.50926  20749187.426
 -21869699.628 7 -17048911.17127  20101855.555
  -2431067.909 8  -2049888.09428  19324598.549
 92  8 28  1 23 59.9970000  0  5G17G11G23G28G21
   -183887.046 5  -6410419.54325  22423760.434
 -16203474.205 7 -12227224.77726  21070431.654
 -17441477.008 7 -14677360.69026  20759738.532
 -21841415.951 7 -17026871.94727  20107236.650
  -2441209.771 8  -2057790.83329  19322672.412
 92  8 28  1 24 29.9970000  0  5G17G11G23G28G21
    -98258.889 5  -6343696.37125  22440061.349
 -16288639.636 7 -12293587.43026  21054223.015
 -17385800.307 7 -14633976.23026  20770330.589
 -21812500.369 7 -17004340.33227  20112740.000
  -2450973.843 8  -2065399.20828  19320811.061
 92  8 28  1 24 59.9970000  0  5G17G11G23G28G21
    -12409.685 5  -6276800.98725  22456391.284
 -16373348.373 7 -12359594.20726  21038102.605
 -17329887.345 7 -14590407.70826  20780968.365
 -21782936.819 7 -16981303.84127  20118363.417
  -2460348.087 8  -2072703.80829  19319028.285
 92  8 28  1 25 29.9970000  0  5G17G11G23G28G21
     73668.817 5  -6209726.82325  22472781.357
 -16457579.456 7 -12425228.80526  21022078.488
 -17273725.204 7 -14546645.00726  20791661.812
 -21752703.150 7 -16957745.12727  20124119.042
  -2469303.007 8  -2079681.66129  19317324.505
 92  8 28  1 25 59.9970000  0  5G17G11G23G28G21
    159974.891 5  -6142475.42425  22489201.050
 -16541343.367 7 -12490499.35526  21006133.606
 -17217347.051 7 -14502714.00426  20802388.296
 -21721808.561 7 -16933671.42627  20130000.581
  -2477857.493 8  -2086347.49529  19315695.552
 92  8 28  1 26 29.9970000  0  5G17G11G23G28G21
    246516.660 5  -6075040.39925  22505669.070
 -16624627.830 7 -12555396.30226  20990287.296
 -17160752.523 7 -14458614.36326  20813156.811
 -21690253.983 7 -16909083.47327  20136002.156
  -2486018.066 8  -2092706.38429  19314145.265
 92  8 28  1 26 59.9970000  0  5G17G11G23G28G21
    333266.192 5  -6007443.28225  22522163.621
 -16707460.712 7 -12619941.39626  20974527.537
 -17103974.604 7 -14414371.81426  20823963.790
 -21658075.137 7 -16884009.04827  20142122.119
  -2493816.509 8  -2098783.07529  19312660.723
 92  8 28  1 27 29.9970000  0  5G17G11G23G28G21
    420218.564 5  -5939688.29125  22538714.413
 -16789835.859 7 -12684129.81626  20958849.980
 -17047013.508 7 -14369986.58926  20834808.392
 -21625284.225 7 -16858457.71727  20148361.909
  -2501262.428 8  -2104585.08929  19311245.523
 92  8 28  1 27 59.9970000  0  5G17G11G23G28G21
    507361.909 5  -5871784.51625  22555309.454
 -16871749.812 7 -12747958.82226  20943262.511
 -16989866.439 7 -14325456.43226  20845676.678
 -21591892.040 7 -16832437.86227  20154714.272
  -2508365.149 8  -2110119.67829  19309891.990
 92  8 28  1 28 29.9970000  0  5G17G11G23G28G21
    594677.561 6  -5803746.31525  22571921.824
 -16953203.211 7 -12811429.01126  20927760.933
 -16932529.310 7 -14280778.11626  20856591.582
 -21557901.736 7 -16805951.92027  20161193.506
  -2515127.734 8  -2115389.21529  19308607.829
 92  8 28  1 28 59.9970000  0  5G17G11G23G28G21
    682168.427 5  -5735571.69625  22588565.791
 -17034194.227 7 -12874538.85426  20912349.562
 -16875005.142 7 -14235954.09426  20867531.159
 -21523303.651 7 -16778992.37327  20167771.942
  -2521548.860 8  -2120392.66329  19307383.237
 92  8 28  1 29 29.9970000  0  5G17G11G23G28G21
    769880.631 5  -5667224.61225  22605265.310
 -17114664.503 7 -12937242.94526  20897035.234
 -16817236.748 7 -14190939.78826  20878528.925
 -21488034.929 7 -16751510.28227  20174482.766
  -2527568.220 8  -2125083.08429  19306238.000
 92  8 28  1 29 59.9970000  0  5G17G11G23G28G21
    857769.404 5  -5598739.85625  22621981.588
 -17194663.413 7 -12999579.75826  20881815.190
 -16759275.990 7 -14145775.59126  20889555.202
 -21452135.873 7 -16723537.03427  20181312.908
  -2533220.961 8  -2129487.83129  19305161.235
 92  8 28  1 30 29.9970000  0  5G17G11G23G28G21
    945910.806 5  -5530058.33325  22638749.999
 -17274137.198 7 -13061507.35326  20866689.491
 -16701072.305 7 -14100422.06426  20900629.385
 -21415556.051 7 -16695033.27427  20188276.727
  -2538447.848 8  -2133560.72629  19304167.783
 92  8 28  1 30 59.9970000  0  5G17G11G23G28G21
   1034291.698 6  -5461190.21125  22655574.262
 -17353108.133 7 -13123043.12726  20851663.234
 -16642650.012 7 -14054898.21626  20911747.009
 -21378333.812 7 -16666028.95827  20195361.092
  -2543269.758 8  -2137318.04629  19303249.219
 92  8 28  1 31 29.9970000  0  5G17G11G23G28G21
   1122868.657 5  -5392169.14225  22672433.181
 -17431611.256 7 -13184214.38126  20836722.567
 -16584043.550 7 -14009230.86726  20922906.663
 -21340520.396 7 -16636563.99327  20202551.105
  -2547722.368 8  -2140787.61229  19302404.224
 92  8 28  1 31 59.9960000  0  5G17G11G23G28G21
   1211662.927 5  -5322978.85725  22689331.043
 -17509625.042 7 -13245004.31026  20821880.922
 -16525255.204 7 -13963421.76626  20934086.134
 -21302116.152 7 -16606638.61027  20209864.842
  -2551791.116 8  -2143958.06129  19301626.712
 92  8 28  1 32 29.9960000  0  5G17G11G23G28G21
   1300691.667 5  -5253605.96825  22706268.597
 -17587137.078 7 -13305403.27426  20807128.075
 -16466273.243 7 -13917461.80226  20945312.882
 -21263113.103 7 -16576246.64627  20217284.885
  -2555473.578 8  -2146827.49929  19300929.365
 92  8 28  1 32 59.9960000  0  5G17G11G23G28G21
   1389944.339 5  -5184058.41325  22723263.682
 -17664122.869 8 -13365392.21226  20792480.995
 -16407088.771 7 -13871344.03526  20956577.553
 -21223491.744 7 -16545372.88427  20224823.196
  -2558761.257 8  -2149389.32029  19300305.556
 92  8 28  1 33 29.9960000  0  5G17G11G23G28G21
   1479389.173 5  -5114361.16125  22740265.812
 -17740600.236 8 -13424984.92426  20777926.551
 -16347722.327 7 -13825084.49526  20967873.163
 -21183257.560 7 -16514021.57127  20232480.285
  -2561684.864 8  -2151667.45929  19299743.985
 92  8 28  1 33 59.9960000  0  5G17G11G23G28G21
   1569021.665 5  -5044517.86125  22757330.868
 -17816572.653 8 -13484184.19426  20763468.880
 -16288183.338 7 -13778690.46626  20979203.550
 -21142407.261 7 -16482190.18027  20240258.011
  -2564260.996 8  -2153674.82329  19299256.912
 92  8 28  1 34 29.9960000  0  5G17G11G23G28G21
   1658816.271 5  -4974547.97425  22774428.601
 -17892047.771 8 -13542995.96626  20749107.112
 -16228461.707 7 -13732154.14526  20990557.889
 -21100946.054 7 -16449882.78127  20248148.279
  -2566505.332 8  -2155423.65529  19298826.980
 92  8 28  1 34 59.9960000  0  5G17G11G23G28G21
   1748793.680 5  -4904435.81725  22791532.480
 -17967003.993 8 -13601403.38726  20734841.308
 -16168526.910 7 -13685451.76426  21001972.487
 -21058858.880 7 -16417087.60627  20256155.945
  -2568395.583 8  -2156896.58929  19298473.525
 92  8 28  1 35 29.9960000  0  5G17G11G23G28G21
   1838969.940 5  -4834168.68525  22808690.532
 -18041434.975 7 -13659401.53926  20720675.425
 -16108368.704 7 -13638575.20726  21013417.963
 -21016154.032 7 -16383811.11627  20264278.042
  -2569916.867 8  -2158081.99929  19298177.780
 92  8 28  1 35 59.9960000  0  5G17G11G23G28G21
   1929343.089 5  -4763748.08125  22825893.853
 -18115343.624 7 -13716992.67726  20706615.368
 -16047990.931 7 -13591527.60926  21024911.886
 -20972851.805 7 -16350069.17027  20272520.926
  -2571065.658 8  -2158977.16129  19297961.749
 92  8 28  1 36 29.9960000  0  5G17G11G23G28G21
   2019895.953 5  -4693187.35224  22843132.698
 -18188741.647 7 -13774185.92126  20692645.669
 -15987403.698 7 -13544316.76626  21036440.375
 -20928979.019 7 -16315882.61427  20280866.758
  -2571846.171 8  -2159585.35129  19297812.992
 92  8 28  1 36 59.9960000  0  5G17G11G23G28G21
   2110650.052 5  -4622469.60023  22860393.579
 -18261616.636 8 -13830971.59526  20678780.358
 -15926611.700 7 -13496946.43326  21048009.756
 -20884531.505 7 -16281248.17327  20289328.130
  -2572248.791 8  -2159899.07229  19297738.973
 92  8 28  1 37 29.9960000  0  5G17G11G23G28G21
   2201620.894 5  -4551583.19524  22877716.217
 -18333948.060 8 -13887333.74126  20665012.659
 -15865606.163 7 -13449409.66026  21059616.881
 -20839488.292 7 -16246149.59527  20297896.379
  -2572250.198 8  -2159900.16329  19297738.374
 92  8 28  1 37 59.9960000  0  5G17G11G23G28G21
   2292801.079 5  -4480533.93724  22895067.215
 -18405734.355 8 -13943271.09526  20651355.344
 -15804393.345 7 -13401711.34626  21071257.912
 -20793844.060 7 -16210582.68826  20306586.733
  -2571865.041 8  -2159600.04129  19297810.384
 92  8 28  1 38 29.9960000  0  5G17G11G23G28G21
   2384162.271 5  -4409343.41324  22912442.916
 -18477000.635 8 -13998803.22926  20637794.052
 -15743014.855 7 -13353883.97126  21082951.287
 -20747620.277 7 -16174564.16827  20315381.054
  -2571131.076 8  -2159028.13229  19297946.789
 92  8 28  1 38 59.9960000  0  5G17G11G23G28G21
   2475722.305 5  -4337997.93024  22929872.010
 -18547725.119 8 -14053913.21426  20624335.320
 -15681458.739 7 -13305918.22926  21094659.891
 -20700797.797 7 -16138079.16426  20324286.839
  -2570029.309 8  -2158169.60429  19298154.366
 92  8 28  1 39 29.9960000  0  5G17G11G23G28G21
   2567439.192 5  -4266530.40824  22947324.608
 -18617944.104 8 -14108629.29026  20610974.949
 -15619761.681 7 -13257842.57726  21106398.954
 -20653409.729 7 -16101153.46526  20333308.314
  -2568600.739 8  -2157056.43929  19298434.941
 92  8 28  1 39 59.9960000  0  5G17G11G23G28G21
   2659335.566 5  -4194922.84025  22964808.114
 -18687633.224 8 -14162932.45326  20597711.081
 -15557905.077 6 -13209642.61526  21118173.123
 -20605439.423 7 -16063774.01626  20342434.835
  -2566835.945 8  -2155681.26629  19298767.981
 92  8 28  1 40 29.9960000  0  5G17G11G23G28G21
   2751431.365 5  -4123159.87824  22982338.058
 -18756766.328 8 -14216802.40726  20584556.398
 -15495860.195 7 -13161296.04625  21129973.794
 -20556874.962 7 -16025931.61126  20351677.047
  -2564707.269 8  -2154022.56429  19299171.921
 92  8 28  1 40 59.9960000  0  5G17G11G23G28G21
   2843708.431 5  -4051255.87824  22999890.127
 -18825358.498 8 -14270250.84826  20571501.996
 -15433633.697 7 -13112807.85325  21141816.795
 -20507745.525 7 -15987648.96926  20361029.343
  -2562226.525 8  -2152089.50929  19299639.897
 92  8 28  1 41 29.9960000  0  5G17G11G23G28G21
   2936179.860 5  -3979200.23825  23017488.604
 -18893393.345 7 -14323264.97826  20558557.197
 -15371214.337 7 -13064169.39525  21153694.482
 -20458034.556 7 -15948913.18126  20370490.673
  -2559390.392 8  -2149879.53229  19300180.513
 92  8 28  1 41 59.9960000  0  5G17G11G23G28G21
   3028834.722 5  -3907001.64924  23035123.296
 -18960866.142 7 -14375841.16726  20545716.277
 -15308595.275 7 -13015375.33825  21165607.635
 -20407748.344 7 -15909729.12826  20380051.354
  -2556194.061 8  -2147388.89629  19300791.010
 92  8 28  1 42 29.9960000  0  5G17G11G23G28G21
   3121665.849 5  -3834665.85724  23052798.280
 -19027772.083 7 -14427975.64026  20532982.592
 -15245778.001 7 -12966426.83825  21177567.855
 -20356886.162 7 -15870096.29226  20389735.040
  -2552625.138 8  -2144607.90229  19301471.000
 92  8 28  1 42 59.9960000  0  5G17G11G23G28G21
   3214682.433 5  -3762185.39424  23070484.896
 -19094106.448 7 -14479664.74426  20520358.781
 -15182773.553 7 -12917332.49126  21189555.176
 -20305437.674 7 -15830006.59726  20399527.761
  -2548683.285 8  -2141536.32929  19302221.410
 92  8 28  1 43 29.9960000  0  5G17G11G23G28G21
   3307882.652 5  -3689561.98324  23088227.063
 -19159865.224 8 -14530905.31726  20507846.283
 -15119588.194 7 -12868097.15526  21201580.991
 -20253405.532 7 -15789462.08826  20409427.477
  -2544368.694 8  -2138174.31629  19303042.901
 92  8 28  1 43 59.9960000  0  5G17G11G23G28G21
   3401260.073 5  -3616800.43024  23105999.150
 -19225058.385 8 -14581705.16826  20495441.231
 -15056239.908 7 -12818734.89525  21213634.536
 -20200811.089 7 -15748479.43426  20419436.258
  -2539690.200 8  -2134528.74029  19303931.636
 92  8 28  1 44 29.9960000  0  5G17G11G23G28G21
   3494857.201 5  -3543867.57224  23123805.622
 -19289653.345 8 -14632038.89926  20483146.533
 -14992710.810 7 -12769231.72925  21225723.338
 -20147620.990 7 -15707032.64926  20429558.271
  -2534620.683 8  -2130578.45629  19304896.009
 92  8 28  1 44 59.9960000  0  5G17G11G23G28G21
   3588645.686 5  -3470785.36724  23141647.621
 -19353681.407 8 -14681930.86826  20470962.248
 -14929032.158 7 -12719611.98625  21237840.679
 -20093866.661 7 -15665146.17326  20439785.001
  -2529193.654 8  -2126349.60729  19305925.886
 92  8 28  1 45 29.9960000  0  5G17G11G23G28G21
   3682586.704 5  -3397584.56424  23159535.577
 -19417174.573 8 -14731406.04226  20458883.100
 -14865227.236 7 -12669893.86225  21249990.847
 -20039584.514 7 -15622848.41726  20450119.807
  -2523437.641 8  -2121864.39329  19307025.464
 92  8 28  1 45 59.9960000  0  5G17G11G23G28G21
   3776710.720 5  -3324241.10124  23177432.228
 -19480088.442 8 -14780429.81726  20446911.758
 -14801252.849 7 -12620043.77125  21262155.406
 -19984729.997 7 -15580104.67426  20460555.822
  -2517309.416 8  -2117089.15729  19308189.978
 92  8 28  1 46 29.9960000  0  5G17G11G23G28G21
   3870990.598 5  -3250776.09024  23195373.277
 -19542430.356 8 -14829007.90526  20435050.799
 -14737110.939 7 -12570063.03825  21274362.475
 -19929315.346 7 -15536924.45826  20471101.381
  -2510810.459 8  -2112025.01929  19309425.513
 92  8 28  1 46 59.9960000  0  5G17G11G23G28G21
   3965450.897 5  -3177170.61124  23213348.773
 -19604169.500 8 -14877116.32026  20423298.245
 -14672762.179 7 -12519921.14725  21286609.807
 -19873327.905 7 -15493297.90126  20481753.877
  -2503915.087 8  -2106651.99129  19310740.013
 92  8 28  1 47 29.9960000  0  5G17G11G23G28G21
   4060080.666 5  -3103432.99023  23231356.736
 -19665310.579 8 -14924758.69926  20411665.368
 -14608223.049 7 -12469630.94325  21298894.042
 -19816792.330 7 -15449244.26426  20492514.328
  -2496644.865 8  -2100986.90029  19312125.953
 92  8 28  1 47 59.9960000  0  4G11G23G28G21
 -19725851.100 8 -14971933.11126  20400142.245
 -14543500.352 7 -12419197.73225  21311208.377
 -19759715.769 7 -15404769.06026  20503374.040
  -2489015.631 8  -2095042.03729  19313574.820
 92  8 28  1 48 29.9960000  0  4G11G23G28G21
 -19785796.060 8 -15018643.44326  20388737.001
 -14478608.457 7 -12368632.55725  21323554.191
 -19702101.126 7 -15359874.53226  20514334.842
  -2481049.515 8  -2088834.66029  19315088.053
 92  8 28  1 48 59.9960000  0  5G11G23G28G21G12
 -19845119.485 8 -15064869.46026  20377445.618
 -14413529.364 7 -12317921.56825  21335939.876
 -19643921.118 7 -15314539.48926  20525406.567
  -2472729.147 8  -2082351.24829  19316673.235
    -54691.14115    -50123.35931  23191852.155
 92  8 28  1 49 29.9960000  0  5G11G23G28G21G12
 -19903819.979 8 -15110610.10226  20366276.250
 -14348270.505 7 -12267070.57225  21348356.111
 -19585161.712 7 -15268752.99526  20536588.256
  -2464056.424 8  -2075593.29529  19318324.192
   -112745.155 5    -95360.06121  23180802.344
 92  8 28  1 49 59.9960000  0  5G11G23G28G21G12
 -19961958.103 8 -15155912.51826  20355213.339
 -14282872.032 7 -12216110.74325  21360798.277
 -19525878.216 7 -15222558.07426  20547865.998
  -2455080.223 8  -2068598.84429  19320029.202
   -170293.586 5   -140202.91522  23169856.652
 92  8 28  1 50 29.9960000  0  5G11G23G28G21G12
 -20019492.831 8 -15200744.75526  20344266.567
 -14217290.859 7 -12165008.52425  21373278.337
 -19466041.288 7 -15175931.91726  20559252.925
  -2445735.351 8  -2061317.13029  19321809.999
   -227295.443 5   -184619.76122  23158986.837
 92  8 28  1 50 59.9960000  0  5G11G23G28G21G12
 -20076431.860 8 -15245112.82926  20333425.293
 -14151526.874 6 -12113763.90125  21385794.343
 -19405680.209 7 -15128897.36626  20570742.351
  -2436014.608 8  -2053742.52829  19323664.186
   -283757.981 5   -228616.27422  23148228.305
 92  8 28  1 51 29.9960000  0  4G11G23G28G21
 -20132734.842 8 -15288985.26726  20322715.057
 -14085538.608 7 -12062344.50025  21398357.236
 -19344773.328 7 -15081437.45826  20582332.388
  -2425880.493 8  -2045845.80329  19325592.900
 92  8 28  1 51 59.9960000  0  4G11G23G28G21
 -20188430.825 8 -15332384.72926  20312116.764
 -14019357.559 6 -12010774.83925  21410946.450
 -19283367.389 7 -15033588.70526  20594021.925
  -2415363.632 8  -2037650.85429  19327588.169
 92  8 28  1 52 29.9960000  0  4G11G23G28G21
 -20243504.314 8 -15375299.11526  20301639.437
 -13952998.891 6 -11959066.77525  21423570.291
 -19221450.284 7 -14985341.65826  20605801.041
  -2404461.150 8  -2029155.40029  19329664.352
 92  8 28  1 52 59.9960000  0  4G11G23G28G21
 -20297980.282 8 -15417747.91226  20291271.295
 -13886494.500 6 -11907245.18725  21436228.698
 -19159036.223 7 -14936707.34726  20617671.263
  -2393228.965 8  -2020403.05429  19331803.011
 92  8 28  1 53 29.9960000  0  4G11G23G28G21
 -20351833.815 8 -15459711.70127  20281021.871
 -13819826.387 7 -11855296.08925  21448919.212
 -19096081.396 7 -14887651.66426  20629663.711
  -2381657.227 8  -2011386.12729  19334002.049
 92  8 28  1 53 59.9960000  0  4G11G23G28G21
 -20405040.787 8 -15501171.66627  20270898.929
 -13752988.416 7 -11803214.50925  21461635.629
 -19032549.635 7 -14838146.42326  20641749.994
  -2369724.626 8  -2002087.98729  19336276.484
 92  8 28  1 54 29.9960000  0  4G11G23G28G21
 -20457684.201 8 -15542192.48527  20260880.974
 -13686072.055 6 -11751071.87125  21474366.166
 -18968522.481 7 -14788255.18026  20653928.823
  -2357514.659 8  -1992573.73429  19338594.360
 92  8 28  1 54 59.9960000  0  4G11G23G28G21
 -20509686.115 8 -15582713.44027  20250983.326
 -13618987.199 7 -11698798.02725  21487138.494
 -18903931.970 7 -14737924.91026  20666226.579
  -2344953.126 8  -1982785.51829  19340982.596
 92  8 28  1 55 29.9960000  0  4G11G23G28G21
 -20561071.341 8 -15622753.86027  20241208.293
 -13551766.976 7 -11646418.64625  21499926.980
 -18838824.507 7 -14687191.85726  20678613.224
  -2332054.470 8  -1972734.63429  19343442.573
 92  8 28  1 55 59.9960000  0  4G11G23G28G21
 -20611824.503 8 -15662301.77027  20231547.421
 -13484402.474 7 -11593926.81825  21512746.436
 -18773220.731 7 -14636072.09226  20691096.042
  -2318801.279 8  -1962407.46729  19345966.106
 92  8 28  1 56 29.9960000  0  4G11G23G28G21
 -20661939.323 8 -15701352.23727  20222009.164
 -13416871.719 6 -11541305.45525  21525591.193
 -18707126.369 7 -14584569.99326  20703672.516
  -2305195.996 8  -1951805.94329  19348554.005
 92  8 28  1 56 59.9960000  0  5G11G23G28G21G12
 -20711429.119 8 -15739915.71327  20212596.431
 -13349191.076 6 -11488567.33925  21538477.173
 -18640565.712 7 -14532704.56726  20716336.229
  -2291250.485 8  -1940939.30129  19351208.337
    -19801.59115    -20563.64131  23027677.591
 92  8 28  1 57 29.9960000  0  5G11G23G28G21G12
 -20760300.900 8 -15777997.60627  20203293.571
 -13281385.685 6 -11435732.01025  21551377.482
 -18573548.078 7 -14480483.06726  20729091.409
  -2276971.149 8  -1929812.55729  19353925.056
    -68910.879 5    -58832.83222  23018341.903
 92  8 28  1 57 59.9960000  0  5G11G23G28G21G12
 -20808539.974 8 -15815586.48627  20194114.675
 -13213438.327 7 -11382785.97525  21564309.749
 -18506048.433 7 -14427885.97826  20741936.166
  -2262351.295 8  -1918420.45129  19356704.193
   -117440.803 6    -96648.28123  23009100.321
 92  8 28  1 58 29.9960000  0  5G11G23G28G21G12
 -20856131.468 8 -15852670.75227  20185059.594
 -13145329.755 6 -11329714.39825  21577267.229
 -18438038.690 7 -14374891.38226  20754878.417
  -2247381.157 8  -1906755.40429  19359555.039
   -165376.374 5   -134000.55024  22999981.534
 92  8 28  1 58 59.9960000  0  5G11G23G28G21G12
 -20903095.984 8 -15889266.45927  20176120.862
 -13077091.897 6 -11276542.10125  21590254.928
 -18369548.718 7 -14321522.60826  20767908.956
  -2232079.897 8  -1894832.37529  19362463.565
   -212737.812 6   -170905.66023  22990970.282
 92  8 28  1 59 29.9960000  0  5G11G23G28G21G12
 -20949430.323 8 -15925371.12627  20167306.664
 -13008710.560 6 -11223257.92525  21603266.430
 -18300572.278 7 -14267774.77226  20781040.675
  -2216450.191 8  -1882653.36629  19365443.952
   -259521.953 6   -207360.75624  22982071.723
 92  8 28  1 59 59.9960000  0  5G11G23G28G21G12
 -20995127.251 8 -15960979.10227  20158610.015
 -12940157.984 6 -11169840.32225  21616316.695
 -18231110.326 7 -14213648.57826  20794256.396
  -2200483.309 8  -1870211.63729  19368479.920
   -305721.361 5   -243360.22025  22973284.686
 92  8 28  2  0 29.9960000  0  5G11G23G28G21G12
 -21040177.188 8 -15996082.92127  20150035.351
 -12871418.845 6 -11116277.37925  21629391.064
 -18161164.637 7 -14159145.47826  20807570.479
  -2184167.935 8  -1857498.36329  19371580.644
   -351326.020 5   -278896.23325  22964601.257
 92  8 28  2  0 59.9960000  0  5G11G23G28G21G12
 -21084597.205 8 -16030695.90027  20141583.362
 -12802522.752 6 -11062592.15525  21642497.121
 -18090750.122 7 -14104277.04926  20820970.482
  -2167523.719 8  -1844528.83629  19374756.375
   -396353.081 5   -313982.21925  22956021.437
 92  8 28  2  1 29.9960000  0  5G11G23G28G21G12
 -21128366.176 8 -16064801.57827  20133249.491
 -12733455.450 6 -11008773.47925  21655642.571
 -18019843.371 7 -14049025.08126  20834460.303
  -2150540.197 8  -1831294.92429  19377983.191
   -440781.048 5   -348601.46025  22947566.151
 92  8 28  2  1 59.9960000  0  5G11G23G28G21G12
 -21171497.115 8 -16098410.09327  20125044.801
 -12664247.080 6 -10954844.89325  21668815.901
 -17948471.361 7 -13993410.55326  20848045.099
  -2133237.114 8  -1817812.00229  19381278.930
   -484622.936 5   -382763.85825  22939222.896
 92  8 28  2  2 29.9960000  0  5G11G23G28G21G12
 -21214005.957 8 -16131533.85027  20116960.808
 -12594940.952 6 -10900840.15025  21682011.206
 -17876652.703 7 -13937447.97626  20861713.057
  -2115638.536 8  -1804098.82729  19384622.425
   -527894.362 5   -416481.77625  22930988.647
 92  8 28  2  2 59.9960000  0  5G11G23G28G21G12
 -21255854.280 8 -16164142.93527  20108994.633
 -12525516.380 6 -10846743.13025  21695209.359
 -17804362.549 7 -13881118.03526  20875466.036
  -2097698.851 8  -1790119.85029  19388040.179
   -570556.708 5   -449725.11725  22922877.672
 92  8 28  2  3 29.9960000  0  6G11G23G28G21G12G15
 -21297050.643 8 -16196243.97227  20101156.019
 -12455971.783 6 -10792552.48325  21708453.380
 -17731632.895 6 -13824445.57326  20889303.526
  -2079426.035 8  -1775881.27929  19391517.592
   -612618.299 5   -482500.43925  22914871.175
    552890.64215   -137736.70931  23621353.028
 92  8 28  2  3 59.9960000  0  6G11G23G28G21G12G15
 -21337579.578 8 -16227824.94627  20093440.650
 -12386285.591 6 -10738251.54125  21721707.925
 -17658457.227 7 -13767425.61426  20903230.475
  -2060798.346 8  -1761366.19129  19395062.188
   -654063.515 5   -514795.31825  22906979.978
    442226.609 5   -223969.58821  23600296.685
 92  8 28  2  4 29.9960000  0  6G11G23G28G21G12G15
 -21377440.214 8 -16258885.18827  20085857.730
 -12316451.515 6 -10683835.49725  21735002.851
 -17584835.734 7 -13710058.26826  20917236.209
  -2041812.045 8  -1746571.67929  19398674.447
   -694891.316 5   -546609.14225  22899214.933
    331611.943 5   -310162.72523  23579255.721
 92  8 28  2  4 59.9960000  0  6G11G23G28G21G12G15
 -21416612.789 8 -16289409.24327  20078402.611
 -12246443.070 6 -10629283.46025  21748318.013
 -17510747.910 6 -13652327.50826  20931340.125
  -2022449.977 8  -1731484.36229  19402356.558
   -735081.850 6   -577926.52025  22891570.136
    221066.412 5   -396301.96524  23558205.074
 92  8 28  2  5 29.9960000  0  6G11G23G28G21G12G15
 -21455166.317 8 -16319450.94727  20071065.820
 -12176334.342 6 -10574653.27725  21761656.529
 -17436257.521 7 -13594283.06326  20945516.051
  -2002802.776 8  -1716174.85529  19406098.358
   -774703.792 6   -608800.70625  22884026.788
    110520.792 5   -482441.21024  23537168.847
 92  8 28  2  5 59.9960000  0  5G11G23G28G21G12
 -21493074.608 8 -16348989.85027  20063849.726
 -12106113.841 6 -10519935.98925  21775020.947
 -17361322.030 7 -13535891.81126  20959777.268
  -1982840.712 8  -1700619.98129  19409896.069
   -813730.934 6   -639211.33325  22876608.364
 92  8 28  2  6 29.9960000  0  5G11G23G28G21G12
 -21530319.913 8 -16378012.16627  20056767.069
 -12035778.519 6 -10465129.30525  21788416.273
 -17285922.804 7 -13477139.21426  20974117.091
  -1962548.387 8  -1684807.78029  19413759.914
   -852145.270 6   -669144.52425  22869292.828
 92  8 28  2  6 59.9960000  0  6G11G23G28G21G12G15
 -21566907.334 8 -16406521.81627  20049805.439
 -11965341.110 6 -10410242.99225  21801814.658
 -17210073.745 7 -13418036.03926  20988555.635
  -1941941.829 8  -1668750.71529  19417681.199
   -889951.635 6   -698604.14325  22862103.055
    595631.58415    -65976.83831  23474093.743
 92  8 28  2  7 29.9960000  0  6G11G23G28G21G12G15
 -21602845.948 8 -16434525.91827  20042964.355
 -11894809.505 6 -10355283.28625  21815238.405
 -17133794.742 7 -13358597.90226  21003072.455
  -1921031.931 8  -1652457.28629  19421656.237
   -927158.998 6   -727596.78525  22855008.797
    485222.329 6   -152009.92821  23453092.982
 92  8 28  2  7 59.9960000  0  6G11G23G28G21G12G15
 -21638097.558 8 -16461994.72227  20036256.678
 -11824133.618 6 -10300211.19825  21828683.257
 -17057058.356 6 -13298803.37826  21017671.149
  -1899773.649 8  -1635892.39729  19425701.547
   -963728.935 6   -756092.77225  22848055.860
    374880.209 6   -237990.89221  23432094.888
 92  8 28  2  8 29.9960000  0  6G11G23G28G21G12G15
 -21672656.565 8 -16488923.80327  20029677.763
 -11753297.746 6 -10245014.48925  21842159.528
 -16979887.971 6 -13238670.61526  21032357.172
  -1878178.025 8  -1619064.63329  19429808.224
   -999655.601 6   -784087.52325  22841229.526
    264611.022 6   -323914.83623  23411121.018
 92  8 28  2  8 59.9960000  0  6G11G23G28G21G12G15
 -21706510.944 8 -16515303.83027  20023233.304
 -11682271.122 6 -10189669.02525  21855683.975
 -16902287.365 6 -13178202.63626  21047122.250
  -1856236.591 8  -1601967.40429  19433986.551
  -1034927.044 6   -811571.79525  22834510.188
    154426.594 5   -409772.70823  23390143.101
 92  8 28  2  9 29.9960000  0  6G11G23G28G21G12G15
 -21739718.738 8 -16541180.02927  20016913.589
 -11611105.880 6 -10134215.57825  21869222.033
 -16824314.341 6 -13117444.47026  21061962.097
  -1833996.677 8  -1584637.59928  19438220.370
  -1069600.963 6   -838590.38025  22827913.404
     44268.822 5   -495609.95723  23369179.064
 92  8 28  2  9 59.9960000  0  6G11G23G28G21G12G15
 -21772247.012 8 -16566526.72527  20010728.961
 -11539767.149 6 -10078626.97725  21882795.226
 -16745949.190 6 -13056380.75126  21076874.134
  -1811427.352 8  -1567051.10728  19442518.015
  -1103644.212 6   -865117.51625  22821428.144
    -65828.902 5   -581400.28423  23348242.698
 92  8 28  2 10 29.9960000  0  6G11G23G28G21G12G15
 -21804089.473 8 -16591339.02827  20004667.517
 -11468265.279 6 -10022911.31525  21896405.354
 -16667178.965 6 -12995001.37226  21091862.467
  -1788517.373 8  -1549199.18328  19446875.109
  -1137050.443 5   -891148.25125  22815076.981
   -175860.488 5   -667139.11824  23327290.833
 92  8 28  2 10 59.9960000  0  6G11G23G28G21G12G15
 -21835281.407 8 -16615644.42427  19998734.924
 -11396657.242 6  -9967112.80725  21910026.035
 -16588022.907 6 -12933321.35726  21106927.788
  -1765298.180 8  -1531106.27028  19451293.959
  -1169854.457 5   -916709.88625  22808838.899
   -285861.053 5   -752853.65025  23306368.407
 92  8 28  2 11 29.9960000  0  6G11G23G28G21G12G15
 -21865795.503 8 -16639421.62327  19992924.167
 -11324934.669 6  -9911225.10925  21923670.459
 -16508451.977 6 -12871318.09626  21122069.586
  -1741750.922 8  -1512757.77228  19455774.927
  -1202029.231 5   -941781.06625  22802707.184
   -395802.937 5   -838522.52925  23285440.855
 92  8 28  2 11 59.9960000  0  6G11G23G28G21G12G15
 -21895629.000 8 -16662668.51527  19987248.286
 -11253105.651 6  -9855254.48725  21937347.261
 -16428458.982 6 -12808985.90726  21137289.629
  -1717881.347 8  -1494158.10028  19460314.115
  -1233571.576 5   -966359.46025  22796706.299
   -505683.175 6   -924143.51725  23264526.493
 92  8 28  2 12 29.9960000  0  6G11G23G28G21G12G15
 -21924759.861 8 -16685367.84327  19981703.864
 -11181154.455 6  -9799188.63225  21951036.234
 -16348008.802 6 -12746297.47826  21152599.670
  -1693666.453 8  -1475289.34428  19464924.773
  -1264459.182 5   -990427.57125  22790834.174
   -615479.347 6  -1009698.90525  23243636.445
 92  8 28  2 12 59.9960000  0  6G11G23G28G21G12G15
 -21953192.224 8 -16707522.93327  19976298.097
 -11109075.249 6  -9743022.99125  21964757.944
 -16267125.595 6 -12683271.64925  21167990.145
  -1669119.935 8  -1456162.17328  19469593.621
  -1294696.431 6  -1013989.18525  22785076.180
   -725195.363 5  -1095191.77925  23222755.511
 92  8 28  2 13 29.9960000  0  6G11G23G28G21G12G15
 -21980929.321 8 -16729136.23127  19971016.833
 -11036859.405 6  -9686750.94425  21978495.724
 -16185817.399 6 -12619914.64025  21183460.815
  -1644243.561 8  -1436777.98628  19474327.554
  -1324286.043 6  -1037045.96825  22779450.185
   -834834.115 5  -1180624.45725  23201906.354
 92  8 28  2 13 59.9960000  0  6G11G23G28G21G12G15
 -22007980.555 8 -16750215.11227  19965869.516
 -10964520.763 6  -9630383.21025  21992265.222
 -16104093.057 6 -12556233.35926  21199014.977
  -1619038.795 8  -1417137.90528  19479127.860
  -1353237.208 5  -1059605.23725  22773940.599
   -944404.657 5  -1266004.10924  23181029.677
 92  8 28  2 14 29.9960000  0  6G11G23G28G21G12G15
 -22034323.823 8 -16770742.32227  19960857.226
 -10892047.241 6  -9573910.34225  22006059.482
 -16021946.696 6 -12492223.23625  21214649.064
  -1593492.906 8  -1397232.01228  19483986.237
  -1381527.710 6  -1081649.71525  22768548.922
  -1053884.527 5  -1351313.02124  23160215.087
 92  8 28  2 14 59.9960000  0  6G11G23G28G21G12G15
 -22059944.551 8 -16790706.49727  19955981.252
 -10819428.080 6  -9517323.96925  22019865.374
 -15939390.057 6 -12427893.45525  21230358.009
  -1567603.590 8  -1377058.50528  19488912.846
  -1409142.995 6  -1103168.23525  22763288.463
  -1163258.525 5  -1436539.37725  23139409.040
 92  8 28  2 15 29.9960000  0  6G11G23G28G21G12G15
 -22084869.800 8 -16810128.75327  19951235.417
 -10746700.693 6  -9460653.26225  22033710.450
 -15856456.441 6 -12363269.87626  21246139.744
  -1541397.582 8  -1356638.24328  19493901.663
  -1436109.789 6  -1124181.23725  22758162.432
  -1272553.281 5  -1521703.98325  23118601.525
 92  8 28  2 15 59.9960000  0  6G11G23G28G21G12G15
 -22109095.876 8 -16829006.20827  19946626.888
 -10673864.077 6  -9403897.57825  22047569.975
 -15773164.849 6 -12298367.35125  21261988.452
  -1514882.079 8  -1335976.80328  19498946.001
  -1462424.124 6  -1144685.82925  22753160.575
  -1381764.462 5  -1606803.46825  23097819.942
 92  8 28  2 16 29.9960000  0  6G11G23G28G21G12G15
 -22132628.039 8 -16847342.93727  19942154.194
 -10600907.890 6  -9347048.57625  22061451.895
 -15689546.399 6 -12233210.18325  21277900.686
  -1488069.613 8  -1315083.97628  19504050.567
  -1488091.190 6  -1164686.09225  22748276.806
  -1490896.846 5  -1691841.75525  23077053.019
 92  8 28  2 16 59.9960000  0  6G11G23G28G21G12G15
 -22155458.012 8 -16865132.51227  19937806.244
 -10527816.354 6  -9290094.12825  22075365.323
 -15605587.077 6 -12167787.37225  21293875.517
  -1460938.458 8  -1293942.80928  19509209.995
  -1513102.509 6  -1184175.51425  22743512.264
  -1599941.380 5  -1776811.44725  23056300.186
 92  8 28  2 17 29.9960000  0  6G11G23G28G21G12G15
 -22177592.401 8 -16882380.07727  19933594.969
 -10454603.418 6  -9233045.11125  22089292.931
 -15521271.764 6 -12102087.16525  21309924.576
  -1433495.497 8  -1272558.69428  19514432.739
  -1537464.524 6  -1203158.81825  22738876.363
  -1708904.131 5  -1861717.32025  23035564.321
 92  8 28  2 17 59.9960000  0  6G11G23G28G21G12G15
 -22199033.664 8 -16899087.55627  19929510.777
 -10381272.704 6  -9175904.33925  22103251.897
 -15436582.611 6 -12036095.65425  21326037.342
  -1405748.374 8  -1250937.55728  19519710.885
  -1561179.539 6  -1221637.98125  22734367.485
  -1817786.730 5  -1946560.76825  23014849.291
 92  8 28  2 18 29.9960000  0  6G11G23G28G21G12G15
 -22219761.635 8 -16915239.20727  19925564.609
 -10307817.438 6  -9118666.43425  22117223.605
 -15351478.812 6 -11969781.01825  21342234.079
  -1377660.607 8  -1229050.97828  19525058.673
  -1584227.250 6  -1239597.19025  22729982.451
  -1926568.433 5  -2031325.49824  22994142.237
 92  8 28  2 18 59.9960000  0  6G11G23G28G21G12G15
 -22239797.968 8 -16930851.93527  19921754.576
 -10234276.989 6  -9061362.19025  22131231.467
 -15265966.159 6 -11903147.83425  21358510.831
  -1349255.754 8  -1206917.33228  19530460.873
  -1606629.093 6  -1257053.27725  22725727.017
  -2035270.107 6  -2116027.83324  22973472.986
 92  8 28  2 19 29.9960000  0  6G11G23G28G21G12G15
 -22259136.076 8 -16945920.58927  19918075.373
 -10160638.648 6  -9003981.64525  22145238.640
 -15180059.920 6 -11836207.94125  21374851.108
  -1320537.130 8  -1184539.16328  19535927.619
  -1628378.332 6  -1274000.64725  22721575.790
  -2143884.177 6  -2200662.04025  22952787.336
 92  8 28  2 19 59.9960000  0  6G11G23G28G21G12G15
 -22277765.742 8 -16960437.19727  19914532.066
 -10086873.555 6  -8946502.43125  22159284.487
 -15093779.881 6 -11768976.77425  21391274.549
  -1291480.663 8  -1161897.77028  19541458.999
  -1649464.549 6  -1290431.36225  22717578.987
  -2252399.753 6  -2285219.45925  22932146.475
 92  8 28  2 20 29.9960000  0  6G11G23G28G21G12G15
 -22295705.021 8 -16974415.85427  19911117.610
 -10012993.659 6  -8888933.66325  22173330.872
 -15007186.841 6 -11701501.72925  21407754.290
  -1262102.987 8  -1139006.08128  19547043.323
  -1669905.554 6  -1306359.43325  22713671.822
  -2360834.049 6  -2369713.40024  22911505.315
 92  8 28  2 20 59.9960000  0  6G11G23G28G21G12G15
 -22312943.431 8 -16987848.37627  19907837.311
  -9938972.500 6  -8831254.78925  22187418.360
 -14920296.030 6 -11633794.62725  21424280.679
  -1232415.199 8  -1115872.73528  19552704.035
  -1689690.957 6  -1321776.64525  22709913.144
  -2469175.774 6  -2454135.34225  22890891.196
 92  8 28  2 21 29.9960000  0  6G11G23G28G21G12G15
 -22329450.527 8 -17000711.03427  19904693.298
  -9864776.797 6  -8773439.94425  22201535.917
 -14833091.098 6 -11565842.78625  21440879.828
  -1202390.117 8  -1092476.56828  19558413.222
  -1708789.846 6  -1336658.79425  22706268.657
  -2577393.161 5  -2538460.46825  22870293.415
 92  8 28  2 21 59.9960000  0  6G11G23G28G21G12G15
 -22345220.462 8 -17012999.28527  19901694.833
  -9790409.544 6  -8715491.57025  22215682.883
 -14745552.449 6 -11497630.89625  21457541.333
  -1172029.374 8  -1068818.84428  19564188.784
  -1727196.183 6  -1351001.31625  22702771.578
  -2685479.345 6  -2622683.38825  22849726.723
 92  8 28  2 22 29.9960000  0  6G11G23G28G21G12G15
 -22360281.126 8 -17024734.86427  19898825.850
  -9715921.704 6  -8657449.01525  22229865.824
 -14657691.438 6 -11429167.78025  21474258.360
  -1141375.610 8  -1044932.79428  19570021.666
  -1744937.871 6  -1364826.00525  22699401.431
  -2793461.340 6  -2706825.26724  22829174.122
 92  8 28  2 22 59.9960000  0  6G11G23G28G21G12G15
 -22374648.249 8 -17035930.02227  19896096.929
  -9641342.487 6  -8599335.34025  22244052.033
 -14569497.564 6 -11360445.34025  21491043.410
  -1110447.606 8  -1020833.05228  19575904.553
  -1762030.450 6  -1378144.96325  22696148.234
  -2901354.105 6  -2790897.46825  22808645.653
 92  8 28  2 23 29.9960000  0  6G11G23G28G21G12G15
 -22388324.155 8 -17046586.57727  19893493.111
  -9566687.693 6  -8541162.76525  22258258.059
 -14480968.729 6 -11291461.91125  21507881.643
  -1079237.488 8   -996513.49028  19581847.039
  -1778475.965 6  -1390959.54225  22693007.638
  -3009158.674 6  -2874900.90725  22788135.232
 92  8 28  2 23 59.9960000  0  6G11G23G28G21G12G15
 -22401260.109 8 -17056666.52227  19891031.485
  -9491914.634 6  -8482898.15625  22272492.534
 -14392060.498 6 -11222182.77325  21524804.778
  -1047692.220 8   -971932.73128  19587850.054
  -1794225.466 6  -1403231.80025  22690026.921
  -3116824.517 6  -2958796.40525  22767651.613
 92  8 28  2 24 29.9960000  0  6G11G23G28G21G12G15
 -22413472.674 8 -17066182.83927  19888703.567
  -9417047.823 6  -8424560.35425  22286734.865
 -14302795.214 6 -11152625.45825  21541790.809
  -1015825.352 8   -947101.42028  19593913.146
  -1809295.434 6  -1414974.62125  22687155.959
  -3224367.515 5  -3042596.07625  22747180.794
 92  8 28  2 24 59.9960000  0  6G11G23G28G21G12G15
 -22424925.111 8 -17075106.76927  19886527.014
  -9342044.525 6  -8366116.15725  22301008.103
 -14213153.246 6 -11082774.63725  21558861.561
   -983594.539 8   -921986.50328  19600045.941
  -1823648.933 6  -1426159.24825  22684421.192
  -3331749.904 6  -3126270.51525  22726746.761
 92  8 28  2 25 29.9960000  0  6G11G23G28G21G12G15
 -22435635.947 8 -17083452.86527  19884491.813
  -9266915.761 6  -8307574.30325  22315307.574
 -14123169.356 6 -11012657.32225  21575972.545
   -951014.252 8   -896599.25328  19606242.441
  -1837304.337 6  -1436799.72825  22681819.743
  -3438988.382 6  -3209832.87425  22706336.620
 92  8 28  2 25 59.9960000  0  6G11G23G28G21G12G15
 -22445631.859 8 -17091241.90027  19882589.480
  -9191676.996 6  -8248946.79625  22329620.355
 -14032871.252 6 -10942295.16825  21593156.319
   -918108.733 8   -870958.60028  19612506.155
  -1850288.050 6  -1446916.84525  22679351.042
  -3546108.226 6  -3293303.01125  22685959.637
 92  8 28  2 26 29.9960000  0  6G11G23G28G21G12G15
 -22454909.764 8 -17098471.41527  19880818.726
  -9116315.123 6  -8190223.19425  22343971.870
 -13942258.488 6 -10871687.88525  21610395.435
   -884872.753 8   -845060.43428  19618832.795
  -1862597.019 6  -1456508.18725  22677008.704
  -3653105.369 6  -3376677.26125  22665592.157
 92  8 28  2 26 59.9960000  0  6G11G23G28G21G12G15
 -22463484.334 8 -17105152.89427  19879186.895
  -9040833.479 6  -8131406.33525  22358328.601
 -13851361.323 6 -10800858.97425  21627698.136
   -851321.485 8   -818916.59127  19625217.685
  -1874245.602 6  -1465585.06325  22674790.539
  -3759992.962 6  -3459966.20525  22645252.498
 92  8 28  2 27 29.9960000  0  6G11G23G28G21G12G15
 -22471327.682 8 -17111264.59027  19877699.265
  -8965201.900 6  -8072472.68725  22372716.061
 -13760142.968 6 -10729779.79825  21645059.117
   -817444.114 8   -792518.64027  19631664.272
  -1885205.478 6  -1474125.17425  22672713.217
  -3866741.357 6  -3543146.72325  22624945.606
 92  8 28  2 27 59.9960000  0  6G11G23G28G21G12G15
 -22478460.999 8 -17116823.01327  19876336.618
  -8889446.308 6  -8013442.39025  22387136.618
 -13668618.758 6 -10658462.25625  21662475.860
   -783265.595 8   -765886.01828  19638169.918
  -1895497.967 6  -1482145.21125  22670745.469
  -3973370.448 6  -3626234.27725  22604654.693
 92  8 28  2 28 29.9960000  0  6G11G23G28G21G12G15
 -22484874.076 8 -17121820.19827  19875122.789
  -8813578.904 6  -7954324.91525  22401579.209
 -13576778.329 6 -10586898.34325  21679952.321
   -748786.615 8   -739019.28927  19644734.293
  -1905112.502 6  -1489636.95425  22668915.806
  -4079868.845 6  -3709219.97825  22584387.554
 92  8 28  2 28 59.9960000  0  6G11G23G28G21G12G15
 -22490564.392 8 -17126254.21927  19874034.063
  -8737613.316 6  -7895130.93525  22416028.037
 -13484604.562 6 -10515074.64425  21697492.129
   -714020.221 8   -711928.58827  19651344.777
  -1914046.636 6  -1496598.70525  22667215.203
  -4186232.038 6  -3792100.28825  22564144.368
 92  8 28  2 29 29.9960000  0  6G11G23G28G21G12G15
 -22495545.898 8 -17130135.90027  19873089.177
  -8661573.079 6  -7835878.86325  22430505.344
 -13392101.355 6 -10442994.26125  21715088.267
   -678972.216 8   -684618.45827  19658016.179
  -1922313.658 6  -1503040.48525  22665644.681
  -4292471.993 6  -3874884.66825  22543931.551
 92  8 28  2 29 59.9960000  0  6G11G23G28G21G12G15
 -22499815.729 8 -17133463.03027  19872279.347
  -8585460.206 6  -7776570.17325  22444982.772
 -13299290.786 6 -10370674.38225  21732753.358
   -643631.306 8   -657080.07627  19664736.896
  -1929910.802 6  -1508960.28425  22664196.833
  -4398584.540 6  -3957569.75725  22523739.839
 92  8 28  2 30 29.9960000  0  6G11G23G28G21G12G15
 -22503387.766 8 -17136246.44327  19871592.703
  -8509285.880 6  -7717213.51825  22459480.855
 -13206202.082 6 -10298137.78325  21750462.338
   -608022.115 8   -629332.68227  19671517.212
  -1936851.890 6  -1514368.85325  22662874.988
  -4504582.069 6  -4040165.10725  22503557.841
 92  8 28  2 30 59.9960000  0  6G11G23G28G21G12G15
 -22506234.066 8 -17138464.33227  19871055.564
  -8433004.418 6  -7657773.42425  22473993.268
 -13112828.904 6 -10225379.51825  21768235.564
   -572108.468 8   -601348.01127  19678347.953
  -1943108.530 6  -1519244.25425  22661688.080
  -4610434.447 6  -4122647.38025  22483415.505
 92  8 28  2 31 29.9960000  0  7G25G11G23G28G21G12G15
        -2.70415    -28755.32731  23778244.464
 -22508366.741 8 -17140126.15227  19870647.457
  -8356615.349 6  -7598249.58425  22488534.821
 -13019221.461 6 -10152438.69725  21786046.234
   -535890.658 8   -573126.32227  19685243.659
  -1948692.764 6  -1523595.58325  22660619.380
  -4716152.279 6  -4205024.98625  22463302.789
 92  8 28  2 31 59.9960000  0  7G25G11G23G28G21G12G15
   -106317.144 5   -111598.02721  23758000.678
 -22509766.042 7 -17141216.51527  19870380.372
  -8280094.789 6  -7538623.13725  22503096.011
 -12925373.845 6 -10079310.68725  21803912.635
   -499351.430 8   -544654.20827  19692191.200
  -1953584.718 6  -1527407.39825  22659703.154
  -4821713.516 6  -4287280.36325  22443217.414
 92  8 28  2 32 29.9960000  0  7G25G11G23G28G21G12G15
   -212659.198 5   -194463.40721  23737773.921
 -22510441.263 8 -17141742.64527  19870252.540
  -8203459.955 6  -7478907.64625  22517673.539
 -12831274.559 6 -10005986.63925  21821816.361
   -462496.104 8   -515935.76227  19699209.371
  -1957793.425 6  -1530686.88025  22658897.312
  -4927126.040 6  -4369419.86225  22423157.221
 92  8 28  2 32 59.9960000  0  7G25G11G23G28G21G12G15
   -319010.771 5   -277341.03721  23717531.425
 -22510385.230 8 -17141698.98926  19870263.543
  -8126694.774 6  -7419090.61425  22532282.965
 -12736910.998 6  -9932456.62625  21839766.974
   -425311.948 8   -486961.10127  19706285.642
  -1961311.515 6  -1533428.35125  22658221.460
  -5032380.600 6  -4451436.34425  22403131.924
 92  8 28  2 33 29.9960000  0  7G25G11G23G28G21G12G15
   -425383.718 6   -360233.68821  23697285.421
 -22509612.609 8 -17141096.95126  19870407.803
  -8049815.692 6  -7359184.96725  22546912.747
 -12642284.648 6  -9858721.84225  21857772.959
   -387824.811 8   -457750.32727  19713420.613
  -1964153.273 6  -1535642.63325  22657688.878
  -5137489.896 6  -4533339.74025  22383123.986
 92  8 28  2 33 59.9960000  0  7G25G11G23G28G21G12G15
   -531775.075 5   -443135.95423  23677040.166
 -22508117.871 8 -17139932.21226  19870695.004
  -7972822.628 6  -7299190.32125  22561558.358
 -12547361.362 6  -9784755.67525  21875845.317
   -350042.352 8   -428309.46827  19720604.809
  -1966313.157 6  -1537325.58925  22657280.261
  -5242446.543 6  -4615124.03025  22363158.468
 92  8 28  2 34 29.9960000  0  7G25G11G23G28G21G12G15
   -638187.805 6   -526054.81524  23656792.783
 -22505910.919 8 -17138212.51026  19871117.412
  -7895719.313 6  -7239109.76325  22576236.407
 -12452151.912 6  -9710566.55225  21893953.651
   -311985.617 8   -398654.85627  19727850.553
  -1967800.982 6  -1538484.92525  22656988.054
  -5347258.612 6  -4696795.65225  22343207.369
 92  8 28  2 34 59.9960000  0  7G25G11G23G28G21G12G15
   -744571.079 6   -608950.74225  23636551.036
 -22502936.635 8 -17135894.90726  19871680.722
  -7818440.097 5  -7178892.16625  22590939.728
 -12356626.717 6  -9636131.40825  21912136.873
   -273603.675 8   -368746.85727  19735152.148
  -1968560.990 6  -1539077.20025  22656843.404
  -5451868.412 6  -4778309.84425  22323303.099
